     2              OBSERVATION DATA    GPS                 RINEX VERSION / TYPE
teqc 1998Mar9 19981223 00:13:07UTC                          PGM / RUN BY / DATE
                                                            COMMENT
Original Marker Name: 0386                                  COMMENT
Campaign Name: HPGN 1998                                    COMMENT
4-Character Station Name: 0386                              COMMENT
6-Character Antenna Code: TRMCMP                            COMMENT
Vertical Measurement Point: BPA                             COMMENT
Vertical Offset to Rinex Ref. Point: 0.0000                 COMMENT
Radial Measurement Point: RRP                               COMMENT
Radial Offset to Rinex Ref. Point: 0.0000                   COMMENT
Antenna Height from Field Measurement: 1.8000 m             COMMENT
Original XYZ: -2387788.0645 -4730383.2603 3539031.3160      COMMENT
New XYZ position is based on association with SCEC monument COMMENT
E1D0P9K2+0101. Position of that monument is believed to be  COMMENT
valid to within 1 m horizontally; vertical accuracy         COMMENT
should be no worse than 3-times this value.                 COMMENT
                                                            COMMENT
Revised Rinex header created by UCSD GPS archive for        COMMENT
GSAC on 30-Aug-1999 (1999:242) 23:32:29 GMT                 COMMENT
For assistance contact dagnew@ucsd.edu or hjohnson@ucsd.edu COMMENT
                                                            COMMENT
603.86.68                                                   MARKER NAME
unknown CALIF DEPT TRANSPORTATION                           OBSERVER / AGENCY
16913 TRIMBLE 4000 SSI NP 7.22; SP 3.06                     REC # / TYPE / VERS
69912 TR GEOD L1/L2 GP                                      ANT # / TYPE
 -2387787.0000 -4730385.0000  3539032.0000                  APPROX POSITION XYZ
        1.8000        0.0000        0.0000                  ANTENNA: DELTA H/E/N
     1     1     0                                          WAVELENGTH FACT L1/2
     7    C1    L1    L2    P1    P2    S1    S2            # / TYPES OF OBSERV
     0                                                      INTERVAL
  1998     6    18    19    38   15.000000                  TIME OF FIRST OBS
  1998     6    19     1     7   45.000000                  TIME OF LAST OBS
                                                            END OF HEADER
 98  6 18 19 38 15.0000000  0  7G 5G 6G30G10G13G17G24
  22675265.6954    1242773.32556    847454.27956                  22675272.9884
        16.5004         16.5004
  21015015.2504    -174124.30157   -110249.45657                  21015021.2504
        27.7504         27.5004
  21066391.6024     789647.99358    536821.08157                  21066397.5554
        32.0004         31.7504
  21548554.4534     808825.67656    559925.18656                  21548561.2274
        15.7504         17.2504
  24788286.9774       6376.20852
         4.7504
  22414374.9224    -275451.04156   -178631.72856                  22414382.4614
        16.7504         19.2504
  23927316.1174    1040913.99452    658382.31655                  23927326.1644
         4.5004          5.0004
 98  6 18 19 38 30.0000000  0  7G 5G 6G30G10G13G17G24
  22688149.1884    1310477.43346    900210.66646                  22688156.7624
        16.5004         16.5004
  21013807.3134    -180472.52447   -115196.11847                  21013813.3594
        27.7504         28.0004
  21075330.0084     836620.63948    573423.12747                  21075335.9734
        32.7504         31.7504
  21557357.0784     855084.12446    595970.73046                  21557363.7704
        14.7504         16.7504
  24790599.9614      18533.69042
         4.5004
  22412205.5784    -286850.89646   -187514.70146                  22412212.9774
        17.5004         19.2504
  23938073.3364    1097439.42042    702428.06144                  23938079.2304
         3.7504          4.0004
 98  6 18 19 38 45.0000000  0  7G 5G 6G30G10G13G17G24
  22701068.4774    1378367.83746    953112.22046                  22701075.9104
        16.2504         16.2504
  21012635.7894    -186628.20748   -119992.74347                  21012641.8244
        28.7504         28.5004
  21084319.2274     883859.80048    610232.84047                  21084325.1454
        31.5004         31.0004
  21566211.4304     901612.04046    632226.24946                  21566218.2624
        15.0004         17.2504
  24792962.6254      30947.23642
         4.5004
  22410072.2734    -298060.12146   -196249.16046                  22410079.1054
        17.7504         19.0004
  23948855.9064    1154105.63542    746583.56845                  23948862.5164
         4.7504          5.0004
 98  6 18 19 39  0.0000000  0  7G 5G 6G30G10G13G17G24
  22714020.9774    1446433.30946   1006150.19646                  22714028.4924
        17.0004         16.2504
  21011498.9144    -192603.92248   -124649.14747                  21011504.6564
        30.0004         29.0004
  21093357.0004     931353.80748    647241.13747                  21093362.9534
        30.2504         30.2504
  21575114.3674     948399.29646    668683.83546                  21575121.4144
        15.2504         17.0004
  24795371.3204      43603.30743
         5.5004
  22407974.2114    -309088.33346   -204842.55646                  22407981.3404
        17.7504         19.2504
  23959664.0554    1210899.99343    790838.96545                  23959669.5514
         5.0004          4.5004
 98  6 18 19 39 15.0000000  0  7G 5G 6G30G10G13G17G24
  22727005.9224    1514668.98046   1059320.79446                  22727013.4844
        17.5004         16.2504
  21010395.3134    -198403.51548   -129168.30847                  21010401.2304
        29.7504         29.7504
  21102442.3914     979096.34448    684443.08547                  21102448.3094
        31.2504         30.5004
  21584066.0704     995442.13746    705340.59046                  21584072.7504
        14.5004         16.2504
  24797824.8594      56493.53843
         5.0004
  22405908.9534    -319939.75446   -213298.19346                  22405916.2464
        18.7504         19.2504
  23970494.0004    1267813.09942    835186.86245                  23970499.9414
         4.7504          5.7504
 98  6 18 19 39 30.0000000  0  7G 5G 6G30G10G13G17G24
  22740022.7814    1583071.82946   1112621.65146                  22740029.6024
        16.5004         15.7504
  21009324.4774    -204030.46948   -133552.93947                  21009330.3714
        30.2504         30.0004
  21111573.2734    1027080.11648    721833.01647                  21111579.3674
        31.0004         30.2504
  21593066.2734    1042736.78546    742193.52946                  21593073.3674
        15.0004         16.0004
  24800321.0234      69612.34943
         5.5004
  22403876.7894    -330618.70546   -221619.42946                  22403884.1994
        18.2504         19.7504
  23981345.2734    1324837.25842    879621.24244                  23981346.1174
         4.7504          4.2504
 98  6 18 19 39 45.0000000  0  7G 5G 6G30G10G13G17G24
  22753069.8754    1651636.57446   1166048.66446                  22753077.2154
        16.7504         16.5004
  21008286.0004    -209487.67148   -137805.30347                  21008291.7774
        30.5004         30.2504
  21120748.7424    1075297.89248    759405.28747                  21120754.7194
        29.7504         29.7504
  21602112.2504    1090272.95046    779234.70146                  21602118.9184
        14.2504         16.2504
  24802858.7424      82953.65843
         5.0004
  22401877.0084    -341128.98346   -229809.24446                  22401884.0314
        18.7504         20.0004
  23992217.0004    1381965.39942    924136.51645                  23992222.8364
         4.7504          5.0004
 98  6 18 19 40  0.0000000  0  7G 5G 6G30G10G13G17G24
  22766148.1884    1720362.29446   1219601.09946                  22766156.0784
        16.2504         16.5004
  21007280.3524    -214772.59648   -141923.43247                  21007286.0474
        30.5004         30.2504
  21129968.8204    1123749.15548    797159.48247                  21129974.8794
        30.0004         29.0004
  21611203.3524    1138046.69946    816460.95946                  21611209.6094
        14.7504         15.5004
  24805440.6484      96516.96542
         4.7504
  22399909.6254    -351468.27446   -237865.82346                  22399916.7894
        19.7504         20.2504
  24003107.6884    1439198.19242    968733.45745                  24003119.7854
         4.7504          4.7504
 98  6 18 19 40 15.0000000  0  7G 5G 6G30G10G13G17G24
  22779257.4614    1789253.15046   1273282.22246                  22779264.9774
        15.7504         16.5004
  21006308.2664    -219881.16148   -145904.12147                  21006314.1134
        30.5004         30.2504
  21139233.9384    1172437.33548    835098.31347                  21139239.9494
        30.2504         29.0004
  21620339.7584    1186057.23546    853871.79246                  21620346.0274
        14.7504         15.7504
  24808065.1174     110305.90242
         4.7504
  22397974.9774    -361634.99947   -245787.91746                  22397982.0704
        20.0004         20.5004
  24014018.8444    1496541.11541   1013416.25744                  24014025.5944
         3.5004          3.5004
 98  6 18 19 40 30.0000000  0  7G 5G 6G30G10G13G17G24
  22792399.2034    1858314.73146   1327096.38646                  22792406.9884
        16.0004         16.2504
  21005370.1484    -224810.29948   -149745.00547                  21005375.9734
        30.5004         30.5004
  21148544.8284    1221366.31548    873224.77647                  21148550.7934
        29.5004         29.0004
  21629521.2894    1234308.41946    891470.10346                  21629527.6054
        15.0004         15.5004
  24810732.5004     124327.64742
         4.2504
  22396073.2194    -371626.96346   -253573.83746                  22396080.2304
        19.2504         20.0004
  24024953.2894    1553999.47641   1058189.06042                  24024963.5234
         3.5004          2.2504
 98  6 18 19 40 45.0000000  0  8G 5G 6G30G10G13G17G26G24
  22805569.5004    1927524.92346   1381026.33846                  22805577.3324
        16.0004         16.0004
  21004462.1094    -229582.05148   -153463.24247                  21004467.9104
        30.5004         30.7504
  21157896.9224    1270511.70748    911519.85647                  21157902.8524
        29.5004         28.2504
  21638744.7734    1282778.42046    929238.93146                  21638750.9734
        14.0004         15.2504
  24813439.4774     138559.56042
         4.5004
  22394200.5474    -381467.40546   -261241.69146                  22394207.8404
        19.5004         20.0004
  24353798.4924     -11716.21353
         5.2504
  24035905.0314    1611548.75342   1103032.40744                  24035910.1884
         3.7504          3.7504
 98  6 18 19 41  0.0000000  0  8G 5G 6G30G10G13G17G26G24
  22818769.8134    1996891.87546   1435078.42646                  22818777.8324
        16.5004         16.5004
  21003584.9614    -234191.24548   -157054.82347                  21003590.9734
        30.2504         30.5004
  21167290.6484    1319876.15648    949985.63847                  21167296.6134
        30.0004         29.0004
  21648011.1174    1331472.62146    967182.45346                  21648018.5044
        13.5004         15.7504
  24816189.9534     153010.03442
         4.0004
  22392358.4144    -391149.05746   -268785.82546                  22392365.9414
        19.2504         20.0004
  24349632.8524     -33611.84344
         7.2504
  24046874.5944    1669191.41142   1147948.74642                  24046874.0784
         4.0004          2.0004
 98  6 18 19 41 15.0000000  0  8G 5G 6G30G10G13G17G26G24
  22831997.3524    2066402.51446   1489242.49046                  22832005.3714
        16.0004         16.0004
  21002736.1804    -238652.51448   -160531.13047                  21002742.1914
        30.0004         31.0004
  21176723.4614    1369445.46448    988611.05647                  21176729.5664
        28.7504         28.2504
  21657316.9534    1380376.24046   1005289.15646                  21657323.3984
        14.2504         15.7504
  24818979.4534     167665.02442
         4.7504
  22390544.5704    -400681.11247   -276213.37946                  22390551.8164
        20.2504         20.2504
  24345482.3524     -55420.26345
         9.7504
  24057858.6414    1726913.24341
         3.2504
 98  6 18 19 41 30.0000000  0  8G 5G 6G30G10G13G17G26G24
  22845251.1414    2136050.91746   1543513.89946                  22845259.0084
        16.2504         15.7504
  21001914.4774    -242969.94548   -163895.35947                  21001920.5234
        30.2504         30.7504
  21186194.0084    1419215.51147   1027392.89847                  21186200.0664
        27.7504         27.7504
  21666661.5784    1429480.89146   1043552.51146                  21666668.2704
        15.2504         16.0004
  24821806.4304     182523.39942      6193.67055                  24821812.9104
         4.7504          4.7504
  22388758.0004    -410069.49547   -283528.98046                  22388765.2464
        20.2504         20.0004
  24341348.3134     -77143.34045
        11.7504
  24068857.1174    1784710.51242
         4.5004
 98  6 18 19 41 45.0000000  0  8G 5G 6G30G10G13G17G26G24
  22858531.5004    2205840.35546   1597895.21746                  22858538.3954
        15.0004         14.7504
  21001121.5234    -247137.43348   -167142.74847                  21001127.4184
        31.2504         31.2504
  21195704.1884    1469191.75347   1066335.39547                  21195710.3874
        27.2504         27.5004
  21676044.8754    1478789.31346   1081974.63946                  21676051.7814
        15.0004         16.5004
  24824675.1254     197593.53642     17936.59445                  24824683.3094
         4.5004          4.7504
  22386999.3204    -419310.98246   -290730.11146                  22387006.5084
        19.7504         20.2504
  24337232.3594     -98773.14545
         9.7504
  24079869.5004    1842589.99242
         4.2504
 98  6 18 19 42  0.0000000  0  8G 5G 6G30G10G13G17G26G24
  22871838.7424    2275769.10346   1652385.08546                  22871846.4454
        14.7504         15.0004
  21000357.2664    -251153.64448   -170272.26647                  21000363.2074
        31.2504         31.5004
  21205254.0634    1519376.37747   1105440.27047                  21205260.3444
        26.5004         27.2504
  21685466.6334    1528302.20346   1120556.08946                  21685472.9264
        16.0004         16.2504
  24827582.6644     212876.80242     29845.54644                  24827586.0164
         4.2504          4.0004
  22385268.7894    -428405.42747   -297816.66846                  22385275.6484
        20.7504         20.0004
  24333134.6644    -120307.67545     -7820.95355                  24333144.9454
         9.5004          9.5004
  24090901.4064    1900552.98044
         6.5004
 98  6 18 19 42 15.0000000  0  8G 5G 6G30G10G13G17G26G24
  22885171.6954    2345833.37646   1706980.55546                  22885178.8484
        14.7504         15.0004
  20999620.5864    -255025.08648   -173288.97547                  20999626.3524
        30.7504         31.5004
  21214843.0864    1569766.54847   1144705.31147                  21214849.4844
        26.5004         26.7504
  21694927.4304    1578018.54946   1159296.07446                  21694933.6884
        15.0004         16.2504
  24830530.9534     228369.01943     41917.48243                  24830540.8954
         5.0004          3.2504
  22383565.2274    -437357.35047   -304792.18546                  22383571.4964
        21.0004         20.0004
  24329054.4454    -141749.33745    -24528.66045                  24329064.3874
        10.7504          9.7504
  24101945.5864    1958595.58844
         6.7504
 98  6 18 19 42 30.0000000  0  8G 5G 6G30G10G13G17G26G24
  22898527.4064    2416019.03446   1761670.62546                  22898534.6764
        14.7504         15.0004
  20998908.9924    -258764.05648   -176202.46347                  20998914.8404
        30.7504         31.5004
  21224469.5944    1620354.10647   1184124.15647                  21224475.7464
        26.7504         27.0004
  21704424.9534    1627929.07746   1198187.38046                  21704431.1414
        15.7504         15.5004
  24833515.7894     244060.14542     54144.32944                  24833519.2934
         4.0004          4.2504
  22381886.4304    -446178.70047   -311665.94546                  22381893.0514
        21.2504         20.0004
  24324989.6094    -163108.73045    -41172.31145                  24324999.6564
        10.5004         10.0004
  24113003.6644    2016703.41144
         7.0004
 98  6 18 19 42 45.0000000  0  8G 5G 6G30G10G13G17G26G24
  22911908.9454    2486339.46046   1816465.70646                  22911916.5904
        15.0004         15.0004
  20998225.8834    -262353.60148   -178999.49947                  20998231.8014
        30.2504         31.5004
  21234136.7504    1671155.71447   1223709.81547                  21234142.8204
        27.0004         27.0004
  21713962.8914    1678050.37446   1237242.95346                  21713969.5824
        14.0004         15.7504
  24836541.5704     259964.68142     66537.69044                  24836544.2194
         4.5004          3.5004
  22380236.5004    -454850.06047   -318422.82146                  22380243.3954
        21.0004         20.2504
  24320942.9924    -184369.58745    -57739.08745                  24320952.8164
        10.7504         10.7504
  24124076.0634    2074888.68344
         7.2504
 98  6 18 19 43  0.0000000  0  8G 5G 6G30G10G13G17G26G24
  22925315.5004    2556791.71346   1871363.48846                  22925323.8364
        14.7504         14.7504
  20997571.1174    -265795.07848   -181681.16947                  20997577.1414
        30.2504         31.2504
  21243844.1024    1722169.55147   1263460.83247                  21243850.1374
        26.5004         26.2504
  21723539.3134    1728376.36046   1276457.99446                  21723545.6524
        14.5004         15.5004
  24839608.1644     276075.33842     79091.30044                  24839607.5084
         4.7504          3.7504
  22378614.8204    -463372.17947   -325063.41446                  22378621.5124
        20.5004         20.2504
  24316916.0944    -205533.77445    -74230.60545                  24316925.7194
        10.0004         10.2504
  24135162.2424    2133146.16644      6051.82755                  24135162.7934
         6.7504          5.0004
 98  6 18 19 43 15.0000000  0  8G 5G 6G30G10G13G17G26G24
  22938745.0944    2627363.63946   1926354.52146                  22938753.1954
        14.7504         14.7504
  20996942.3914    -269099.25948   -184255.85447                  20996948.2624
        30.5004         31.2504
  21253590.6414    1773386.79747   1303370.34647                  21253596.7344
        26.5004         25.7504
  21733152.7274    1778894.03046   1315822.38746                  21733158.7624
        15.7504         15.2504
  24842710.9774     292378.05642     91794.64944                  24842725.0434
         4.7504          3.7504
  22377018.7894    -471758.84547   -331598.44546                  22377025.4804
        21.7504         20.5004
  24312905.5234    -226610.76945    -90654.12345                  24312914.9264
        10.5004         11.0004
  24146259.2814    2191465.36044     51495.17145                  24146269.3164
         6.7504          4.5004
 98  6 18 19 43 30.0000000  0  8G 5G 6G30G10G13G17G26G24
  22952197.0784    2698054.96146   1981438.59646                  22952205.2034
        14.2504         14.7504
  20996340.6564    -272261.10448   -186719.62647                  20996346.2464
        31.0004         31.5004
  21263376.3594    1824810.85547   1343441.02047                  21263382.4654
        25.2504         26.0004
  21742802.6644    1829603.50146   1355336.23946                  21742808.8054
        15.7504         15.5004
  24845849.8134     308875.19842    104649.60944                  24845863.3754
         4.0004          4.2504
  22375448.7274    -480010.69647   -338028.42946                  22375455.7854
        20.7504         20.2504
  24308912.1024    -247595.69245   -107005.93145                  24308921.2344
        10.7504         10.2504
  24157370.3134    2249848.43843
         6.0004
 98  6 18 19 43 45.0000000  0  8G 5G 6G30G10G13G17G26G24
  22965672.7114    2768866.94546   2036616.69246                  22965680.4614
        15.0004         15.2504
  20995766.4844    -275278.10748   -189070.53447                  20995772.1214
        30.7504         31.5004
  21273201.8984    1876443.32147   1383674.08447                  21273208.0394
        26.2504         26.0004
  21752489.3134    1880507.09146   1395001.36546                  21752495.1844
        16.5004         15.7504
  24849027.8204     325569.23443    117658.06745                  24849034.2194
         5.0004          5.0004
  22373903.5474    -488129.06947   -344354.40646                  22373910.7114
        20.2504         20.5004
  24304936.5784    -268487.34345   -123285.04845                  24304947.9734
        10.0004         11.2504
  24168492.1884    2308295.95345
         7.5004
 98  6 18 19 44  0.0000000  0  8G 5G 6G30G10G13G17G26G24
  22979169.3284    2839794.00146   2091884.46546                  22979177.7584
        14.2504         15.7504
  20995218.4694    -278157.38748   -191314.12547                  20995224.1644
        30.0004         31.2504
  21283065.0704    1928275.19747   1424062.53547                  21283071.1294
        26.2504         26.2504
  21762212.0314    1931601.18646   1434814.94546                  21762218.3484
        15.7504         15.7504
  24852238.8834     342448.20443    130810.46045                  24852244.9064
         5.0004          5.0004
  22372382.7734    -496119.30446   -350580.54346                  22372390.1134
        19.7504         20.2504
  24300976.6724    -289294.42245   -139498.28445                  24300987.0234
        10.2504         11.0004
  24179625.1414    2366801.05445
         7.5004
 98  6 18 19 44 15.0000000  0  8G 5G 6G30G10G13G17G26G24
  22992689.3914    2910842.24346   2147246.64846                  22992697.7384
        13.0004         15.5004
  20994697.0394    -280897.48248   -193449.26347                  20994703.0634
        29.2504         30.7504
  21292966.8444    1980309.12947   1464608.43347                  21292972.9264
        27.0004         25.7504
  21771972.0554    1982889.17346   1474779.58446                  21771978.6524
        15.7504         15.7504
  24855486.7974     359513.42443    144108.12144                  24855489.3284
         5.0004          4.2504
  22370888.1564    -503973.80146   -356700.89146                  22370895.4384
        19.7504         20.0004
  24297033.8594    -310012.93445   -155642.49645                  24297045.4884
         9.5004         10.7504
  24190769.9534    2425368.83444
         6.2504
 98  6 18 19 44 30.0000000  0  8G 5G 6G30G10G13G17G26G24
  23006233.7424    2982015.95146   2202706.61246                  23006241.4454
        13.0004         15.0004
  20994202.9384    -283494.55548   -195472.95147                  20994208.9384
        28.7504         30.7504
  21302907.5394    2032548.19247   1505314.17146                  21302913.4804
        27.2504         25.5004
  21781768.6804    2034373.36146   1514897.12946                  21781775.3014
        14.2504         15.0004
  24858770.2894     376767.06443    157552.49245                  24858783.6174
         5.7504          4.5004
  22369419.7664    -511690.15847   -362713.59946                  22369427.1884
        21.0004         21.0004
  24293108.6954    -330637.36345   -171713.39745                  24293119.6214
         8.7504         10.5004
  24201927.2274    2484004.83244
         6.2504
 98  6 18 19 44 45.0000000  0  8G 5G 6G30G10G13G17G26G24
  23019801.6644    3053317.14146   2258265.91446                  23019809.6254
        13.5004         15.0004
  20993735.8984    -285948.21448   -197384.90047                  20993741.8754
        28.0004         30.2504
  21312886.9694    2084990.07147   1546177.93946                  21312893.2034
        25.2504         25.5004
  21791602.6644    2086052.57946   1555166.61246                  21791609.1914
        14.2504         14.7504
  24862089.1174     394208.86043    171143.57245                  24862095.9264
         6.0004          5.7504
  22367977.8204    -519269.13847   -368619.28646                  22367985.1604
        21.7504         21.2504
  24289202.3364    -351168.15445   -187711.35345                  24289213.0744
         8.7504         10.2504
  24213099.6724    2542709.09744
         6.2504
 98  6 18 19 45  0.0000000  0  8G 5G 6G30G10G13G17G26G24
  23033392.2504    3124737.54446   2313918.08946                  23033400.8554
        13.2504         14.7504
  20993293.9774    -288270.27648   -199194.28747                  20993300.0234
        28.7504         30.7504
  21322902.3524    2137621.95247   1587189.78646                  21322908.6094
        24.7504         25.2504
  21801472.7894    2137915.77446   1595579.50146                  21801478.9654
        13.5004         13.7504
  24865440.8444     411829.27343    184873.74145                  24865444.5474
         6.0004          5.0004
  22366559.4384    -526722.64447   -374427.18846                  22366566.4264
        21.5004         21.2504
  24285310.9304    -371615.99945   -203644.66145                  24285321.4224
         9.0004          9.2504
  24224281.6484    2601474.21643        -3.45355                  24224294.7304
         6.0004          5.5004
 98  6 18 19 45 15.0000000  0  8G 5G 6G30G10G13G17G26G24
  23047008.5704    3196287.21746   2369671.00746                  23047017.8444
        13.0004         14.5004
  20992878.8524    -290450.10347   -200892.84947                  20992884.8634
        27.5004         30.0004
  21332956.0864    2190454.71647   1628358.13846                  21332962.3674
        25.2504         25.2504
  21811378.7814    2189974.43646   1636144.68046                  21811385.4494
        14.0004         14.5004
  24868830.4694     429641.36742    198753.25844                  24868839.6844
         4.7504          4.0004
  22365166.6174    -534041.69747   -380130.31446                  22365173.8524
        21.7504         21.7504
  24281438.6484    -391970.61545   -219505.31945                  24281447.6884
         9.0004          9.2504
  24235479.5394    2660315.92444     45847.18545                  24235492.8444
         6.7504          5.5004
 98  6 18 19 45 30.0000000  0  8G 5G 6G30G10G13G17G26G24
  23060645.2894    3267951.85746   2425513.51846                  23060653.3094
        13.2504         14.5004
  20992488.6724    -292502.66647   -202492.24747                  20992494.7544
        27.5004         30.0004
  21343045.0864    2243472.40347   1669670.58846                  21343051.3554
        26.2504         25.5004
  21821319.6724    2242214.66346   1676851.35846                  21821326.0474
        13.5004         14.5004
  24872255.3834     447636.59142    212775.71743                  24872266.3794
         4.5004          3.2504
  22363797.1334    -541238.57347   -385738.24446                  22363804.0274
        21.7504         22.0004
  24277580.2194    -412246.16245   -235304.40845                  24277589.9144
         8.7504          9.7504
  24246688.3444    2719223.31143     91749.06345                  24246696.5864
         6.0004          6.2504
 98  6 18 19 45 45.0000000  0  8G 5G 6G30G10G13G17G26G24
  23074303.1414    3339723.71646   2481439.57946                  23074311.3484
        13.5004         14.5004
  20992120.6094    -294436.53548   -203999.15747                  20992126.6334
        28.0004         30.0004
  21353167.7974    2296666.71647   1711120.68146                  21353173.7384
        27.0004         25.5004
  21831293.7194    2294628.33246   1717693.17046                  21831300.2704
        14.5004         14.5004
  24875713.6954     465809.28643    226936.12944                  24875713.7544
         5.5004          4.2504
  22362450.0864    -548317.48347   -391254.24046                  22362456.9804
        21.2504         21.7504
  24273734.3444    -432453.41945   -251050.25345                  24273745.4694
         8.2504          9.5004
  24257909.4384    2778189.72843    137696.85445                  24257921.7704
         5.7504          6.7504
 98  6 18 19 46  0.0000000  0  8G 5G 6G30G10G13G17G26G24
  23087981.1254    3411602.89246   2537449.25046                  23087989.5204
        12.5004         14.0004
  20991774.6564    -296254.33848   -205415.63047                  20991780.6564
        28.0004         30.2504
  21363323.5084    2350035.19847   1752706.48846                  21363329.4964
        27.0004         25.2504
  21841300.5394    2347216.15446   1758670.69246                  21841306.7504
        13.5004         14.2504
  24879204.5394     484157.29043    241233.37545                  24879208.6524
         6.0004          5.0004
  22361125.2584    -555279.35047   -396679.05546                  22361132.1524
        21.2504         21.5004
  24269900.8754    -452594.89145   -266744.80645                  24269911.6604
         8.0004          9.5004
  24269141.7034    2837215.40643    183690.82345                  24269151.1174
         5.0004          5.7504
 98  6 18 19 46 15.0000000  0  8G 5G 6G30G10G13G17G26G24
  23101682.2274    3483603.16346   2593553.28446                  23101691.0434
        12.7504         14.5004
  20991453.5474    -297941.82648   -206730.54747                  20991459.5824
        28.5004         30.0004
  21373515.3204    2403592.29548   1794439.27147                  21373521.4144
        28.2504         26.0004
  21851343.0864    2399990.77446   1799793.74346                  21851350.5554
        12.2504         14.2504
  24882733.5084     502695.61844    255678.75445                  24882740.6254
         7.0004          4.7504
  22359824.8834    -562112.49247   -402003.54346                  22359831.9064
        21.5004         21.5004
  24266084.0944    -472655.92444   -282376.72245                  24266094.2934
         7.2504          9.0004
  24280387.5944    2896312.86343    229740.77045                  24280400.5234
         5.0004          5.2504
 98  6 18 19 46 30.0000000  0  8G 5G 6G30G10G13G17G26G24
  23115404.3204    3555711.18746   2649741.29746                  23115413.0434
        13.0004         14.7504
  20991155.0394    -299510.10948   -207952.58547                  20991161.0274
        28.5004         29.7504
  21383740.7504    2457327.43648   1836310.78147                  21383746.7034
        29.0004         26.7504
  21861419.0474    2452940.15546   1841052.98146                  21861426.2114
        12.0004         14.2504
  24886295.6564     521414.80744    270265.11345                  24886300.8134
         6.7504          5.5004
  22358546.3834    -568832.16347   -407239.63146                  22358553.3244
        22.5004         22.0004
  24262279.0004    -492646.56843   -297953.76545                  24262289.7384
         5.7504          8.7504
  24291644.2274    2955468.60742    275836.13445                  24291657.1564
         4.7504          6.5004
 98  6 18 19 46 45.0000000  0  8G 5G 6G30G10G13G17G26G24
  23129145.6884    3627922.02246   2706009.41146                  23129154.1764
        13.0004         14.5004
  20990879.5394    -300958.91747   -209081.53047                  20990885.5864
        27.7504         29.7504
  21393999.5634    2511237.21348   1878318.37547                  21394005.4104
        29.7504         27.2504
  21871528.1174    2506063.14646   1882447.49246                  21871534.6214
        12.7504         13.7504
  24889890.6334     540314.75744    284992.42245                  24889894.7344
         6.2504          5.0004
  22357287.9064    -575444.84147   -412392.35846                  22357294.6334
        22.2504         21.7504
  24258487.8364    -512569.96344   -313478.43545                  24258497.8954
         6.5004          7.5004
  24302911.9224    3014675.95942    321971.62645                  24302926.3404
         3.7504          5.2504
 98  6 18 19 47  0.0000000  0  8G 5G 6G30G10G13G17G26G24
  23142907.8914    3700241.49246   2762362.17946                  23142916.0044
        13.2504         14.7504
  20990627.3444    -302283.57347   -210113.72847                  20990633.3914
        27.7504         29.5004
  21404292.1884    2565325.77248   1920465.28447                  21404298.1764
        29.5004         27.2504
  21881671.1414    2559365.19046   1923981.55446                  21881677.5274
        12.5004         13.0004
  24893524.4064     559402.55243    299866.01745                  24893532.3324
         6.0004          5.0004
  22356051.2734    -581942.51647   -417455.45846                  22356058.2384
        22.5004         22.0004
  24254710.8984    -532419.85644   -328945.78145                  24254722.3164
         6.7504          8.0004
  24314190.7664    3073940.20342    368151.47845                  24314201.9844
         4.7504          4.5004
 98  6 18 19 47 15.0000000  0  8G 5G 6G30G10G13G17G26G24
  23156687.8204    3772654.88846   2818788.12946                  23156696.5204
        14.0004         14.5004
  20990397.3134    -303493.16847   -211056.27147                  20990403.5124
        27.7504         29.2504
  21414617.4064    2619583.48948   1962743.99847                  21414623.3594
        30.0004         27.5004
  21891846.6414    2612835.27546   1965646.55146                  21891852.6644
        14.0004         13.0004
  24897190.7974     578668.20944    314878.21145                  24897197.2544
         6.7504          5.7504
  22354834.7894    -588335.29147   -422436.82746                  22354842.0124
        21.7504         21.5004
  24250945.4694    -552207.13544   -344364.37345                  24250956.4534
         7.2504          8.2504
  24325475.5164    3133249.56542    414366.69244                  24325485.9494
         3.7504          3.5004
 98  6 18 19 47 30.0000000  0  7G 5G 6G30G10G13G17G26
  23170485.7274    3845165.53646   2875289.86246                  23170493.6524
        14.0004         14.7504
  20990189.4534    -304584.34347   -211906.55647                  20990195.5354
        27.7504         29.0004
  21424974.6564    2674011.02448   2005155.01847                  21424980.6454
        30.7504         27.5004
  21902053.6644    2666474.22746   2007443.12446                  21902060.5944
        13.2504         13.5004
  24900891.2274     598112.16444    330029.27745                  24900895.4694
         6.5004          5.0004
  22353638.8914    -594618.29847   -427332.67746                  22353646.3594
        21.7504         22.0004
  24247192.2974    -571928.49544   -359731.61445                  24247201.6414
         6.7504          7.7504
 98  6 18 19 47 45.0000000  0  8G 5G 6G30G10G13G17G26G24
  23184303.8754    3917777.41246   2931870.48746                  23184312.3054
        14.2504         14.7504
  20990005.0704    -305553.11147   -212661.43947                  20990011.0234
        27.7504         28.5004
  21435364.9224    2728612.84648   2047701.87747                  21435370.9924
        31.2504         28.0004
  21912293.5394    2720286.28246   2049374.59746                  21912300.1134
        14.2504         13.7504
  24904625.2194     617738.44144    345322.66145                  24904632.4414
         6.2504          5.0004
  22352464.8444    -600787.34747   -432139.69846                  22352472.5124
        21.5004         22.2504
  24243453.4534    -591578.52544   -375043.27645                  24243464.1334
         6.7504          7.5004
  24348072.4454       7918.24351
         3.5004
 98  6 18 19 48  0.0000000  0  8G 5G 6G30G10G13G17G26G24
  23198140.2664    3990488.80246   2988528.62446                  23198148.4024
        14.5004         14.7504
  20989844.1254    -306399.26647   -213320.78247                  20989850.0434
        27.5004         28.0004
  21445788.4064    2783388.43448   2090384.12447                  21445794.4534
        31.2504         28.0004
  21922566.7664    2774271.07345   2091440.67846                  21922574.6804
        11.5004         13.0004
  24908393.4144     637541.99444    360753.92345                  24908403.1804
         6.2504          5.2504
  22351311.9694    -606846.48547   -436861.07646                  22351319.6134
        21.0004         22.5004
  24239726.5474    -611157.35643   -390299.39445                  24239737.1334
         5.5004          7.0004
  24359384.3984      67358.10841
         3.0004
 98  6 18 19 48 15.0000000  0  7G 5G 6G30G10G13G17G26
  23211996.7734    4063302.99946   3045266.89846                  23212005.0744
        15.0004         15.5004
  20989707.1484    -307118.94447   -213881.57147                  20989713.1604
        27.0004         28.0004
  21456245.9534    2838342.21048   2133205.21747                  21456251.9304
        32.0004         28.0004
  21932872.2114    2828430.76246   2133643.02446                  21932878.8444
        12.0004         13.0004
  24912196.4694     657527.80844    376327.27345                  24912204.3014
         6.5004          6.7504
  22350180.3524    -612793.26947   -441494.91346                  22350187.6094
        21.7504         22.7504
  24236015.1414    -630656.22243   -405493.18545                  24236025.7734
         5.5004          6.5004
 98  6 18 19 48 30.0000000  0  7G 5G 6G30G10G13G17G26
  23225872.0634    4136218.46246   3102084.06946                  23225880.9144
        13.7504         15.0004
  20989594.2584    -307712.35047   -214343.96047                  20989600.2344
        27.0004         27.7504
  21466737.3364    2893474.67448   2176165.54947                  21466743.2544
        31.5004         28.2504
  21943212.1954    2882764.86745   2175981.25846                  21943219.6054
        11.0004         13.2504
  24916034.1174     677697.91743    392044.26245                  24916038.3484
         5.7504          5.2504
  22349070.8524    -618623.77047   -446038.14646                  22349078.0044
        22.0004         22.7504
  24232320.8524    -650072.36343   -420622.59945                  24232334.6844
         5.0004          6.7504
 98  6 18 19 48 45.0000000  0  7G 5G 6G30G10G13G17G26
  23239764.8524    4209225.06046   3158972.25446                  23239773.8554
        14.2504         15.0004
  20989503.6884    -308188.10847   -214714.67847                  20989509.6644
        27.7504         27.7504
  21477260.8444    2948776.87748   2219258.15747                  21477266.8444
        32.0004         28.7504
  21953582.8204    2937264.59546   2218448.54246                  21953590.1604
        12.5004         13.2504
  24919907.1884     698046.81443    407900.51745                  24919913.5984
         5.0004          5.7504
  22347982.5314    -624342.38447   -450494.18046                  22347989.6254
        21.7504         22.7504
  24228640.2894    -669414.10343   -435693.98645                  24228652.6334
         5.2504          6.7504
 98  6 18 19 49  0.0000000  0  8G 5G 6G30G10G13G17G26G24
  23253673.8134    4282319.11846   3215928.59346                  23253682.5824
        14.0004         15.2504
  20989434.8674    -308550.56347   -214997.12047                  20989440.9144
        27.0004         27.2504
  21487816.3284    3004246.55848   2262481.25647                  21487822.2114
        31.2504         28.7504
  21963985.4694    2991925.48946   2261041.42946                  21963992.7974
        12.2504         13.2504
  24923813.9614     718571.90444    423894.14845                  24923821.6524
         6.5004          6.0004
  22346916.2504    -629947.38447   -454861.69146                  22346923.2504
        23.0004         22.7504
  24224973.7584    -688685.93642   -450710.94145                  24224988.0004
         4.5004          7.5004
  24404712.1254      23846.17352
         4.2504
 98  6 18 19 49 15.0000000  0  8G 5G 6G30G10G13G17G26G24
  23267599.1174    4355494.44146   3272948.24346                  23267608.0044
        13.5004         15.0004
  20989385.6334    -308808.39647   -215198.01747                  20989391.6564
        26.7504         27.0004
  21498402.4534    3059877.00548   2305829.62647                  21498408.4184
        32.0004         29.0004
  21974415.9064    3046738.92046   2303753.18346                  21974422.0234
        14.0004         13.2504
  24927751.2344     739265.45045    440018.94145                  24927758.9614
         7.7504          6.2504
  22345870.0864    -635443.90147   -459144.66846                  22345877.2034
        22.7504         23.2504
  24221317.0864    -707895.69443   -465679.44345                  24221328.4344
         5.5004          7.0004
  24416062.8284      83494.56043
         5.7504
 98  6 18 19 49 30.0000000  0  9G 5G 6G30G10G13G17G26G24G23
  23281541.1884    4428761.18846   3330039.13946                  23281549.5944
        13.5004         14.2504
  20989358.5394    -308949.62547   -215308.06947                  20989364.6214
        27.7504         26.7504
  21509021.2424    3115677.83148   2349310.76247                  21509027.1254
        32.2504         29.0004
  21984878.3984    3101716.88646   2346593.16246                  21984884.2114
        13.5004         12.7504
  24931722.1724     760136.21844    456281.88545                  24931731.3984
         6.7504          6.2504
  22344846.3134    -640824.11947   -463337.02746                  22344853.3834
        22.2504         23.2504
  24217676.1094    -727033.87144   -480592.28545                  24217686.8014
         6.2504          7.5004
  24427421.9224     143188.04744
         6.2504
  24724476.5394     -22710.96944
         6.2504
 98  6 18 19 49 45.0000000  0  9G 5G 6G30G10G13G17G26G24G23
  23295499.4924    4502112.26246   3387195.73746                  23295508.0514
        14.2504         14.7504
  20989352.7424    -308981.52347   -215332.92247                  20989358.7664
        27.7504         26.7504
  21519670.0394    3171638.13748   2392916.16547                  21519675.9574
        31.7504         29.0004
  21995369.7664    3156850.96246   2389554.77346                  21995374.9224
        14.5004         13.0004
  24935726.3134     781175.93043    472676.35945                  24935736.2194
         6.0004          6.2504
  22343842.4614    -646098.34947   -467446.80146                  22343849.6844
        22.2504         22.7504
  24214045.9844    -746107.83744   -495454.97845                  24214058.5164
         6.7504          7.5004
  24438788.6724     202919.68944
         6.5004
  24718594.2274     -53619.03844
         7.2504
 98  6 18 19 50  0.0000000  0  9G 5G 6G30G10G13G17G26G24G23
  23309470.4694    4575531.83446   3444405.72946                  23309478.8874
        14.0004         14.7504
  20989364.9844    -308917.96147   -215283.39747                  20989370.9144
        27.7504         26.5004
  21530346.5314    3227744.95848   2436635.74147                  21530352.4734
        30.0004         28.5004
  22005887.5944    3212126.70446   2432626.78746                  22005893.7464
        13.0004         12.2504
  24939759.4844     802371.74043    489192.65745                  24939765.6254
         6.0004          5.0004
  22342856.4224    -651282.04247   -471486.02146                  22342863.5164
        22.2504         23.0004
  24210426.0704    -765130.11843   -510277.47845                  24210438.3094
         6.0004          7.5004
  24450160.6724     262677.11645
         8.0004
  24712725.7424     -84463.91544
         7.2504
 98  6 18 19 50 15.0000000  0  9G 5G 6G30G10G13G17G26G24G23
  23323457.1564    4649029.06246   3501676.19346                  23323465.8444
        13.7504         14.5004
  20989396.9454    -308748.43648   -215151.30647                  20989402.8754
        28.5004         26.2504
  21541052.6174    3284005.11148   2480474.78847                  21541058.6414
        29.7504         28.2504
  22016434.7424    3267551.33346   2475814.77546                  22016440.8954
        13.0004         12.7504
  24943823.7974     823732.58044    505837.48445                  24943833.2464
         6.5004          6.2504
  22341888.6094    -656366.77747   -475448.14646                  22341895.7274
        22.2504         22.7504
  24206817.5704    -784092.07444   -525052.95445                  24206829.3404
         6.5004          7.5004
  24461538.8364     322469.65945
         8.5004
  24706868.4534    -115236.48544
         7.0004
 98  6 18 19 50 30.0000000  0  9G 5G 6G30G10G13G17G26G24G23
  23337459.0634    4722610.88546   3559012.58946                  23337467.4454
        14.5004         14.7504
  20989450.9454    -308465.19548   -214930.58847                  20989456.9574
        28.7504         25.7504
  21551789.0474    3340425.31948   2524438.56647                  21551795.2114
        30.2504         28.2504
  22027012.0634    3323133.83945   2519125.81945                  22027019.0984
        10.5004         11.5004
  24947922.6954     845267.18443    522617.67545                  24947930.7274
         5.7504          6.5004
  22340941.6484    -661343.44147   -479326.02746                  22340948.7664
        21.5004         22.2504
  24203223.2584    -802988.02745   -539776.97245                  24203236.6214
         8.2504          8.0004
  24472924.9064     382303.67445
         9.0004
  24701027.2664    -145930.52344
         6.5004
 98  6 18 19 50 45.0000000  0  9G 5G 6G30G10G13G17G26G24G23
  23351475.7504    4796268.61446   3616408.15146                  23351483.8164
        13.7504         14.2504
  20989525.2664    -308074.90448   -214626.46247                  20989531.4064
        28.7504         26.0004
  21562553.8914    3396994.60748   2568518.49847                  21562559.9144
        29.5004         28.2504
  22037617.2194    3378866.78346   2562554.08346                  22037622.4924
        12.5004         12.2504
  24952050.3914     866965.03044    539525.07545                  24952059.1724
         6.7504          5.7504
  22340012.9614    -666221.66647   -483127.21746                  22340020.3484
        21.2504         22.2504
  24199636.4304    -821828.62345   -554457.84945                  24199648.4104
         8.0004          8.0004
  24484315.7584     442168.99544      3106.60955                  24484322.4614
         7.2504          6.5004
  24695200.6724    -176554.93844    -15901.89655                  24695210.1454
         6.7504          7.5004
 98  6 18 19 51  0.0000000  0  9G 5G 6G30G10G13G17G26G24G23
  23365508.9454    4870013.07346   3673871.29146                  23365517.0234
        13.7504         14.5004
  20989622.1024    -307565.45848   -214229.48747                  20989628.0664
        29.0004         25.7504
  21573348.8674    3453722.00448   2612721.64147                  21573354.9384
        29.5004         28.2504
  22048254.0784    3434760.33045   2606107.48146                  22048260.4064
        11.5004         13.2504
  24956212.1484     888832.75944    556564.88045                  24956218.5004
         6.7504          7.2504
  22339104.6024    -670994.70447   -486846.44446                  22339111.7664
        22.2504         22.5004
  24196064.0164    -840604.88745   -569088.65745                  24196074.8714
         8.7504          8.2504
  24495715.2034     502072.97845     49784.93445                  24495724.7704
         7.5004          7.0004
  24689387.1724    -207105.37144    -39707.36045                  24689399.5164
         7.2504          8.5004
 98  6 18 19 51 15.0000000  0  9G 5G 6G30G10G13G17G26G24G23
  23379560.7274    4943854.83146   3731410.26046                  23379569.0044
        13.5004         14.2504
  20989744.0394    -306926.09648   -213731.28446                  20989750.0164
        28.7504         25.5004
  21584174.9064    3510613.65748   2657052.77747                  21584180.9304
        30.0004         28.7504
  22058922.2734    3490823.79846   2649793.28546                  22058927.6884
        14.0004         13.2504
  24960407.0944     910876.18445    573741.54445                  24960414.1414
         7.5004          6.5004
  22338217.6884    -675656.31147   -490478.82346                  22338224.9344
        22.2504         22.5004
  24192505.4844    -859305.32145   -583660.33645                  24192514.4414
         8.7504          8.2504
  24507123.9774     562022.23545     96498.65345                  24507132.8754
         8.5004          6.0004
  24683588.7664    -237575.92145    -63450.53245                  24683598.9534
         7.5004          9.0004
 98  6 18 19 51 30.0000000  0  9G 5G 6G30G10G13G17G26G24G23
  23393629.0164    5017786.39546   3789019.20446                  23393637.3874
        13.2504         13.7504
  20989889.5394    -306161.06348   -213135.14946                  20989895.4574
        30.0004         25.2504
  21595031.0234    3567662.01948   2701506.02547                  21595037.0474
        31.0004         29.0004
  22069622.1414    3547049.44446   2693605.50146                  22069628.9614
        12.2504         13.0004
  24964633.8134     933087.59345    591049.13245                  24964641.9384
         8.0004          8.0004
  22337349.6804    -680218.25647   -494033.56146                  22337356.6214
        22.0004         22.5004
  24188960.5784    -877934.89145   -598176.79145                  24188972.5124
         9.5004          9.0004
  24518538.3984     622005.86845    143239.07945                  24518545.9844
         8.5004          6.2504
  24677803.1884    -267976.05545    -87138.89845                  24677812.5314
         7.7504          8.2504
 98  6 18 19 51 45.0000000  0  9G 5G 6G30G10G13G17G26G24G23
  23407713.7974    5091802.20346   3846693.77546                  23407722.4964
        12.2504         13.7504
  20990058.1724    -305275.10148   -212444.78446                  20990064.0554
        30.2504         25.2504
  21605915.6484    3624861.42948   2746076.97547                  21605921.6374
        31.0004         29.2504
  22080350.7034    3603429.10346   2737537.66246                  22080357.4884
        13.2504         13.2504
  24968891.8914     955462.11545    608483.77145                  24968899.4534
         8.2504          8.0004
  22336500.1484    -684684.18047   -497513.47546                  22336507.0204
        22.0004         22.5004
  24185428.7584    -896495.02645   -612639.18145                  24185438.5824
         9.2504          9.0004
  24529958.1024     682018.59245    190002.23145                  24529965.0314
         7.7504          5.5004
  24672030.7734    -298311.25945   -110776.64345                  24672041.7234
         8.5004          8.5004
 98  6 18 19 52  0.0000000  0  9G 5G 6G30G10G13G17G26G24G23
  23421814.7814    5165902.64646   3904434.30346                  23421824.0554
        12.7504         13.5004
  20990250.1414    -304266.11148   -211658.55246                  20990255.8244
        31.2504         25.0004
  21616829.7814    3682216.20848   2790768.98747                  21616835.8984
        29.2504         29.0004
  22091108.7194    3659963.83745   2781590.72445                  22091114.7664
        11.7504         11.7504
  24973180.9924     978006.07843    626050.53745                  24973188.0514
         6.0004          6.2504
  22335669.6644    -689046.73247   -500912.83746                  22335676.2034
        22.5004         22.5004
  24181910.5704    -914979.23745   -627042.40045                  24181920.4884
         9.5004          8.5004
  24541384.8914     742064.94345    236791.49945                  24541394.4454
         8.2504          6.7504
  24666271.5234    -328576.07145   -134359.52245                  24666282.2274
         8.7504          8.5004
 98  6 18 19 52 15.0000000  0  9G 5G 6G30G10G13G17G26G24G23
  23435929.3834    5240074.73346   3962230.66846                  23435937.6254
        12.0004         13.2504
  20990462.8524    -303147.57348   -210786.95546                  20990468.2774
        30.7504         25.0004
  21627771.7194    3739715.64248   2835573.72147                  21627777.9064
        28.7504         28.5004
  22101893.7894    3716642.25045   2825755.70946                  22101900.1294
        11.5004         12.2504
  24977501.0474    1000705.56345    643738.45445                  24977508.2464
         7.5004          6.5004
  22334856.9064    -693317.55447   -504240.73246                  22334863.9304
        23.0004         22.7504
  24178406.1024    -933397.99245   -641394.59845                  24178416.1134
         9.7504          9.5004
  24552815.5554     802133.14745    283597.90045                  24552825.8364
         8.7504          6.2504
  24660522.7814    -358783.17045   -157897.48445                  24660533.6604
         8.2504          8.7504
 98  6 18 19 52 30.0000000  0  9G 5G 6G30G10G13G17G26G24G23
  23450058.1724    5314320.96646   4020084.79446                  23450066.9184
        12.0004         12.7504
  20990696.6094    -301919.10248   -209829.70846                  20990702.1294
        30.5004         25.0004
  21638741.0944    3797361.19548   2880492.31847                  21638747.2814
        29.0004         28.7504
  22112707.4144    3773467.64045   2870035.22346                  22112714.1414
        10.5004         12.0004
  24981851.5784    1023562.87645    661549.29545                  24981857.0044
         8.5004          7.5004
  22334062.1804    -697494.34447   -507495.35046                  22334068.9534
        23.5004         22.7504
  24174913.3914    -951748.28845   -655693.44745                  24174924.0824
        10.0004         10.0004
  24564250.7194     862226.24945    330423.65545                  24564255.2304
         7.5004          6.0004
  24654786.7114    -388928.57845   -181387.34145                  24654798.0354
         8.5004          9.2504
 98  6 18 19 52 45.0000000  0  9G 5G 6G30G10G13G17G26G24G23
  23464201.7584    5388647.73246   4078001.66846                  23464211.0434
        12.0004         12.5004
  20990952.3054    -300576.59848   -208783.59546                  20990957.9414
        30.5004         24.7504
  21649740.0004    3855160.90348   2925531.02947                  21649746.3524
        28.2504         28.5004
  22123549.9614    3830445.98845   2914433.92045                  22123557.3134
        11.7504         11.7504
  24986232.0164    1046585.81645    679489.30045                  24986238.8874
         8.0004          7.2504
  22333286.9304    -701568.41347   -510669.91646                  22333293.4224
        22.2504         22.5004
  24171436.3284    -970020.43945   -669931.41745                  24171447.1024
         9.7504         10.0004
  24575693.4384     922355.43144    377277.43245                  24575698.1724
         6.7504          5.7504
  24649063.8674    -419001.80145   -204820.92745                  24649074.3014
         9.5004          9.5004
 98  6 18 19 53  0.0000000  0  9G 5G 6G30G10G13G17G26G24G23
  23478359.2664    5463043.60845   4135972.38146                  23478368.6094
        11.7504         13.0004
  20991227.5234    -299129.85648   -207656.24946                  20991232.8674
        31.7504         24.7504
  21660766.5084    3913104.84748   2970682.12847                  21660772.8134
        28.2504         28.2504
  22134419.5944    3887563.59245   2958941.13146                  22134426.3094
        11.2504         12.2504
  24990642.3054    1069765.18445    697551.13045                  24990648.9734
         7.7504          7.5004
  22332528.8444    -705549.80247   -513772.26446                  22332535.5594
        21.7504         21.7504
  24167973.1484    -988223.24345   -684115.35045                  24167981.5204
         9.7504          9.7504
  24587140.7504     982511.63745    424152.39345                  24587147.2424
         7.5004          5.7504
  24643352.7894    -449013.03045   -228206.24645                  24643364.1844
         9.5004          9.5004
 98  6 18 19 53 15.0010000  0  9G 5G 6G30G10G13G17G26G24G23
  23492530.1384    5537511.10446   4193998.92046                  23492538.8134
        12.2504         12.5004
  20991522.1694    -297580.91748   -206449.29246                  20991527.9114
        31.7504         25.0004
  21671821.2394    3971197.41748   3015949.02647                  21671827.4274
        28.7504         28.5004
  22145315.5914    3944820.71546   3003557.05346                  22145321.5324
        13.7504         13.5004
  24995084.6694    1093102.86245    715736.28845                  24995093.0054
         8.5004          7.5004
  22331788.5214    -709440.19147   -516803.72146                  22331795.0714
        21.0004         21.5004
  24164521.2784   -1006360.63045   -698248.32845                  24164531.1964
        10.2504          9.0004
  24598593.6774    1042700.22543    471052.52745                  24598597.4384
         5.7504          5.5004
  24637653.1924    -478964.94145   -251545.30345                  24637663.4504
         9.2504          8.7504
 98  6 18 19 53 30.0010000  0  9G 5G 6G30G10G13G17G26G24G23
  23506713.3254    5612042.83646   4252075.50546                  23506721.6264
        12.5004         12.5004
  20991836.6854    -295928.77248   -205161.89446                  20991842.4744
        30.7504         25.5004
  21682903.5364    4029434.90748   3061328.87447                  21682909.7354
        29.2504         28.5004
  22156236.1534    4002210.11546   3048276.07546                  22156242.4234
        13.5004         14.0004
  24999556.5364    1116603.05545    734048.15945                  24999560.5914
         9.0004          7.2504
  22331066.0054    -713235.81947   -519761.33646                  22331072.5914
        21.5004         21.2504
  24161083.2474   -1024427.15845   -712326.04945                  24161092.6034
         9.7504         10.5004
  24610052.5914    1102916.66944    517974.39444                  24610059.8254
         6.2504          4.2504
  24631965.8494    -508848.12245   -274830.83545                  24631975.8494
         8.2504          8.7504
 98  6 18 19 53 45.0010000  0  9G 5G 6G30G10G13G17G26G24G23
  23520907.5604    5686634.09246   4310198.49046                  23520915.4034
        12.5004         12.7504
  20992168.6924    -294183.60348   -203802.01947                  20992174.4354
        31.5004         25.7504
  21694012.6144    4087814.23548   3106819.24147                  21694018.7314
        28.2504         28.5004
  22167181.0604    4059727.11846   3093094.50546                  22167187.4584
        14.2504         14.0004
  25004058.5604    1140261.76545    752483.53545                  25004063.3644
         8.2504          7.0004
  22330360.7554    -716942.45747   -522649.60046                  22330367.4354
        21.5004         21.5004
  24157656.5754   -1042433.17145   -726356.60145                  24157666.7864
         9.5004         10.0004
  24621516.7944    1163159.11744    564916.50145                  24621525.8564
         6.5004          5.7504
  24626291.1464    -538670.61345   -298069.03845                  24626301.5674
         8.7504          8.7504
 98  6 18 19 54  0.0010000  0  9G 5G 6G30G10G13G17G26G24G23
  23535111.3174    5761276.61646   4368361.41746                  23535119.4664
        12.2504         13.5004
  20992516.5914    -292355.79348   -202377.73747                  20992522.2394
        32.0004         26.0004
  21705147.3104    4146327.86348   3152414.25447                  21705153.7904
        28.0004         28.5004
  22178149.1464    4117365.79946   3138007.75446                  22178155.8964
        12.0004         13.5004
  25008588.7474    1164072.15245    771037.10245                  25008595.0054
         7.7504          7.5004
  22329671.0994    -720567.13847   -525474.00846                  22329678.4624
        21.5004         22.0004
  24154239.5054   -1060388.63545   -740347.81745                  24154250.2674
         9.5004         10.7504
  24632983.1694    1223420.59844    611873.59445                  24632990.1574
         6.2504          4.5004
  24620627.4584    -568437.15145   -321263.69645                  24620636.3684
         8.7504          8.7504
 98  6 18 19 54 15.0010000  0  9G 5G 6G30G10G13G17G26G24G23
  23549328.5834    5835985.61846   4426576.14846                  23549337.0834
        13.0004         13.0004
  20992882.9504    -290429.67748   -200876.85947                  20992888.3644
        32.5004         26.7504
  21716311.3964    4204993.29148   3198127.54247                  21716317.7124
        28.0004         28.2504
  22189143.8254    4175144.20545   3183029.86946                  22189151.5634
        11.7504         12.7504
  25013151.5134    1188049.30144    789720.52645                  25013154.8534
         6.5004          6.0004
  22328999.3254    -724097.98747   -528225.29046                  22329006.4074
        22.2504         22.2504
  24150835.4664   -1078281.95045   -754290.55845                  24150846.3454
        10.0004         10.2504
  24644456.9504    1283717.19542
         4.5004
  24614976.2314    -598130.66145   -344401.40245                  24614987.6264
         8.2504          8.2504
 98  6 18 19 54 30.0010000  0  9G 5G 6G30G10G13G17G26G24G23
  23563557.6774    5910760.32746   4484842.06846                  23563565.4504
        14.2504         13.2504
  20993267.5754    -288407.71148   -199301.29547                  20993273.3534
        32.2504         26.7504
  21727502.8174    4263806.34547   3243955.87547                  21727509.1344
        27.7504         28.7504
  22200164.4354    4233058.56545   3228157.91246                  22200172.0914
        11.2504         12.0004
  25017745.2084    1212189.33944    808530.98345                  25017753.9424
         6.2504          5.7504
  22328344.5524    -727539.78847   -530907.19346                  22328351.2204
        23.0004         22.7504
  24147440.1224   -1096119.94445   -768190.21045                  24147450.6964
         9.2504         10.5004
  24655936.3884    1344044.76242
         4.0004
  24609337.9114    -627757.04745   -367486.81245                  24609348.3804
         7.5004          9.0004
 98  6 18 19 54 45.0010000  0  9G 5G 6G30G10G13G17G26G24G23
  23577800.0674    5985605.70646   4543163.07446                  23577807.4894
        14.2504         13.0004
  20993672.3174    -286282.16148   -197645.02347                  20993678.0714
        31.7504         27.2504
  21738723.5674    4322771.31148   3289902.58247                  21738729.8374
        28.2504         29.0004
  22211212.1854    4291111.72846   3273394.14446                  22211218.7244
        13.2504         12.5004
  25022371.4114    1236499.69444    827474.16845                  25022378.1494
         7.2504          6.2504
  22327707.2634    -730887.72447   -533515.95446                  22327714.0134
        22.0004         22.2504
  24144056.4814   -1113899.89845   -782044.65145                  24144065.8494
        10.2504         10.5004
  24667424.1464    1404407.24042
         4.7504
  24603713.8414    -657312.71745   -390517.12745                  24603724.0054
         7.5004          8.2504
 98  6 18 19 55  0.0010000  0  9G 5G 6G30G10G13G17G26G24G23
  23592055.2004    6060518.04446   4601536.25646                  23592063.1614
        13.5004         13.0004
  20994097.0524    -284049.74948   -195905.46347                  20994102.9114
        32.5004         28.2504
  21749972.4354    4381884.83447   3335965.05547                  21749978.7984
        27.0004         28.2504
  22222285.2314    4349301.68046   3318736.97446                  22222292.0634
        12.7504         12.7504
  25027029.5994    1260978.57044    846548.62145                  25027038.0404
         7.2504          5.7504
  22327087.4354    -734145.63047   -536054.58346                  22327094.1964
        22.2504         22.2504
  24140684.4034   -1131624.32945   -795855.77945                  24140694.1924
         9.5004         11.0004
  24678917.2784    1464798.86243
         5.5004
  24598102.4584    -686801.26944   -413495.14345                  24598112.2004
         6.7504          8.2504
 98  6 18 19 55 15.0010000  0  9G 5G 6G30G10G13G17G26G24G23
  23606322.8414    6135491.85546   4659957.30546                  23606331.7394
        13.7504         13.2504
  20994541.7314    -281714.15548   -194085.51647                  20994547.5674
        32.2504         28.7504
  21761248.3644    4441139.55047   3382137.54147                  21761254.9274
        26.2504         27.7504
  22233383.8964    4407624.28946   3364183.16646                  22233390.4934
        14.2504         13.0004
  25031717.9664    1285616.28345    865746.78845                  25031725.0714
         7.5004          6.2504
  22326483.1224    -737322.17447   -538529.78746                  22326489.6384
        22.0004         21.7504
  24137319.9584   -1149302.16445   -809630.62545                  24137329.4424
         9.5004         10.2504
  24690410.4894    1525211.08942
         4.0004
  24592502.2004    -716229.71244   -436426.28245                  24592510.8294
         6.2504          8.5004
 98  6 18 19 55 30.0010000  0  9G 5G 6G30G10G13G17G26G24G23
  23620601.7634    6210528.29546   4718427.19746                  23620610.0874
        14.0004         13.2504
  20995005.8724    -279275.49548   -192185.25647                  20995011.7314
        31.2504         29.5004
  21772550.8334    4500534.84347   3428419.55747                  21772557.3254
        27.0004         27.7504
  22244508.7244    4466083.90946   3409736.10446                  22244515.7004
        14.0004         13.7504
  25036437.1384    1310412.18545    885068.27845                  25036444.2314
         8.2504          5.2504
  22325894.3174    -740414.35147   -540939.26246                  22325900.8804
        21.5004         22.0004
  24133965.2714   -1166929.72845   -823366.28145                  24133973.6884
         8.7504         10.7504
  24701912.1854    1585644.45842
         3.7504
  24586915.2944    -745592.26144   -459306.16045                  24586925.7514
         7.0004          8.0004
 98  6 18 19 55 45.0010000  0  9G 5G 6G30G10G13G17G26G24G23
  23634894.1304    6285635.14446   4776951.93146                  23634903.1694
        13.0004         13.5004
  20995490.8884    -276725.32148   -190198.10847                  20995496.8534
        32.5004         29.2504
  21783881.4664    4560077.08247   3474816.08847                  21783888.0524
        26.7504         28.0004
  22255660.8024    4524689.24446   3455402.58946                  22255668.0244
        13.5004         13.7504
  25041186.4354    1335370.79145    904516.55045                  25041188.1574
         8.7504          5.7504
  22325323.6534    -743413.58147   -543276.29346                  22325330.5714
        21.2504         22.0004
  24130622.1304   -1184496.89245   -837054.89745                  24130632.9624
         9.0004         10.0004
  24713417.5444    1646104.49642
         4.5004
  24581341.4274    -774878.86344   -482126.79645                  24581350.7004
         6.2504          7.2504
 98  6 18 19 56  0.0010000  0  9G 5G 6G30G10G13G17G26G24G23
  23649198.5364    6360805.15146   4835525.88146                  23649207.9274
        12.5004         13.5004
  20995996.7084    -274067.86548   -188127.36147                  20996002.6494
        32.0004         29.2504
  21795238.4894    4619758.84147   3521321.32447                  21795245.0524
        27.0004         28.2504
  22266838.8104    4583435.29245   3501178.72246                  22266846.1144
        11.7504         13.2504
  25045964.3494    1360481.24645    924083.12145                  25045967.7124
         9.7504          6.5004
  22324769.4974    -746326.14647   -545545.80446                  22324776.4854
        22.7504         22.2504
  24127289.7714   -1202010.81145   -850702.04945                  24127300.4154
         9.2504          9.7504
  24724927.2394    1706584.14342
         4.7504
  24575781.0834    -804098.81344   -504895.45745                  24575792.7124
         6.2504          8.0004
 98  6 18 19 56 15.0010000  0  9G 5G 6G30G10G13G17G26G24G23
  23663517.2164    6436047.16846   4894155.94346                  23663527.1344
        12.5004         14.0004
  20996524.9664    -271291.36048   -185963.84747                  20996531.0014
        31.2504         29.5004
  21806623.2314    4679585.93147   3567939.81747                  21806629.7944
        26.5004         27.7504
  22278046.1464    4642331.57045   3547071.90546                  22278053.9074
         9.7504         12.5004
  25050773.5284    1385750.26345    943773.30845                  25050781.6064
         9.7504          6.2504
  22324232.9744    -749144.87847   -547742.19246                  22324239.5484
        22.7504         22.5004
  24123968.5754   -1219460.95345   -864299.45145                  24123978.0484
         9.7504         10.2504
  24736441.2784    1767089.91843
         5.7504
  24570234.5054    -833247.34344   -527608.53245                  24570242.8534
         6.5004          8.0004
 98  6 18 19 56 30.0010000  0  9G 5G 6G30G10G13G17G26G24G23
  23677847.6304    6511356.62645   4952838.57246                  23677857.0674
        11.7504         13.5004
  20997075.9584    -268396.22948   -183707.89647                  20997081.9814
        31.2504         29.5004
  21818034.1854    4739550.85747   3614665.70547                  21818040.5364
        26.5004         27.7504
  22289281.1924    4701371.56246   3593077.05745                  22289288.2394
        12.2504         11.5004
  25055611.1854    1411172.65145    963582.98545                  25055618.4894
        10.0004          6.5004
  22323713.9974    -751873.02047   -549868.00146                  22323720.8174
        22.0004         22.5004
  24120659.9664   -1236847.30945   -877847.20345                  24120668.1734
         9.7504         10.5004
  24747959.5834    1827619.71142
         4.7504
  24564699.2314    -862333.24144   -550272.75845                  24564710.1104
         7.2504          8.2504
 98  6 18 19 56 45.0010000  0  9G 5G 6G30G10G13G17G26G24G23
  23692191.6694    6586734.88845   5011574.80546                  23692200.8134
        11.7504         13.7504
  20997649.7714    -265379.95948   -181357.55247                  20997655.7824
        30.5004         29.7504
  21829471.2394    4799654.26447   3661499.51047                  21829477.5444
        27.0004         27.5004
  22300544.6464    4760556.55845   3639195.21545                  22300551.6924
        11.2504         11.5004
  25060477.8494    1436749.11645    983512.60045                  25060484.3174
        10.0004          6.7504
  22323212.5674    -754506.48447   -551920.02846                  22323219.3294
        21.5004         22.7504
  24117364.4354   -1254165.28145   -891341.64045                  24117375.0094
         8.7504         10.5004
  24759482.1384    1888173.19143
         5.0004
  24559176.9114    -891354.03545   -572886.32145                  24559187.7084
         7.5004          8.7504
 98  6 18 19 57  0.0010000  0  9G 5G 6G30G10G13G17G26G24G23
  23706546.2084    6662169.19945   5070354.70546                  23706555.5874
        11.7504         13.5004
  20998244.8174    -262252.77348   -178920.77947                  20998250.8534
        30.2504         29.7504
  21840933.0364    4859885.74247   3708433.11447                  21840939.2714
        26.5004         27.0004
  22311833.2864    4819877.39646   3685419.24446                  22311838.7944
        13.5004         12.2504
  25065372.3804    1462467.74245   1003553.14545                  25065379.3214
         9.5004          5.7504
  22322727.3804    -757055.73847   -553906.43046                  22322734.2244
        21.5004         22.7504
  24114080.3804   -1271424.27745   -904790.13245                  24114089.8994
         9.2504         10.0004
  24771008.1534    1948740.22843
         5.2504
  24553665.0214    -920316.41744   -595454.31745                  24553675.0794
         7.2504          8.2504
 98  6 18 19 57 15.0010000  0  9G 5G 6G30G10G13G17G26G24G23
  23720913.5604    6737668.68345   5129185.41246                  23720922.9854
        11.7504         13.7504
  20998861.6464    -259011.91448   -176395.42947                  20998867.6104
        29.5004         29.7504
  21852420.7004    4920252.91447   3755472.44547                  21852426.9234
        27.0004         27.0004
  22323148.6774    4879341.47746   3731754.90445                  22323154.5604
        13.0004         11.5004
  25070293.9504    1488331.34945   1023706.55745                  25070299.1884
         9.2504          6.2504
  22322260.4114    -759510.47447   -555819.18346                  22322267.2434
        22.2504         22.5004
  24110808.8564   -1288616.50145   -918186.59445                  24110818.8104
         8.7504         10.7504
  24782538.1534    2009326.91443
         5.7504
  24548166.4114    -949212.29244   -617970.49945                  24548177.9814
         7.2504          8.0004
 98  6 18 19 57 30.0010000  0  9G 5G 6G30G10G13G17G26G24G23
  23735291.9814    6813228.19246   5188062.86046                  23735301.4074
        12.7504         13.7504
  20999498.1534    -255666.25048   -173788.42047                  20999504.1184
        29.2504         30.0004
  21863933.1534    4980751.90247   3802614.48847                  21863939.4464
        26.7504         26.2504
  22334490.2554    4938939.96346   3778195.27345                  22334496.4314
        13.0004         11.5004
  25075241.9584    1514335.21545   1043969.34345                  25075250.3064
         8.2504          6.5004
  22321810.3884    -761874.42647   -557661.20846                  22321817.1264
        23.2504         22.7504
  24107549.2084   -1305746.11945   -931534.26045                  24107559.4314
         9.7504         10.5004
  24794070.3494    2069930.92943
         5.2504
  24542679.3024    -978047.11344   -640439.09245                  24542691.4814
         7.2504          8.7504
 98  6 18 19 57 45.0010000  0  8G 5G 6G30G10G13G17G26G23
  23749681.8494    6888845.57246   5246985.39746                  23749691.2634
        12.2504         13.2504
  21000154.9114    -252215.30748   -171099.36847                  21000160.8644
        29.5004         29.7504
  21875471.1774    5041384.34247   3849860.53247                  21875477.2244
        26.0004         26.2504
  22345855.4664    4998668.31646   3824736.85045                  22345861.8884
        12.5004         11.7504
  25080217.8174    1540483.38745   1064344.56745                  25080228.5564
         8.5004          6.0004
  22321378.0524    -764146.98147   -559432.01246                  22321384.7084
        23.0004         22.7504
  24104301.9584   -1322811.38545   -944831.78145                  24104310.8564
         9.0004         10.5004
  24537203.5364   -1006821.89045   -662860.86845                  24537214.5444
         7.7504          8.7504
 98  6 18 19 58  0.0010000  0  9G 5G 6G30G10G13G17G26G24G23
  23764080.3024    6964511.43346   5305945.72546                  23764090.5954
        12.0004         13.2504
  21000829.3964    -248670.02448   -168336.80547                  21000835.3724
        28.7504         29.7504
  21887032.6774    5102140.25647   3897202.78047                  21887039.2284
        25.5004         26.0004
  22357243.8964    5058515.20146   3871370.76245                  22357250.2824
        12.2504         11.0004
  25085220.2314    1566767.66245   1084825.76345                  25085227.9354
         9.0004          6.0004
  22320960.8724    -766340.55347   -561141.27246                  22320967.2124
        23.2504         23.0004
  24101064.1614   -1339824.29545   -958088.53045                  24101072.8024
         9.7504         10.5004
  24817141.9584      44456.49153
         5.7504
  24531737.3254   -1035551.96545   -685247.86545                  24531747.7594
         8.0004          9.5004
 98  6 18 19 58 15.0010000  0  9G 5G 6G30G10G13G17G26G24G23
  23778490.4424    7040239.86845   5364954.84046                  23778499.7744
        11.5004         12.7504
  21001524.5284    -245017.43248   -165490.62247                  21001530.5054
        28.5004         29.7504
  21898620.0054    5163032.42547   3944651.20247                  21898626.2284
        25.5004         26.0004
  22368657.3804    5118493.42245   3918107.03845                  22368664.6494
        11.2504         11.2504
  25090251.1384    1593204.76045   1105426.07245                  25090259.9314
         9.5004          5.7504
  22320561.1534    -768440.23047   -562777.35746                  22320567.7394
        23.7504         23.0004
  24097839.1224   -1356771.90345   -971294.34745                  24097850.8334
        10.0004         10.5004
  24828683.1304     105102.58943
         5.7504
  24526281.0994   -1064222.81545   -707588.68545                  24526291.3684
         8.7504          9.5004
 98  6 18 19 58 30.0010000  0  9G 5G 6G30G10G13G17G26G24G23
  23792913.2084    7116027.48445   5424010.03246                  23792923.5244
        11.7504         12.7504
  21002239.4664    -241260.24548   -162562.94847                  21002245.3374
        28.0004         29.7504
  21910232.9814    5224059.30647   3992204.57847                  21910239.4624
        24.5004         26.0004
  22380094.6854    5178597.21845   3964941.15645                  22380101.6614
        11.0004         11.2504
  25095310.2474    1619795.27445   1126146.01045                  25095316.0364
         8.0004          6.2504
  22320179.1224    -770447.94547   -564341.80046                  22320185.7674
        22.7504         23.0004
  24094626.3494   -1373654.40345   -984449.49045                  24094636.2554
        10.0004         10.2504
  24840227.7004     165766.58943
         6.0004
  24520836.0914   -1092831.10345   -729880.78545                  24520846.5244
         7.5004          9.2504
 98  6 18 19 58 45.0010000  0  9G 5G 6G30G10G13G17G26G24G23
  23807344.2164    7191866.27645   5483105.11546                  23807353.6654
        11.0004         12.5004
  21002972.5444    -237409.17447   -159562.11747                  21002978.5094
        27.7504         30.0004
  21921870.7554    5285216.26347   4039859.32347                  21921877.0014
        25.5004         26.0004
  22391554.9814    5238819.94545   4011867.93845                  22391561.8024
        10.2504         11.0004
  25100398.3334    1646533.12444   1146980.78145                  25100404.8254
         7.2504          6.7504
  22319813.3724    -772370.24347   -565839.68146                  22319819.9114
        22.7504         22.7504
  24091424.7474   -1390480.03745   -997560.30145                  24091434.1734
        10.2504         10.5004
  24851772.6614     226441.03143
         6.0004
  24515404.1304   -1121379.45845   -752126.17245                  24515414.4464
         8.0004          9.0004
 98  6 18 19 59  0.0010000  0  9G 5G 6G30G10G13G17G26G24G23
  23821786.0834    7267756.40445   5542240.17646                  23821796.4814
        10.7504         12.0004
  21003722.8804    -233465.72747   -156489.30347                  21003728.6464
        27.5004         30.0004
  21933533.3104    5346502.35347   4087614.68847                  21933539.8134
        26.5004         26.7504
  22403037.6534    5299162.04345   4058887.69145                  22403045.4384
        11.2504         11.2504
  25105515.1774    1673420.67245   1167932.00645                  25105523.3604
         8.2504          5.2504
  22319463.5604    -774208.14147   -567271.78746                  22319470.2394
        23.0004         23.2504
  24088232.5604   -1407251.93645  -1010629.20145                  24088242.7004
        10.5004         10.5004
  24863321.5914     287125.17143
         5.7504
  24509983.3494   -1149863.59845   -774321.50945                  24509993.3964
         8.5004         10.0004
 98  6 18 19 59 15.0010000  0  9G 5G 6G30G10G13G17G26G24G23
  23836236.9114    7343695.55245   5601413.46146                  23836246.0094
        11.7504         12.2504
  21004489.9194    -229433.08147   -153346.98147                  21004495.7314
        26.5004         30.0004
  21945220.0834    5407916.32747   4135469.70447                  21945226.3534
        27.2504         26.7504
  22414543.0994    5359622.12745   4105999.45245                  22414549.9424
        11.7504         11.5004
  25110659.9274    1700458.04245   1189000.15945                  25110666.4314
         7.7504          5.0004
  22319128.7784    -775965.23247   -568640.93146                  22319135.6224
        23.2504         23.2504
  24085051.5914   -1423970.75145  -1023656.78945                  24085060.8884
        10.7504         10.2504
  24874870.6534     347819.03944     31526.66955                  24874877.5134
         6.7504          6.5004
  24504574.8964   -1178287.34645   -796469.80145                  24504584.6494
         9.5004         10.5004
 98  6 18 19 59 30.0010000  0  9G 5G 6G30G10G13G17G26G24G23
  23850697.7314    7419687.29445   5660627.73046                  23850706.3374
        10.5004         12.2504
  21005275.2164    -225306.88947   -150131.76347                  21005281.2744
        26.0004         29.7504
  21956931.8494    5469461.24247   4183426.75547                  21956938.0364
        27.0004         26.7504
  22426070.7244    5420200.90846   4153203.68845                  22426076.8994
        13.2504         11.2504
  25115835.0754    1727651.54945   1210189.95945                  25115843.7984
         7.7504          6.0004
  22318810.6144    -777639.54447   -569945.56346                  22318817.2594
        24.2504         23.0004
  24081881.3494   -1440630.98545  -1036638.71345                  24081890.4934
        11.2504         10.7504
  24886423.5054     408527.90744     78832.16945                  24886433.0364
         6.2504          5.5004
  24499178.3564   -1206647.19145   -818568.31745                  24499188.2984
         9.2504         10.0004
 98  6 18 19 59 45.0010000  0  9G 5G 6G30G10G13G17G26G24G23
  23865169.8564    7495735.16945   5719885.72146                  23865179.0134
        11.5004         12.0004
  21006080.6224    -221075.28547   -146834.41147                  21006086.6464
        25.2504         29.5004
  21968669.3104    5531143.29347   4231490.66447                  21968675.6384
        27.0004         26.2504
  22437622.7394    5480906.86646   4200507.01145                  22437628.9624
        13.5004         11.0004
  25121040.8964    1755013.39244   1231510.83045                  25121048.1774
         6.7504          5.2504
  22318508.7864    -779226.08147   -571181.81446                  22318515.1854
        24.2504         24.0004
  24078722.7714   -1457222.85945  -1049567.36845                  24078731.9034
        10.7504         11.0004
  24897980.7944     469260.64744    126156.40045                  24897991.6034
         6.5004          6.2504
  24493794.6384   -1234935.53445   -840611.08145                  24493804.5094
         8.2504         10.2504
 98  6 18 20  0  0.0010000  0  8G 5G 6G30G10G13G17G26G23
  23879650.7244    7571833.52446   5779183.08246                  23879659.0834
        12.5004         12.0004
  21006904.7554    -216744.42747   -143459.71747                  21006910.8134
        24.5004         29.2504
  21980431.8414    5592953.51247   4279654.44647                  21980437.9584
        27.0004         26.5004
  22449198.0754    5541736.81246   4247906.99145                  22449203.3494
        12.7504         10.0004
  25126278.9744    1782536.51944   1252957.48145                  25126281.1184
         7.2504          5.2504
  22318222.2314    -780731.91847   -572355.17746                  22318228.9814
        24.2504         24.2504
  24075578.0674   -1473753.15145  -1062448.05145                  24075587.2354
        11.5004         10.7504
  24488423.8104   -1263159.73245   -862603.86945                  24488434.5714
         9.0004          9.5004
 98  6 18 20  0 15.0010000  0  8G 5G 6G30G10G13G17G26G23
  23894140.9504    7647981.33946   5838518.96146                  23894150.0834
        12.0004         12.0004
  21007747.1384    -212317.48047   -140010.15147                  21007753.1264
        24.2504         29.0004
  21992216.9114    5654886.11047   4327913.57747                  21992223.2284
        27.2504         26.5004
  22460797.1304    5602689.38946   4295402.48345                  22460802.2864
        12.2504         10.0004
  25131546.2784    1810216.48444   1274526.26345                  25131550.5324
         7.2504          6.0004
  22317950.0754    -782160.98747   -573468.71846                  22317957.0874
        22.7504         23.7504
  24072443.5994   -1490223.48045  -1075282.01145                  24072452.9194
        11.2504         11.0004
  24483065.4584   -1291320.34845   -884547.13345                  24483074.5444
         9.0004         10.0004
 98  6 18 20  0 30.0010000  0  8G 5G 6G30G10G13G17G26G23
  23908640.1614    7724176.84045   5897891.98445                  23908649.0134
        11.5004         11.7504
  21008607.9354    -207793.21547   -136484.75847                  21008613.7714
        23.7504         29.0004
  22004025.9114    5716941.71148   4376268.56647                  22004032.0754
        28.0004         26.5004
  22472419.2004    5663764.57546   4342993.53545                  22472425.0714
        12.2504         10.0004
  25136841.9274    1838051.61545   1296216.00545                  25136849.8064
         7.5004          5.7504
  22317691.9814    -783515.80547   -574524.40946                  22317698.9814
        22.7504         23.5004
  24069321.4584   -1506631.02545  -1088067.03445                  24069330.0284
        11.2504         10.0004
  24477718.9894   -1319415.67745   -906439.48545                  24477727.3844
         9.5004          9.7504
 98  6 18 20  0 45.0010000  0  8G 5G 6G30G10G13G17G26G23
  23923146.4194    7800406.97645   5957292.02345                  23923155.2714
        11.7504         11.7504
  21009485.3494    -203183.89247   -132893.07547                  21009491.2904
        23.7504         29.0004
  22015855.8964    5779108.48248   4424710.17847                  22015861.8494
        28.7504         26.0004
  22484063.3104    5724953.21846   4390672.93745                  22484070.0954
        13.5004         11.5004
  25142166.7004    1866029.35445   1318016.87145                  25142170.2514
         7.5004          5.7504
  22317445.4584    -784810.75447   -575533.43946                  22317452.5754
        21.0004         22.5004
  24066208.7944   -1522985.37945  -1100810.63645                  24066218.1614
         9.7504          9.7504
  24472381.6224   -1347459.09045   -928291.40045                  24472391.8454
         7.5004          9.2504
 98  6 18 20  1  0.0010000  0  8G 5G 6G30G10G13G17G26G23
  23937660.3414    7876677.67945   6016723.67445                  23937669.0404
        11.2504         10.7504
  21010379.3644    -198483.58847   -129230.50047                  21010385.2244
        22.7504         28.5004
  22027707.9504    5841390.40448   4473241.50547                  22027713.9974
        28.7504         26.5004
  22495729.4274    5786261.15046   4438445.38945                  22495736.8374
        13.7504         11.5004
  25147518.0444    1894152.36144   1339930.82345                  25147522.3684
         6.2504          5.0004
  22317211.3414    -786040.50747   -576491.65546                  22317218.4814
        21.0004         23.0004
  24063107.8174   -1539281.73645  -1113509.01245                  24063117.0444
        11.0004          9.7504
  24467055.6304   -1375448.53845   -950101.25945                  24467066.2394
         7.5004          9.2504
 98  6 18 20  1 15.0010000  0  8G 5G 6G30G10G13G17G26G23
  23952182.6694    7952992.61645   6076189.76345                  23952192.7044
        11.0004         11.0004
  21011292.6534    -193686.03747   -125492.15347                  21011298.5954
        23.2504         28.5004
  22039582.3564    5903790.72948   4521865.11247                  22039588.4384
        28.5004         26.7504
  22507419.2394    5847688.65446   4486310.92245                  22507426.6614
        13.5004         11.7504
  25152898.4664    1922422.90044   1361959.86145                  25152909.2044
         7.2504          6.2504
  22316990.5284    -787201.56947   -577396.37846                  22316997.7284
        21.5004         23.0004
  24060018.7714   -1555514.89345  -1126158.16045                  24060026.2394
        11.2504         10.5004
  24461739.7314   -1403383.30445   -971868.53245                  24461750.5754
         8.0004         10.0004
 98  6 18 20  1 30.0010000  0  8G 5G 6G30G10G13G17G26G23
  23966713.4424    8029351.74745   6135690.31145                  23966722.8564
        11.7504         11.0004
  21012224.3644    -188789.19947   -121676.43147                  21012230.3414
        22.7504         28.2504
  22051479.6384    5966311.02948   4570582.20047                  22051485.6034
        29.0004         26.7504
  22519130.6144    5909232.97246   4534267.53546                  22519137.5214
        14.5004         12.0004
  25158305.5284    1950840.24944   1384103.28545                  25158310.6614
         6.7504          5.0004
  22316782.9034    -788292.57147   -578246.48746                  22316790.0214
        21.5004         23.0004
  24056941.6384   -1571681.27445  -1138755.27245                  24056951.5564
        11.0004         11.0004
  24456434.0134   -1431264.86445   -993594.34645                  24456445.1964
         8.0004          9.5004
 98  6 18 20  1 45.0010000  0  8G 5G 6G30G10G13G17G26G23
  23981253.2714    8105758.02245   6195227.60645                  23981262.5794
        11.5004         11.0004
  21013175.6694    -183787.77347   -117779.22447                  21013181.6224
        21.7504         28.0004
  22063399.4584    6028950.92347   4619392.47647                  22063405.7284
        27.0004         26.5004
  22530865.2314    5970897.05546   4582317.40845                  22530872.1964
        13.5004         11.2504
  25163742.0994    1979407.29844   1406363.16444                  25163746.4934
         6.5004          4.2504
  22316589.5134    -789309.49547   -579038.89146                  22316596.3104
        22.7504         23.2504
  24053879.2864   -1587778.41145  -1151298.43145                  24053889.0634
        10.7504         11.0004
  24451138.8254   -1459090.24445  -1015276.34845                  24451151.3214
         7.5004          9.2504
 98  6 18 20  2  0.0010000  0  8G 5G 6G30G10G13G17G26G23
  23995803.8104    8182219.51545   6254807.91345                  23995813.2474
        11.2504         11.0004
  21014148.7244    -178676.17747   -113796.16147                  21014154.7354
        22.7504         28.0004
  22075342.9194    6091715.11748   4668299.60847                  22075349.2944
        28.0004         26.5004
  22542623.3494    6032688.11746   4630466.27545                  22542629.6064
        14.2504         11.2504
  25169206.2864    2008126.52043   1428741.77145                  25169214.1184
         5.5004          5.0004
  22316411.8414    -790244.21247   -579767.23646                  22316418.5794
        22.5004         23.0004
  24050829.5364   -1603801.47045  -1163783.84745                  24050839.6064
        10.7504         10.5004
  24445855.3024   -1486853.63845  -1036910.05645                  24445866.1814
         7.5004          9.2504
 98  6 18 20  2 15.0010000  0  8G 5G 6G30G10G13G17G26G23
  24010361.7944    8258722.54645   6314420.57445                  24010371.1734
        11.7504         11.5004
  21015139.4034    -173469.67247   -109739.14447                  21015145.4154
        22.0004         28.0004
  22087307.5214    6154588.19548   4717291.58347                  22087313.7674
        28.2504         26.0004
  22554403.1064    6094591.01246   4678702.29245                  22554410.2244
        12.7504         11.2504
  25174698.3644    2036980.18644   1451225.19645                  25174705.1734
         6.5004          4.7504
  22316247.1064    -791110.36047   -580442.15046                  22316253.6924
        22.7504         23.2504
  24047792.1224   -1619767.05945  -1176224.50145                  24047801.4194
        10.2504         10.5004
  24440581.2004   -1514568.23345  -1058505.80245                  24440592.1144
         7.7504          8.7504
 98  6 18 20  2 30.0010000  0  8G 5G 6G30G10G13G17G26G23
  24024927.7394    8335266.87045   6374065.40745                  24024937.9624
        11.5004         11.2504
  21016148.7244    -168165.38847   -105605.94147                  21016154.8174
        22.2504         28.0004
  22099293.4274    6217573.72848   4766371.18947                  22099299.5564
        28.7504         26.2504
  22566204.4034    6156606.64446   4727026.12945                  22566210.2164
        13.2504         10.5004
  25180214.6854    2065969.65944   1473814.38445                  25180218.6924
         6.5004          5.7504
  22316095.8564    -791903.56947   -581060.22846                  22316102.6184
        22.2504         23.0004
  24044764.6224   -1635673.77145  -1188619.25645                  24044772.7714
        10.7504         10.7504
  24435317.4814   -1542231.06044  -1080061.17845                  24435326.8024
         7.0004          9.2504
 98  6 18 20  2 45.0010000  0  8G 5G 6G30G10G13G17G26G23
  24039501.6774    8411856.27045   6433745.40545                  24039512.0524
        11.0004         11.5004
  21017178.2164    -162755.47947   -101390.43347                  21017184.3214
        21.5004         27.5004
  22111301.6854    6280678.10348   4815543.40747                  22111307.7784
        29.2504         26.0004
  22578027.6924    6218739.56545   4775441.37045                  22578033.8104
        11.7504         10.2504
  25185758.8024    2095103.40444   1496516.03145                  25185764.9784
         6.5004          6.2504
  22315960.2084    -792616.02347   -581615.37746                  22315967.2674
        21.5004         23.0004
  24041749.4894   -1651517.13545  -1200964.67045                  24041758.8924
        10.0004         11.0004
  24430064.1144   -1569836.83044  -1101572.10245                  24430075.0404
         6.7504          9.2504
 98  6 18 20  3  0.0010000  0  8G 5G 6G30G10G13G17G26G23
  24054083.0134    8488479.28345   6493451.57745                  24054092.6614
        11.0004         11.0004
  21018225.8334    -157250.55247    -97100.87847                  21018231.8334
        22.5004         28.0004
  22123330.7084    6343890.45948   4864799.75547                  22123336.6144
        28.0004         25.7504
  22589871.4894    6280975.56946   4823936.92445                  22589878.1464
        14.2504         11.2504
  25191328.1924    2124372.45944   1519323.04845                  25191335.4154
         6.5004          6.5004
  22315838.5284    -793255.93147   -582113.98746                  22315845.5524
        22.7504         23.0004
  24038744.2554   -1667309.82145  -1213270.57745                  24038753.7634
         9.5004         10.2504
  24424819.3254   -1597397.53444  -1123047.84745                  24424830.9314
         7.2504         10.0004
 98  6 18 20  3 15.0010000  0  8G 5G 6G30G10G13G17G26G23
  24068671.4194    8565140.74745   6553187.69246                  24068681.6064
        11.7504         12.0004
  21019292.4744    -151644.56547    -92732.58847                  21019298.4384
        22.7504         28.0004
  22135380.7714    6407215.33048   4914143.77546                  22135386.8534
        28.0004         25.2504
  22601733.9894    6343315.28346   4872513.32645                  22601740.6814
        13.7504         11.2504
  25196925.2314    2153781.36944   1542239.12345                  25196929.7434
         7.0004          6.7504
  22315731.4354    -793818.89147   -582552.64346                  22315738.0324
        22.2504         23.0004
  24035749.4354   -1683049.07445  -1225534.86345                  24035758.5444
        10.7504         10.5004
  24419584.5524   -1624909.41545  -1144485.59045                  24419594.2594
         8.5004         10.0004
 98  6 18 20  3 30.0010000  0  8G 5G 6G30G10G13G17G26G23
  24083266.6224    8641836.25545   6612950.34845                  24083276.6814
        11.7504         11.7504
  21020377.3564    -145943.29647    -88290.04447                  21020383.4504
        23.0004         28.2504
  22147452.0994    6470649.36147   4963572.87046                  22147458.1344
        27.0004         25.2504
  22613616.3964    6405755.74146   4921168.21946                  22613622.5954
        14.7504         12.0004
  25202547.5524    2183328.09545   1565262.54645                  25202554.9624
         7.5004          6.7504
  22315637.7314    -794310.56147   -582935.74946                  22315644.7784
        21.0004         23.0004
  24032763.4034   -1698740.71045  -1237762.05145                  24032772.5714
        10.0004         11.0004
  24414357.7784   -1652373.87045  -1165886.39845                  24414368.4814
         7.5004          8.7504
 98  6 18 20  3 45.0010000  0  8G 5G 6G30G10G13G17G26G23
  24097869.4744    8718579.84045   6672750.49445                  24097878.6884
        11.0004         11.7504
  21021483.4504    -140131.35847    -83761.25947                  21021489.4624
        23.5004         28.2504
  22159546.6144    6534207.72547   5013098.84546                  22159552.7314
        26.7504         24.5004
  22625520.5134    6468316.13646   4969916.55746                  22625527.7944
        14.0004         12.7504
  25208197.5674    2213029.38844   1588406.44045                  25208204.0244
         6.7504          6.5004
  22315561.0994    -794713.82947   -583249.96646                  22315568.3334
        22.0004         23.2504
  24029789.1464   -1714369.82645  -1249940.46945                  24029797.5994
         9.5004         11.0004
  24409143.5834   -1679770.56245  -1187234.35645                  24409155.3174
         8.0004          9.0004
 98  6 18 20  4  0.0010000  0  8G 5G 6G30G10G13G17G26G23
  24112480.6694    8795359.48645   6732578.70145                  24112489.7084
        11.5004         11.5004
  21022608.3414    -134221.08847    -79155.85647                  21022614.2714
        24.2504         28.5004
  22171663.1614    6597880.25447   5062713.76846                  22171669.3254
        26.7504         24.5004
  22637446.9894    6530987.55546   5018751.39746                  22637453.7514
        13.0004         12.0004
  25213877.6384    2242872.90245   1611661.08045                  25213885.5054
         7.5004          6.7504
  22315498.7164    -795041.29147   -583505.11446                  22315505.8564
        22.0004         23.0004
  24026824.3024   -1729947.78845  -1262079.10945                  24026833.5404
         9.0004         10.7504
  24403942.2714   -1707107.55245  -1208535.83545                  24403952.1064
         9.0004          9.5004
 98  6 18 20  4 15.0010000  0  8G 5G 6G30G10G13G17G26G23
  24127097.2634    8872170.48145   6792431.33446                  24127106.6184
        11.2504         12.0004
  21023751.0604    -128217.19747    -74477.49947                  21023757.0834
        25.5004         28.7504
  22183801.6614    6661667.31847   5112417.94946                  22183807.6614
        26.5004         24.0004
  22649392.8024    6593765.07146   5067668.93746                  22649399.3534
        14.2504         12.2504
  25219584.2394    2272854.72245   1635023.49145                  25219591.8024
         7.5004          7.0004
  22315449.5914    -795297.69847   -583704.89146                  22315456.8134
        21.5004         23.7504
  24023869.4974   -1745475.70045  -1274178.68545                  24023878.6184
         9.2504         10.7504
  24398751.8494   -1734387.26645  -1229792.67945                  24398761.3564
        10.0004         10.0004
 98  6 18 20  4 30.0010000  0  8G 5G 6G30G10G13G17G26G23
  24141721.4894    8949019.57445   6852313.65245                  24141731.0674
        10.7504         11.5004
  21024913.3494    -122109.87247    -69718.55147                  21024919.1614
        26.7504         29.0004
  22195963.8884    6725580.28147   5162220.22346                  22195969.9704
        27.0004         24.2504
  22661360.7554    6656658.12646   5116676.47346                  22661368.7864
        12.7504         12.0004
  25225317.4894    2302987.94844   1658503.94545                  25225325.2514
         7.2504          5.7504
  22315416.0674    -795475.48247   -583843.42146                  22315423.1034
        23.0004         23.7504
  24020926.5524   -1760941.03945  -1286229.52645                  24020935.7434
         9.0004         11.0004
  24393572.4744   -1761600.20445  -1250997.50045                  24393581.9114
         9.5004         10.0004
 98  6 18 20  4 45.0010000  0  8G 5G 6G30G10G13G17G26G23
  24156352.7244    9025909.93345   6912228.12846                  24156362.1144
        11.0004         12.0004
  21026095.2784    -115898.25248    -64878.31847                  21026100.9624
        28.0004         29.7504
  22208150.4664    6789621.29647   5212122.29146                  22208156.3374
        27.0004         24.5004
  22673350.4034    6719665.51846   5165773.09545                  22673357.5794
        13.0004         11.5004
  25231080.8644    2333277.17044   1682105.95345                  25231085.4704
         6.2504          5.7504
  22315396.9194    -795575.50847   -583921.35246                  22315403.5174
        23.2504         24.0004
  24017995.6774   -1776341.89345  -1298230.08845                  24018004.1424
         9.5004         10.7504
  24388406.5134   -1788745.88545  -1272149.90045                  24388416.4784
         9.2504          9.5004
 98  6 18 20  5  0.0010000  0  8G 5G 6G30G10G13G17G26G23
  24170990.0604    9102828.80345   6972164.86145                  24170999.2164
        10.7504         11.7504
  21027294.5604    -109594.70547    -59966.46147                  21027300.5364
        27.2504         29.5004
  22220358.8724    6853776.26347   5262113.14546                  22220365.0014
        27.2504         24.7504
  22685359.5674    6782772.44146   5214947.35245                  22685367.2594
        12.5004         10.7504
  25236871.7004    2363708.54043   1705818.72845                  25236878.1224
         5.7504          4.7504
  22315389.7474    -795613.93147   -583951.27746                  22315396.3684
        23.5004         24.0004
  24015075.2714   -1791690.28345  -1310189.79745                  24015084.0874
         9.2504         11.2504
  24383251.7394   -1815837.56645  -1293260.26645                  24383259.8534
        10.5004         10.0004
 98  6 18 20  5 15.0010000  0  8G 5G 6G30G10G13G17G26G23
  24185634.4894    9179783.88445   7032129.74945                  24185643.8334
        11.0004         11.5004
  21028512.6854    -103194.10148    -54978.97447                  21028518.6264
        28.5004         29.7504
  22232589.3414    6918049.80747   5312196.39746                  22232595.5524
        27.0004         24.7504
  22697389.0674    6845986.85146   5264205.27045                  22697396.0324
        14.2504         11.2504
  25242690.7784    2394284.38344   1729643.94845                  25242697.9894
         6.7504          6.2504
  22315395.5604    -795584.38447   -583928.24346                  22315402.1924
        23.7504         24.0004
  24012165.1774   -1806978.88445  -1322102.89245                  24012174.7784
         9.7504         11.7504
  24378108.0524   -1842867.76045  -1314322.67245                  24378116.0364
        10.7504         10.2504
 98  6 18 20  5 30.0010000  0  8G 5G 6G30G10G13G17G26G23
  24200285.5754    9256775.90445   7092123.46745                  24200295.0364
        10.7504         11.5004
  21029749.3724     -96695.09448    -49914.81647                  21029755.1034
        28.7504         29.5004
  22244842.7164    6982439.84247   5362370.42846                  22244848.7394
        27.0004         24.5004
  22709439.6304    6909311.39646   5313549.08745                  22709445.7714
        14.7504         11.2504
  25248536.0054    2425004.30743   1753581.58945                  25248543.6734
         6.0004          6.5004
  22315413.9894    -795485.48047   -583851.16346                  22315420.5284
        23.7504         24.7504
  24009268.2864   -1822205.01045  -1333967.32145                  24009277.9114
        10.0004         11.5004
  24372977.3024   -1869830.12045  -1335332.26945                  24372986.5054
        10.7504         10.2504
 98  6 18 20  5 45.0010000  0  8G 5G 6G30G10G13G17G26G23
  24214943.4034    9333803.45245   7152144.86645                  24214953.0994
         9.7504         11.0004
  21031004.1774     -90100.98848    -44776.54347                  21031009.8604
        29.0004         29.5004
  22257117.4504    7046943.72047   5412633.15646                  22257123.7784
        26.5004         24.7504
  22721510.8104    6972745.63446   5362978.35145                  22721517.2204
        15.0004         11.2504
  25254408.2474    2455865.43444   1777629.23845                  25254414.8924
         6.2504          6.0004
  22315446.5364    -795315.77747   -583718.91346                  22315453.2744
        25.0004         25.0004
  24006382.6144   -1837365.99345  -1345780.98045                  24006391.1964
         9.7504         11.7504
  24367859.1144   -1896724.86345  -1356289.13445                  24367869.0324
         9.7504         10.2504
 98  6 18 20  6  0.0010000  0  8G 5G 6G30G10G13G17G26G23
  24229607.1534    9410863.87745   7212191.86445                  24229616.6144
        10.2504         10.7504
  21032276.5994     -83415.06848    -39566.72647                  21032282.4234
        29.0004         29.2504
  22269413.0754    7111557.28747   5462981.35146                  22269419.3564
        27.0004         24.5004
  22733601.6144    7036283.62846   5412488.47546                  22733607.2864
        15.0004         12.0004
  25260307.7474    2486863.27744   1801783.37245                  25260309.9384
         6.5004          5.0004
  22315491.8024    -795078.34747   -583533.88146                  22315498.2004
        25.0004         24.7504
  24003510.0364   -1852462.81845  -1357544.66345                  24003518.8644
         9.7504         11.7504
  24362752.5134   -1923558.71145  -1377198.55045                  24362761.3644
        10.5004         10.5004
 98  6 18 20  6 15.0010000  0  8G 5G 6G30G10G13G17G26G23
  24244277.4424    9487954.41945   7272262.33245                  24244286.2944
        10.2504         11.2504
  21033565.6224     -76641.04848    -34288.27147                  21033571.5994
        29.5004         28.7504
  22281728.2004    7176274.67147   5513410.45546                  22281734.4584
        25.7504         24.2504
  22745710.8334    7099917.12846   5462073.02045                  22745717.4894
        13.5004         11.7504
  25266231.4504    2517993.78044   1826040.90845                  25266240.8764
         6.5004          6.5004
  22315548.8964    -794779.08947   -583300.67946                  22315555.5754
        24.7504         25.0004
  24000649.0674   -1867497.58745  -1369259.97245                  24000657.9424
        11.0004         11.5004
  24357656.6774   -1950338.65945  -1398066.02445                  24357665.7744
        10.2504          9.7504
 98  6 18 20  6 30.0010000  0  8G 5G 6G30G10G13G17G26G23
  24258953.5834    9565075.48445   7332356.57945                  24258962.7164
        11.0004         11.5004
  21034871.3104     -69778.78648    -28941.04247                  21034877.2164
        30.2504         28.7504
  22294062.3564    7241091.91047   5563917.36746                  22294069.0364
        25.2504         24.0004
  22757837.9034    7163644.70346   5511730.85545                  22757843.8104
        13.5004         11.5004
  25272181.2084    2549259.60144   1850403.83845                  25272190.5634
         6.5004          7.0004
  22315617.8254    -794415.62547   -583017.44146                  22315624.6964
        25.0004         25.2504
  23997799.4974   -1882472.35045  -1380928.55546                  23997807.6224
        11.0004         12.2504
  24352570.4354   -1977066.07145  -1418892.50245                  24352579.8604
         9.0004          9.7504
 98  6 18 20  6 45.0010000  0  8G 5G 6G30G10G13G17G26G23
  24273635.7554    9642231.11045   7392477.76445                  24273644.9704
        11.2504         10.7504
  21036194.7164     -62824.05148    -23521.76047                  21036200.6814
        30.5004         28.7504
  22306415.7784    7306008.58047   5614501.75146                  22306422.2004
        24.2504         24.0004
  22769982.7634    7227468.66846   5561463.80446                  22769989.6224
        14.0004         12.2504
  25278157.6144    2580666.17344   1874876.54045                  25278165.1884
         6.2504          6.7504
  22315699.5674    -793984.96147   -582681.83246                  22315706.4854
        24.5004         25.2504
  23994961.6534   -1897384.73445  -1392548.49945                  23994971.0094
        11.0004         11.7504
  24347494.8884   -2003737.07445  -1439675.03045                  24347504.8534
         9.0004         10.5004
 98  6 18 20  7  0.0010000  0  8G 5G 6G30G10G13G17G26G23
  24288324.3964    9719420.60545   7452625.34445                  24288333.2594
        10.7504         11.2504
  21037536.1534     -55775.89548    -18029.69147                  21037542.2474
        30.5004         28.5004
  22318787.3254    7371022.11047   5665161.61346                  22318793.8064
        24.7504         23.7504
  22782145.7004    7291388.16846   5611271.17346                  22782152.1104
        13.5004         12.5004
  25284161.3884    2612210.83443   1899456.76245                  25284172.7594
         6.0004          6.5004
  22315794.5994    -793486.42747   -582293.34846                  22315801.5284
        24.7504         25.0004
  23992135.8174   -1912233.18745  -1404118.63445                  23992144.6694
        10.2504         11.5004
  24342430.9274   -2030350.19045  -1460412.48245                  24342441.6064
         9.0004         10.0004
 98  6 18 20  7 15.0010000  0  8G 5G 6G30G10G13G17G26G23
  24303019.5444    9796643.42745   7512798.91745                  24303029.3804
        11.0004         10.7504
  21038895.3334     -48632.38048    -12463.30647                  21038901.3214
        31.2504         28.0004
  22331177.5914    7436133.10647   5715897.41946                  22331183.8844
        25.0004         23.7504
  22794328.5994    7355407.03046   5661155.99746                  22794336.3844
        13.2504         12.2504
  25290189.2634    2643892.06444   1924143.40145                  25290193.7514
         6.7504          6.2504
  22315902.8964    -792916.43447   -581849.17546                  22315909.6344
        25.5004         25.2504
  23989322.7394   -1927014.41145  -1415636.38445                  23989331.3214
        11.0004         11.5004
  24337378.8494   -2056901.43645  -1481101.69945                  24337389.1064
         8.7504          9.7504
 98  6 18 20  7 30.0010000  0  8G 5G 6G30G10G13G17G26G23
  24317719.9744    9873894.07645   7572994.14645                  24317730.1384
        11.0004         10.7504
  21040271.6384     -41399.75948     -6827.49647                  21040277.5324
        31.2504         28.0004
  22343585.2244    7501336.12047   5766704.93646                  22343591.5524
        24.7504         23.7504
  22806528.7314    7419520.17046   5711114.25546                  22806535.7314
        14.7504         12.0004
  25296243.6614    2675707.74843   1948934.90945                  25296248.0324
         6.0004          6.5004
  22316024.0524    -792279.23847   -581352.64446                  22316030.9584
        26.0004         25.5004
  23986523.3494   -1941730.68945  -1427103.52545                  23986531.5674
        11.5004         11.5004
  24332336.2244   -2083392.89045  -1501744.30845                  24332345.4854
         9.0004         10.0004
 98  6 18 20  7 45.0010000  0  8G 5G 6G30G10G13G17G26G23
  24332425.9584    9951173.60745   7633211.87645                  24332435.4424
        11.0004         10.5004
  21041665.9664     -34072.67948     -1118.07447                  21041671.6144
        32.0004         27.7504
  22356012.2084    7566639.05847   5817590.30146                  22356018.6654
        25.2504         23.5004
  22818747.7394    7483730.87946   5761148.56345                  22818754.3254
        14.7504         11.7504
  25302324.7784    2707664.67744   1973836.39745                  25302331.9664
         6.2504          6.5004
  22316158.8024    -791571.46547   -580801.11946                  22316165.4814
        25.5004         25.2504
  23983735.6304   -1956376.72345  -1438515.92845                  23983744.1534
        10.7504         11.5004
  24327307.6224   -2109822.71445  -1522338.93245                  24327316.3104
         9.2504         10.2504
 98  6 18 20  8  0.0010000  0  8G 5G 6G30G10G13G17G26G23
  24347134.6774   10028470.57945   7693443.20345                  24347142.6614
        11.0004         10.2504
  21043076.6774     -26659.06248      4658.77547                  21043082.2434
        31.7504         27.7504
  22368456.0674    7632032.46647   5868546.16846                  22368462.4314
        24.7504         23.5004
  22830983.9504    7548029.92346   5811251.72745                  22830989.9274
        15.0004         11.5004
  25308431.9974    2739756.81643   1998843.28145                  25308442.1384
         5.5004          6.2504
  22316304.7864    -790805.71447   -580204.41646                  22316311.2674
        25.7504         25.2504
  23980960.1694   -1970963.85545  -1449882.44945                  23980968.8334
        11.5004         11.7504
  24322286.7004   -2136205.54745  -1542896.90845                  24322296.0914
         9.2504         10.0004
 98  6 18 20  8 15.0010000  0  8G 5G 6G30G10G13G17G26G23
  24361846.4274   10105782.40045   7753686.12545                  24361855.8644
        10.2504         10.2504
  21044504.7634     -19155.43348     10505.76747                  21044510.6104
        32.0004         27.2504
  22380917.0834    7697515.05547   5919571.53046                  22380923.6344
        25.2504         23.7504
  22843236.4354    7612418.40146   5861424.56145                  22843241.9664
        16.0004         11.7504
  25314565.0674    2771987.30044   2023957.97745                  25314575.5134
         6.2504          6.0004
  22316461.0364    -789983.86547   -579564.00646                  22316467.5284
        26.0004         25.5004
  23978195.2084   -1985493.34945  -1461204.06145                  23978204.5174
        10.5004         11.5004
  24317275.7944   -2162539.83045  -1563417.04545                  24317284.5174
         9.7504         10.5004
 98  6 18 20  8 30.0010000  0  8G 5G 6G30G10G13G17G26G23
  24376561.9744   10183110.08645   7813941.38245                  24376572.3374
        10.0004         10.0004
  21045950.6304     -11557.30648     16426.38247                  21045956.5134
        32.5004         27.0004
  22393395.5284    7763089.63847   5970668.58046                  22393401.6574
        25.2504         23.2504
  22855507.0444    7676900.53146   5911670.35845                  22855513.2084
        15.0004         11.7504
  25320726.0754    2804359.97844   2049183.32145                  25320734.6574
         6.7504          5.5004
  22316628.5054    -789103.41347   -578877.92146                  22316635.2904
        25.5004         25.0004
  23975441.2164   -1999963.54145  -1472479.44145                  23975449.9034
        10.7504         11.5004
  24312274.4744   -2188821.03645  -1583895.84545                  24312283.5134
        10.5004         10.7504
 98  6 18 20  8 45.0010000  0  8G 5G 6G30G10G13G17G26G23
  24391281.0754   10260459.20145   7874213.34845                  24391291.6964
        11.0004         10.2504
  21047415.9354      -3857.45548     22426.27947                  21047421.8414
        32.5004         26.7504
  22405893.5524    7828766.15047   6021845.05646                  22405899.6924
        25.5004         23.7504
  22867797.8254    7741488.52446   5961998.67746                  22867804.3294
        14.7504         12.2504
  25326913.8564    2836882.78044   2074525.81045                  25326920.5954
         6.2504          4.7504
  22316808.7244    -788156.11247   -578139.75346                  22316815.7124
        26.0004         25.2504
  23972700.1224   -2014365.79045  -1483701.87145                  23972709.2314
        10.2504         10.7504
  24307285.4034   -2215039.52845  -1604325.76845                  24307293.4704
        10.5004         10.7504
 98  6 18 20  9  0.0010000  0  8G 5G 6G30G10G13G17G26G23
  24406003.2784   10337824.37145   7934497.83245                  24406011.7434
        11.7504         10.2504
  21048899.9194       3941.10348     28503.07747                  21048905.6614
        32.2504         27.0004
  22418410.7164    7894544.14147   6073100.60646                  22418417.1384
        24.2504         23.7504
  22880107.8804    7806180.21246   6012407.74846                  22880114.1614
        14.5004         12.7504
  25333130.5054    2869547.57944   2099978.92845                  25333133.6814
         7.2504          6.5004
  22317000.8964    -787145.85547   -577352.52346                  22317007.6574
        25.5004         25.2504
  23969972.0134   -2028702.69745  -1494873.39345                  23969981.0404
        10.5004         11.2504
  24302307.3494   -2241199.76645  -1624710.31745                  24302315.4854
        10.5004         10.5004
 98  6 18 20  9 15.0010000  0  8G 5G 6G30G10G13G17G26G23
  24420729.6144   10415210.69445   7994798.74745                  24420740.1534
        10.5004          9.0004
  21050403.8644      11844.34848     34661.46347                  21050409.6184
        32.5004         26.7504
  22430948.6774    7960431.27447   6124441.19446                  22430954.8764
        25.0004         23.7504
  22892439.7634    7870984.00746   6062904.17346                  22892446.1264
        14.7504         12.0004
  25339374.4744    2902358.61645   2125545.90745                  25339381.1304
         7.7504          6.2504
  22317207.2164    -786062.47547   -576508.32246                  22317214.0604
        26.0004         25.2504
  23967257.5524   -2042969.18045  -1505990.05545                  23967266.2394
        10.7504         11.2504
  24297341.7164   -2267294.70545  -1645043.99745                  24297349.4074
        11.5004         11.0004
 98  6 18 20  9 30.0010000  0  8G 5G 6G30G10G13G17G26G23
  24435457.4274   10492608.50545   8055108.66545                  24435467.2514
        11.0004         10.5004
  21051925.5604      19841.21848     40892.79047                  21051931.2554
        32.5004         26.5004
  22443505.3104    8026417.26347   6175858.82846                  22443511.6964
        24.0004         23.5004
  22904790.9114    7935890.51746   6113480.65345                  22904796.9114
        14.7504         11.7504
  25345644.0364    2935308.70144   2151221.27545                  25345653.1924
         6.5004          6.2504
  22317425.6464    -784914.30847   -575613.63446                  22317432.3964
        26.2504         25.5004
  23964554.0834   -2057175.28145  -1517059.64845                  23964561.9624
        10.5004         11.0004
  24292386.5364   -2293333.38245  -1665333.79745                  24292395.2824
        11.5004         11.0004
 98  6 18 20  9 45.0010000  0  8G 5G 6G30G10G13G17G26G23
  24450187.7474   10570015.82245   8115425.99545                  24450197.7244
        10.5004         10.5004
  21053465.1224      27931.09848     47196.60747                  21053470.7244
        32.5004         26.2504
  22456080.7634    8092500.86647   6227352.50846                  22456087.2084
        23.2504         23.2504
  22917161.9814    8000897.14946   6164135.14946                  22917168.3334
        15.2504         12.5004
  25351940.5284    2968396.68843   2177004.07345                  25351947.6464
         6.0004          6.5004
  22317656.4114    -783702.55147   -574669.39046                  22317662.7394
        26.2504         25.5004
  23961861.0444   -2071326.14645  -1528086.20745                  23961869.2394
        11.5004         11.0004
  24287441.2634   -2319320.74745  -1685583.63845                  24287450.1384
        11.0004         11.0004
 98  6 18 20 10  0.0020000  0  8G 5G 6G30G10G13G17G26G23
  24464922.1274   10647445.57845   8175760.71545                  24464933.1234
         9.5004         10.0004
  21055023.8144      36122.54348     53579.55747                  21055029.4984
        32.5004         26.2504
  22468676.0104    8158691.64047   6278929.70446                  22468682.5844
        22.7504         23.0004
  22929553.2754    8066014.37046   6214875.80446                  22929559.8504
        15.7504         12.2504
  25358265.3614    3001627.77944   2202898.47445                  25358270.2954
         6.5004          5.7504
  22317899.9634    -782421.83847   -573671.42247                  22317906.5024
        26.7504         25.7504
  23959178.6274   -2085419.44045  -1539067.91345                  23959187.3964
        10.5004         11.0004
  24282506.1194   -2345254.59545  -1705791.76845                  24282516.5884
        11.0004         11.2504
 98  6 18 20 10 15.0020000  0  8G 5G 6G30G10G13G17G26G23
  24479660.4394   10724896.88845   8236112.33945                  24479668.8344
        10.0004          9.7504
  21056602.6974      44419.71048     60044.88547                  21056608.4984
        31.7504         26.0004
  22481290.8074    8224983.23947   6330585.45546                  22481297.3574
        22.2504         23.0004
  22941965.2294    8131238.71446   6265699.98346                  22941971.2754
        15.7504         12.0004
  25364614.4864    3034999.86544   2228902.68645                  25364618.0614
         6.2504          6.5004
  22318157.8614    -781065.68547   -572614.66946                  22318164.7324
        25.0004         25.5004
  23956509.3934   -2099448.61645  -1549999.64245                  23956518.8544
        10.0004         11.2504
  24277583.4164   -2371122.55745  -1725948.56745                  24277592.1624
        11.0004         10.5004
 98  6 18 20 10 30.0020000  0  8G 5G 6G30G10G13G17G26G23
  24494403.9004   10802371.30645   8296482.02045                  24494413.6544
        11.0004         10.5004
  21058200.4164      52815.34948     66586.94247                  21058206.4284
        32.0004         25.7504
  22493925.0574    8291375.20947   6382319.42446                  22493931.5724
        22.2504         22.5004
  22954396.1504    8196566.35646   6316604.62546                  22954402.9474
        15.2504         12.5004
  25370990.8934    3068506.74043   2255011.93145                  25370996.3304
         5.0004          6.5004
  22318429.5334    -779637.48447   -571501.77446                  22318436.5684
        24.7504         25.0004
  23953850.9164   -2113418.87545  -1560885.49245                  23953859.8504
        10.7504         11.0004
  24272672.5804   -2396929.14145  -1746057.53345                  24272680.4244
        10.0004         10.0004
 98  6 18 20 10 45.0020000  0  8G 5G 6G30G10G13G17G26G23
  24509151.3304   10879870.77345   8356871.11745                  24509160.9084
        11.0004         10.7504
  21059816.4244      61308.04248     73204.63347                  21059822.2484
        32.0004         25.7504
  22506578.2994    8357868.39347   6434132.26746                  22506584.8384
        23.5004         22.7504
  22966847.1504    8261995.05046   6367588.00046                  22966854.4204
        14.7504         12.5004
  25377391.6114    3102146.12643   2281224.41745                  25377401.1784
         5.0004          6.2504
  22318715.0494    -778136.84247   -570332.43046                  22318722.1784
        24.0004         24.5004
  23951202.7754   -2127330.40645  -1571725.56445                  23951211.8144
        10.0004         11.5004
  24267773.0724   -2422672.75045  -1766117.44545                  24267781.5724
         9.7504         10.0004
 98  6 18 20 11  0.0020000  0  8G 5G 6G30G10G13G17G26G23
  24523903.8304   10957394.50545   8417279.14545                  24523911.9434
        10.2504         10.2504
  21061450.7604      69897.10048     79897.41247                  21061456.5964
        31.2504         25.7504
  22519250.4864    8424460.97247   6486022.57046                  22519256.8614
        23.0004         22.7504
  22979316.0414    8327520.15946   6418646.52445                  22979322.2754
        15.0004         11.7504
  25383817.8144    3135914.73943   2307537.69845                  25383822.0214
         5.5004          5.7504
  22319014.2914    -776564.65947   -569107.34946                  22319021.1504
        24.0004         24.7504
  23948567.2684   -2141183.79745  -1582520.31145                  23948575.8144
         9.7504         11.2504
  24262886.7054   -2448354.15345  -1786128.86545                  24262895.6864
        10.5004         10.2504
 98  6 18 20 11 15.0020000  0  8G 5G 6G30G10G13G17G26G23
  24538661.1044   11034945.27145   8477708.21545                  24538670.4124
         9.2504          9.7504
  21063103.9084      78583.76348     86666.25346                  21063109.8964
        31.0004         25.5004
  22531941.6114    8491151.23747   6537988.98946                  22531947.6934
        24.0004         22.5004
  22991801.9554    8393135.69946   6469775.49045                  22991808.4714
        14.0004         11.5004
  25390267.9324    3169812.54944   2333951.56045                  25390275.0144
         6.2504          6.2504
  22319326.8694    -774921.27947   -567826.77846                  22319333.6544
        23.2504         24.5004
  23945941.1664   -2154980.00745  -1593270.51545                  23945949.8184
         9.2504         11.2504
  24258011.4864   -2473973.60345  -1806092.02545                  24258021.2404
        10.2504         11.0004
 98  6 18 20 11 30.0020000  0  8G 5G 6G30G10G13G17G26G23
  24553424.2684   11112522.47545   8538157.94645                  24553433.8574
         9.7504         10.2504
  21064775.0254      87365.88148     93509.47246                  21064780.9904
        30.2504         25.2504
  22544649.7684    8557934.82247   6590028.12746                  22544656.3654
        23.2504         23.0004
  23004304.6584    8458835.35046   6520969.98145                  23004311.9044
        14.2504         11.7504
  25396742.8144    3203839.89643   2360466.37345                  25396749.8384
         5.7504          5.5004
  22319652.1584    -773212.14547   -566494.97046                  22319659.0884
        23.7504         24.5004
  23943326.2754   -2168722.14345  -1603978.60545                  23943335.0924
         9.7504         11.5004
  24253146.8144   -2499534.68245  -1826009.69745                  24253155.7484
         9.7504         10.7504
 98  6 18 20 11 45.0020000  0  8G 5G 6G30G10G13G17G26G23
  24568191.8304   11190128.48945   8598630.09345                  24568202.0534
        10.0004         10.0004
  21066465.1114      96247.43748    100430.17246                  21066470.8894
        30.2504         25.5004
  22557376.5644    8624815.28047   6642142.74346                  22557382.8694
        23.2504         22.7504
  23016822.4244    8524619.30346   6572230.21145                  23016828.2134
        15.2504         11.7504
  25403243.9714    3237997.75344   2387082.92245                  25403251.9084
         6.2504          5.2504
  22319989.6504    -771440.15247   -565114.18546                  22319996.4714
        24.0004         24.5004
  23940721.4554   -2182408.78545  -1614643.39845                  23940730.2604
         9.5004         10.7504
  24248294.0964   -2525038.10145  -1845882.44845                  24248302.5964
         9.7504         10.2504
 98  6 18 20 12  0.0020000  0  8G 5G 6G30G10G13G17G26G23
  24582966.1824   11267766.59045   8659127.22945                  24582975.5024
         9.7504         10.0004
  21068174.7294     105231.21948    107430.52346                  21068180.6354
        29.7504         25.0004
  22570122.4864    8691794.96247   6694334.67446                  22570129.1784
        23.2504         22.7504
  23029357.0724    8590488.56946   6623556.90646                  23029363.5764
        14.7504         12.0004
  25409769.7134    3272289.07244   2413803.32445                  25409775.5374
         7.0004          6.0004
  22320338.7994    -769604.79447   -563684.02846                  22320345.4084
        24.2504         24.5004
  23938128.2914   -2196036.34245  -1625262.21045                  23938137.6704
        10.0004         11.2504
  24243451.9324   -2550483.41545  -1865709.90645                  24243460.9824
        10.7504         11.0004
 98  6 18 20 12 15.0020000  0  8G 5G 6G30G10G13G17G26G23
  24597744.6274   11345429.07245   8719643.36845                  24597754.6504
         9.0004          9.7504
  21069901.7834     114308.00848    114503.36046                  21069907.6194
        29.5004         25.2504
  22582885.3464    8758864.68047   6746596.75846                  22582892.1664
        22.7504         22.7504
  23041906.7604    8656435.61246   6674944.16246                  23041913.2294
        15.5004         12.5004
  25416318.7134    3306708.20143   2440623.46145                  25416323.8814
         6.0004          5.7504
  22320699.1894    -767713.42547   -562210.22546                  22320705.9394
        25.0004         24.2504
  23935545.8544   -2209608.19745  -1635837.58045                  23935554.8814
        10.7504         11.2504
  24238619.7914   -2575875.09845  -1885495.55745                  24238628.1974
        10.2504         10.7504
 98  6 18 20 12 30.0020000  0  8G 5G 6G30G10G13G17G26G23
  24612528.3144   11423120.26645   8780181.85645                  24612537.0494
         8.2504          9.2504
  21071647.9794     123483.09648    121652.77646                  21071653.6864
        28.7504         25.0004
  22595667.1584    8826033.25147   6798935.86746                  22595674.2644
        22.7504         22.5004
  23054471.7524    8722467.65146   6726397.67846                  23054478.1394
        15.2504         12.0004
  25422894.8854    3341265.63443   2467551.34945                  25422905.4004
         5.5004          5.7504
  22321071.0334    -765758.02547   -560686.52946                  22321077.5964
        24.2504         24.0004
  23932975.8144   -2223114.80945  -1646362.14246                  23932984.3504
        10.7504         12.0004
  24233799.3464   -2601205.59845  -1905233.56645                  24233808.8544
        10.7504         11.0004
 98  6 18 20 12 45.0020000  0  8G 5G 6G30G10G13G17G26G23
  24627315.3304   11500826.35745   8840731.97945                  24627324.8734
         8.7504          9.5004
  21073410.4554     132745.66548    128870.36646                  21073415.9984
        29.7504         25.2504
  22608466.0254    8893290.85547   6851344.35646                  22608473.0844
        23.2504         22.7504
  23067051.5804    8788574.90146   6777909.84245                  23067058.0614
        14.5004         11.5004
  25429495.7054    3375952.64843   2494580.10545                  25429499.9364
         5.5004          5.5004
  22321453.4004    -763748.26447   -559120.48246                  22321459.9284
        24.2504         24.0004
  23930416.1744   -2236564.72045  -1656842.51846                  23930424.8854
        11.2504         12.2504
  24228988.9474   -2626486.93045  -1924933.26045                  24228997.7994
        11.7504         11.7504
 98  6 18 20 13  0.0020000  0  8G 5G 6G30G10G13G17G26G23
  24642106.8224   11578553.31045   8901298.37345                  24642116.5184
         9.0004          9.2504
  21075191.9554     142104.93548    136163.31046                  21075197.3224
        29.5004         25.5004
  22621282.9794    8960644.73747   6903827.86246                  22621289.7874
        23.5004         22.7504
  23079647.5024    8854767.34446   6829488.35845                  23079654.0294
        14.5004         11.2504
  25436123.8774    3410777.60043   2521716.41845                  25436132.0844
         5.7504          5.7504
  22321847.5964    -761675.92447   -557505.66246                  22321854.0534
        24.2504         24.0004
  23927868.4554   -2249950.45545  -1667272.89646                  23927877.0614
        11.2504         12.2504
  24224187.6434   -2651715.07045  -1944591.49246                  24224195.7914
        11.2504         12.2504
 98  6 18 20 13 15.0020000  0  8G 5G 6G30G10G13G17G26G23
  24656901.1274   11656297.48245   8961878.16945                  24656910.8574
         9.0004          9.5004
  21076990.8144     151558.87548    143530.02246                  21076996.3114
        28.5004         25.2504
  22634117.8774    9028091.81847   6956384.00646                  22634124.5684
        23.5004         23.2504
  23092259.9324    8921045.42446   6881133.57245                  23092266.2014
        13.7504         10.5004
  25442775.7754    3445738.81843   2548958.97145                  25442781.7404
         6.0004          6.0004
  22322253.4794    -759543.71347   -555844.19246                  22322260.4084
        24.2504         24.2504
  23925333.5724   -2263273.61945  -1677654.51245                  23925341.3814
        11.5004         11.7504
  24219396.2364   -2676895.51645  -1964212.57546                  24219405.4984
        11.0004         12.2504
 98  6 18 20 13 30.0020000  0  8G 5G 6G30G10G13G17G26G23
  24671698.9474   11734059.99845   9022472.24745                  24671709.4754
         8.2504          9.2504
  21078807.4324     161107.32248    150970.37446                  21078812.9394
        28.2504         25.2504
  22646970.2684    9095631.32647   7009012.15446                  22646977.1394
        24.2504         23.2504
  23104889.5104    8987414.58346   6932849.78645                  23104895.5454
        13.7504         10.2504
  25449454.4164    3480838.10443   2576309.03245                  25449458.8934
         5.7504          6.2504
  22322670.9944    -757349.36947   -554134.30646                  22322677.9594
        24.5004         24.2504
  23922810.8614   -2276530.96946  -1687984.82246                  23922819.0924
        12.2504         12.5004
  24214614.1744   -2702026.79445  -1983795.30546                  24214623.0844
        11.7504         12.2504
 98  6 18 20 13 45.0020000  0  8G 5G 6G30G10G13G17G26G23
  24686498.8224   11811836.33345   9083077.06845                  24686509.2684
         8.0004          8.7504
  21080642.1584     170747.65647    158482.32446                  21080647.5724
        27.2504         24.7504
  22659839.8464    9163261.75747   7061711.16846                  22659846.6194
        23.2504         23.0004
  23117537.0494    9053878.53446   6984639.87145                  23117543.2364
        13.5004         10.0004
  25456159.3934    3516075.09542   2603766.45145                  25456164.1744
         4.7504          6.0004
  22323100.1434    -755093.28747   -552376.31746                  22323106.7404
        24.2504         23.5004
  23920300.4084   -2289722.68445  -1698264.02446                  23920308.6624
        11.5004         12.2504
  24209841.2994   -2727108.25646  -2003339.24646                  24209849.7294
        12.7504         12.7504
 98  6 18 20 14  0.0020000  0  8G 5G 6G30G10G13G17G26G23
  24701301.4944   11889625.03445   9143691.59745                  24701310.3344
         7.7504          8.5004
  21082493.9474     180479.41647    166065.51546                  21082499.5614
        26.5004         24.5004
  22672726.4554    9230981.35547   7114479.65546                  22672733.2754
        23.5004         23.0004
  23130203.6584    9120440.56346   7036506.37545                  23130211.0684
        13.5004         10.7504
  25462892.6584    3551451.99843   2631332.78145                  25462899.8464
         5.7504          6.5004
  22323541.7994    -752771.60947   -550567.21046                  22323548.3144
        23.0004         23.2504
  23917802.9554   -2302844.54646  -1708488.77646                  23917811.4434
        12.2504         12.5004
  24205078.5494   -2752135.30145  -2022840.79146                  24205087.4474
        11.5004         12.2504
 98  6 18 20 14 15.0020000  0  8G 5G 6G30G10G13G17G26G23
  24716106.6894   11967423.33245   9204313.54445                  24716116.7954
         8.7504          9.0004
  21084362.4794     190299.82147    173717.78446                  21084368.2324
        25.7504         24.0004
  22685629.0964    9298786.32147   7167314.67046                  22685635.6824
        23.0004         22.5004
  23142888.4554    9187097.27046   7088446.63445                  23142895.2404
        15.0004         11.2504
  25469650.8304    3586965.22644   2659005.46045                  25469657.0534
         6.7504          7.0004
  22323996.1584    -750384.97547   -548707.48646                  22324002.8384
        23.2504         23.5004
  23915320.4084   -2315895.46346  -1718658.26146                  23915328.4284
        12.7504         12.5004
  24200326.4474   -2777107.89145  -2042299.88246                  24200334.9364
        11.5004         12.0004
 98  6 18 20 14 30.0020000  0  8G 5G 6G30G10G13G17G26G23
  24730914.1664   12045237.58945   9264947.95945                  24730921.7174
         9.2504          9.5004
  21086250.0254     200218.26547    181446.44446                  21086255.8614
        24.2504         24.0004
  22698550.3144    9366686.08347   7220223.54646                  22698557.0414
        23.2504         23.0004
  23155591.4474    9253855.66846   7140466.19245                  23155597.8114
        14.7504         11.2504
  25476433.9084    3622620.32843   2686788.63745                  25476438.5844
         5.7504          5.7504
  22324464.0414    -747926.58347   -546791.84546                  22324470.8034
        23.0004         23.0004
  23912850.6584   -2328869.23646  -1728767.62446                  23912858.5724
        12.2504         12.2504
  24195586.0804   -2802018.14746  -2061710.41046                  24195595.0844
        12.0004         12.0004
 98  6 18 20 14 45.0020000  0  8G 5G 6G30G10G13G17G26G23
  24745722.7684   12123057.68845   9325586.90345                  24745731.8424
         9.2504          9.2504
  21088154.5724     210226.46247    189245.04846                  21088160.5614
        24.2504         24.2504
  22711487.3384    9434670.33547   7273198.26046                  22711494.0644
        23.5004         23.0004
  23168313.0494    9320704.47746   7192556.13245                  23168319.0374
        14.7504         11.2504
  25483244.5104    3658405.90343   2714673.52945                  25483244.2174
         5.0004          5.2504
  22324943.1504    -745407.34147   -544828.79546                  22324949.9594
        23.0004         23.2504
  23910395.3934   -2341775.37846  -1738824.28546                  23910402.4284
        13.2504         13.0004
  24190855.4944   -2826875.58845  -2081079.78045                  24190864.3464
        11.5004         11.7504
 98  6 18 20 15  0.0020000  0  8G 5G 6G30G10G13G17G26G23
  24760534.6274   12200892.42145   9386237.27945                  24760543.7834
         9.0004          9.5004
  21090078.6274     220335.85547    197122.48446                  21090084.3224
        25.0004         24.5004
  22724441.3544    9502744.07947   7326242.70146                  22724447.6704
        24.0004         23.2504
  23181051.6434    9387648.79246   7244720.51945                  23181057.8654
        16.0004         11.5004
  25490079.7294    3694327.42743   2742664.29545                  25490088.2754
         5.0004          5.7504
  22325435.0644    -742823.01447   -542815.03446                  22325441.6154
        23.7504         23.2504
  23907953.8614   -2354604.56746  -1748820.98546                  23907961.6234
        13.5004         13.0004
  24186137.5724   -2851671.40045  -2100401.15845                  24186146.1894
        11.7504         11.7504
 98  6 18 20 15 15.0020000  0  8G 5G 6G30G10G13G17G26G23
  24775347.5024   12278732.62945   9446891.89345                  24775355.4514
         8.7504          8.7504
  21092019.6894     230537.76847    205072.02146                  21092025.3144
        24.2504         24.7504
  22737410.4714    9570896.67347   7379348.58546                  22737417.0924
        23.5004         23.2504
  23193806.9714    9454677.35346   7296950.56945                  23193812.7714
        15.2504         11.2504
  25496939.6824    3730373.76943   2770752.34444                  25496940.4434
         5.5004          4.2504
  22325936.9324    -740186.10947   -540760.30446                  22325943.4824
        24.2504         24.2504
  23905525.4794   -2367365.32146  -1758764.36446                  23905533.1464
        13.2504         13.5004
  24181428.9864   -2876414.69446  -2119681.57646                  24181438.4714
        12.7504         13.0004
 98  6 18 20 15 30.0020000  0  8G 5G 6G30G10G13G17G26G23
  24790162.4634   12356588.76745   9507558.93145                  24790171.5614
         8.0004          9.2504
  21093980.6744     240842.81747    213101.93746                  21093986.4984
        24.0004         24.7504
  22750395.8694    9639136.49847   7432522.43846                  22750402.5374
        23.2504         23.0004
  23206579.1434    9521797.30746   7349251.80445                  23206586.6004
        14.7504         11.7504
  25503824.1664    3766552.50743   2798943.51245                  25503830.6004
         5.7504          4.7504
  22326450.6354    -737486.74447   -538656.89046                  22326457.6584
        23.7504         24.2504
  23903112.0884   -2380046.11346  -1768645.43246                  23903119.7324
        13.0004         13.2504
  24176733.2604   -2901089.77446  -2138908.86346                  24176742.5684
        12.7504         12.5004
 98  6 18 20 15 45.0020000  0  8G 5G 6G30G10G13G17G26G23
  24804980.6274   12434460.42245   9568238.09645                  24804991.0254
         8.7504          9.2504
  21095961.1824     251251.60647    221212.68846                  21095967.0764
        23.7504         25.0004
  22763398.2604    9707463.36647   7485764.13246                  22763405.1544
        23.0004         23.0004
  23219368.2054    9589004.47346   7401620.99045                  23219376.2014
        14.7504         11.5004
  25510734.6824    3802864.90543   2827239.02745                  25510743.0644
         5.5004          5.5004
  22326976.5494    -734724.27647   -536504.29746                  22326983.2174
        24.0004         24.2504
  23900713.9714   -2392648.09546  -1778465.09946                  23900720.6974
        13.0004         12.7504
  24172050.5184   -2925696.51246  -2158082.89546                  24172058.9714
        12.5004         12.2504
 98  6 18 20 16  0.0020000  0  8G 5G 6G30G10G13G17G26G23
  24819803.1274   12512347.29445   9628929.05345                  24819813.0214
         9.2504          9.2504
  21097962.2364     261767.00647    229406.50646                  21097968.0494
        24.2504         25.5004
  22776417.2684    9775879.19647   7539075.13146                  22776424.1974
        23.2504         22.7504
  23232173.6044    9656296.84546   7454056.60545                  23232180.2954
        14.7504         11.0004
  25517670.5724    3839312.53543   2855639.80244                  25517678.6744
         5.0004          3.7504
  22327513.8544    -731900.13947   -534303.66446                  22327520.4634
        24.5004         24.5004
  23898330.9554   -2405169.94046  -1788222.32946                  23898338.8814
        12.7504         12.7504
  24167381.5104   -2950232.65146  -2177201.89646                  24167391.0064
        12.2504         12.0004
 98  6 18 20 16 15.0020000  0  7G 5G 6G30G10G17G26G23
  24834626.9394   12590244.48445   9689628.06945                  24834635.6624
        10.5004          8.7504
  21099982.9394     272385.86647    237680.93846                  21099988.8464
        24.0004         25.5004
  22789452.2914    9844377.40847   7592450.33046                  22789459.0884
        23.0004         22.2504
  23244993.6274    9723664.91446   7506551.19845                  23245000.9794
        15.7504         11.7504
  22328061.4474    -729022.20347   -532061.11246                  22328067.8574
        24.0004         24.2504
  23895962.6744   -2417616.71046  -1797921.04946                  23895971.4554
        12.0004         13.0004
  24162724.6504   -2974705.70745  -2196271.77246                  24162733.7954
        11.5004         12.2504
 98  6 18 20 16 30.0020000  0  7G 5G 6G30G10G17G26G23
  24849452.2834   12668155.85945   9750338.15045                  24849462.3774
        10.0004          9.0004
  21102023.9004     283111.19447    246038.34746                  21102029.9474
        23.7504         25.2504
  22802503.5574    9912962.68647   7645893.36846                  22802510.6154
        23.2504         22.2504
  23257827.9794    9791109.06646   7559105.04346                  23257835.2484
        16.7504         12.5004
  22328619.5724    -726089.56147   -529775.93046                  22328626.1234
        23.5004         24.5004
  23893608.3614   -2429987.47446  -1807560.54946                  23893616.3344
        12.2504         12.0004
  24158079.2054   -2999113.24545  -2215290.57046                  24158088.0454
        11.5004         12.2504
 98  6 18 20 16 45.0020000  0  7G 5G 6G30G10G17G26G23
  24864280.7134   12746078.62145   9811057.12545                  24864289.7524
         9.2504          9.0004
  21104084.0254     293938.87747    254475.49946                  21104090.0144
        23.5004         25.2504
  22815570.6894    9981629.03947   7699399.58046                  22815577.1704
        24.2504         22.5004
  23270676.5024    9858628.03146   7611717.21546                  23270683.5844
        16.0004         12.2504
  22329188.0494    -723102.38547   -527448.25346                  22329194.6824
        25.0004         24.5004
  23891267.4794   -2442286.28945  -1817143.98146                  23891276.0494
        11.2504         12.2504
  24153447.3304   -3023456.38845  -2234259.19245                  24153456.7214
        11.5004         11.7504
 98  6 18 20 17  0.0020000  0  7G 5G 6G30G10G17G26G23
  24879110.9324   12824015.14145   9871786.79545                  24879118.3184
         8.7504          8.7504
  21106164.4794     304869.99847    262993.25147                  21106170.4324
        24.2504         25.7504
  22828652.6504   10050376.68347   7752969.15046                  22828659.2954
        24.2504         22.5004
  23283540.4794    9926226.53146   7664391.37346                  23283547.1464
        17.7504         12.5004
  22329767.3544    -720057.48147   -525075.58646                  22329774.0104
        23.0004         24.2504
  23888941.6114   -2454511.08846  -1826669.73346                  23888949.5144
        12.5004         12.5004
  24148827.4394   -3047732.44545  -2253175.55845                  24148836.9714
        11.0004         11.5004
 98  6 18 20 17 15.0020000  0  7G 5G 6G30G10G17G26G23
  24893944.2524   12901963.08945   9932525.39745                  24893953.7254
         9.0004          8.5004
  21108263.5494     315900.20447    271588.21747                  21108269.4904
        23.7504         25.7504
  22841750.0884   10119204.49247   7806601.16546                  22841756.5804
        24.5004         22.7504
  23296418.3774    9993903.65346   7717126.79846                  23296426.2794
        16.7504         12.7504
  22330357.9164    -716953.49647   -522656.89346                  22330364.8464
        23.5004         24.2504
  23886628.0884   -2466666.08746  -1836141.10746                  23886635.6044
        12.0004         12.7504
  24144219.6744   -3071944.70545  -2272042.20245                  24144227.8694
        11.2504         11.5004
 98  6 18 20 17 30.0020000  0  7G 5G 6G30G10G17G26G23
  24908780.0024   12979926.33645   9993275.89445                  24908790.9634
         9.0004          8.7504
  21110381.4794     327030.04947    280260.81747                  21110387.5724
        23.5004         25.7504
  22854863.8074   10188116.12147   7860298.51646                  22854870.0184
        24.7504         22.5004
  23309312.8464   10061664.17646   7769927.16046                  23309320.9824
        16.5004         12.7504
  22330960.8074    -713785.40647   -520188.25246                  22330967.6154
        23.5004         24.7504
  23884328.7754   -2478752.49046  -1845559.02245                  23884337.0534
        12.2504         11.7504
  24139625.0644   -3096089.57845  -2290856.31745                  24139633.6234
        11.2504         11.5004
 98  6 18 20 17 45.0020000  0  7G 5G 6G30G10G17G26G23
  24923618.2914   13057894.68845  10054030.34145                  24923627.2134
         9.7504          8.2504
  21112515.9474     338246.97347    289001.27647                  21112521.8304
        24.5004         26.0004
  22867991.2214   10257102.21347   7914053.86746                  22867997.4554
        24.2504         22.2504
  23322221.2134   10129498.09546   7822784.75346                  23322227.8464
        16.0004         12.5004
  22331573.9084    -710563.18547   -517677.41746                  22331581.0144
        23.7504         24.7504
  23882039.5644   -2490781.67346  -1854932.34746                  23882047.5374
        13.2504         12.2504
  24135041.5494   -3120177.85746  -2309626.35246                  24135050.2604
        12.2504         12.0004
 98  6 18 20 18  0.0020000  0  7G 5G 6G30G10G17G26G23
  24938456.7914   13135875.07645  10114794.21245                  24938464.8464
        10.0004          9.2504
  21114668.2524     349557.19247    297814.42647                  21114674.0884
        24.7504         26.2504
  22881135.0964   10326173.34347   7967875.49146                  22881141.5064
        23.2504         22.0004
  23335145.0724   10197414.66446   7875706.75146                  23335152.4714
        15.0004         12.0004
  22332198.0494    -707282.30947   -515120.86846                  22332204.8344
        23.7504         24.7504
  23879763.1114   -2502743.57546  -1864253.25846                  23879771.1194
        14.0004         12.5004
  24130469.6664   -3144204.60846  -2328348.44246                  24130477.1824
        12.5004         12.5004
 98  6 18 20 18 15.0020000  0  7G 5G 6G30G10G17G26G23
  24953298.9944   13213871.67645  10175570.72745                  24953309.6974
         8.7504          8.0004
  21116839.3304     360965.77247    306704.22447                  21116845.0494
        25.0004         26.0004
  22894296.0724   10395334.82647   8021767.52246                  22894302.2134
        24.2504         22.0004
  23348085.7214   10265418.30246   7928696.55646                  23348092.7794
        15.5004         12.2504
  22332834.2684    -703938.58347   -512515.37946                  22332840.9364
        25.0004         25.0004
  23877500.5884   -2514632.10046  -1873517.00146                  23877507.5064
        14.5004         12.7504
  24125910.0724   -3168166.14846  -2347019.73446                  24125918.7014
        12.5004         12.5004
 98  6 18 20 18 30.0020000  0  7G 5G 6G30G10G17G26G23
  24968144.1504   13291881.76445  10236357.74145                  24968155.5684
         8.2504          8.5004
  21119028.0334     372467.95447    315666.94747                  21119033.7054
        25.0004         26.7504
  22907473.5334   10464582.06047   8075726.37746                  22907479.9324
        23.7504         21.7504
  23361041.8384   10333503.83646   7981750.19046                  23361049.1784
        16.2504         12.7504
  22333482.2054    -700534.71347   -509863.00846                  22333489.1824
        25.0004         25.5004
  23875251.1434   -2526453.40446  -1882728.36146                  23875258.7994
        14.2504         12.2504
  24121361.4864   -3192067.50146  -2365644.10346                  24121370.3384
        13.0004         12.5004
 98  6 18 20 18 45.0020000  0  7G 5G 6G30G10G17G26G23
  24982990.2214   13369898.86245  10297150.16745                  24982999.5884
         8.2504          8.5004
  21121234.0024     384059.30447    324699.17347                  21121239.7094
        24.7504         26.7504
  22920666.3694   10533909.66247   8129747.84346                  22920672.9084
        24.5004         22.0004
  23374013.6044   10401668.25346   8034865.30746                  23374021.6234
        16.2504         12.5004
  22334141.2834    -697071.81847   -507164.64746                  22334148.0214
        25.0004         25.5004
  23873013.8224   -2538211.57646  -1891890.51446                  23873020.0684
        14.7504         12.7504
  24116823.6354   -3215913.65946  -2384225.46746                  24116832.0534
        13.0004         12.5004
 98  6 18 20 19  0.0020000  0  7G 5G 6G30G10G17G26G23
  24997837.1584   13447922.18345  10357947.56645                  24997848.1544
         7.7504          8.0004
  21123457.7684     395745.80947    333805.54147                  21123463.5104
        24.5004         26.5004
  22933874.5184   10603320.60047   8183834.25346                  22933880.8114
        23.5004         21.7504
  23387000.7834   10469914.57846   8088044.22346                  23387007.4044
        16.5004         12.5004
  22334812.1044    -693547.20747   -504418.18947                  22334818.7484
        25.2504         26.0004
  23870789.1274   -2549901.64946  -1900999.61646                  23870796.5024
        14.2504         13.2504
  24112296.7294   -3239703.55546  -2402763.01646                  24112305.8964
        12.7504         12.5004
 98  6 18 20 19 15.0020000  0  7G 5G 6G30G10G17G26G23
  25012684.9634   13525948.17545  10418746.92645                  25012694.4714
         8.0004          6.7504
  21125700.0964     407529.19147    342987.40147                  21125705.9434
        24.5004         26.7504
  22947099.2444   10672814.92947   8237985.65546                  22947105.5254
        24.5004         22.2504
  23400001.9244   10538237.76646   8141283.02146                  23400008.5214
        18.0004         12.7504
  22335493.6664    -689965.18647   -501626.99647                  22335500.5374
        25.5004         26.0004
  23868577.9794   -2561523.41746  -1910055.47946                  23868585.1894
        15.0004         13.5004
  24107779.7294   -3263439.14546  -2421258.21846                  24107788.1584
        13.5004         12.7504
 98  6 18 20 19 30.0020000  0  7G 5G 6G30G10G17G26G23
  25027533.2054   13603975.13245  10479547.04845                  25027544.6934
         8.0004          8.2504
  21127960.9864     419410.81547    352245.81247                  21127966.5294
        25.2504         26.7504
  22960339.0254   10742392.00347   8292201.51846                  22960345.6934
        23.2504         21.7504
  23413017.1274   10606633.88446   8194578.70245                  23413022.6464
        16.7504         11.0004
  22336185.4944    -686330.36147   -498794.65447                  22336192.4364
        26.0004         26.2504
  23866378.9864   -2573075.53646  -1919057.07646                  23866385.9514
        14.0004         13.2504
  24103272.9714   -3287121.76246  -2439712.18046                  24103282.2444
        13.5004         13.2504
 98  6 18 20 19 45.0020000  0  7G 5G 6G30G10G17G26G23
  25042382.4004   13682002.84145  10540347.76645                  25042392.0964
         8.7504          9.0004
  21130241.3464     431393.58347    361583.03047                  21130247.1584
        25.0004         27.0004
  22973595.1824   10812052.00747   8346481.99946                  22973601.4514
        23.2504         21.7504
  23426046.5104   10675102.06246   8247930.54145                  23426051.9364
        16.0004         10.7504
  22336886.9164    -682643.21947   -495921.55547                  22336893.4794
        25.5004         26.2504
  23864194.9864   -2584553.63346  -1928000.99946                  23864202.8074
        14.2504         13.2504
  24098777.1194   -3310747.92746  -2458122.12746                  24098786.1114
        13.2504         13.2504
 98  6 18 20 20  0.0020000  0  7G 5G 6G30G10G17G26G23
  25057229.1744   13760025.58545  10601144.60545                  25057239.4204
         9.2504          8.7504
  21132540.7134     443477.76747    370999.27847                  21132546.6664
        25.5004         27.5004
  22986865.7754   10881790.46347   8400823.62446                  22986872.1274
        22.7504         21.7504
  23439087.9794   10743636.73146   8301334.18445                  23439093.7684
        16.7504         11.0004
  22337598.4244    -678905.35547   -493008.93247                  22337604.7404
        27.0004         27.0004
  23862025.0884   -2595955.96746  -1936885.86246                  23862032.6624
        14.0004         13.2504
  24094291.5884   -3334320.72246  -2476490.47846                  24094299.6434
        13.5004         13.0004
 98  6 18 20 20 15.0020000  0  7G 5G 6G30G10G17G26G23
  25072076.4474   13838047.94045  10661941.17045                  25072087.5374
         9.0004          9.0004
  21134861.7364     455673.99247    380502.82447                  21134867.4674
        25.7504         27.5004
  23000152.0574   10951610.13847   8455228.51746                  23000158.6544
        23.5004         22.0004
  23452143.1584   10812243.05546   8354793.62945                  23452149.0184
        14.0004         10.0004
  22338321.2444    -675106.28447   -490048.60947                  22338327.6314
        26.5004         26.5004
  23859871.0574   -2607276.64246  -1945707.12946                  23859879.3224
        14.0004         13.5004
  24089817.0024   -3357831.65946  -2494810.64946                  24089825.7254
        12.7504         13.0004
 98  6 18 20 20 30.0020000  0  7G 5G 6G30G10G17G26G23
  25086925.0334   13916078.14045  10722743.84745                  25086936.6864
         9.2504          9.5004
  21137206.3304     467996.20047    390104.54847                  21137211.8964
        26.7504         27.7504
  23013455.2994   11021518.45247   8509702.50246                  23013461.4284
        23.0004         21.5004
  23465214.4714   10880932.40846   8408317.75945                  23465220.0374
        15.0004          9.7504
  22339058.7684    -671231.93547   -487029.63147                  22339065.5184
        26.7504         27.0004
  23857733.9084   -2618504.99546  -1954456.43146                  23857741.1664
        14.0004         13.5004
  24085357.9394   -3381266.00246  -2513071.12946                  24085366.8964
        12.2504         12.7504
 98  6 18 20 20 45.0020000  0  7G 5G 6G30G10G17G26G23
  25101772.4554   13994102.62945  10783542.05745                  25101781.8934
         9.0004          8.5004
  21139572.6194     480430.48147    399793.60047                  21139578.1744
        26.2504         27.7504
  23026772.2364   11091500.39847   8564233.84846                  23026778.9984
        23.0004         21.7504
  23478299.1824   10949692.45446   8461897.03245                  23478305.7094
        15.7504         10.7504
  22339807.6114    -667295.94047   -483962.61747                  22339814.2324
        27.0004         27.0004
  23855612.9634   -2629654.99446  -1963144.67446                  23855620.8654
        14.2504         13.7504
  24080911.1114   -3404633.17846  -2531279.25946                  24080919.9754
        12.7504         13.5004
 98  6 18 20 21  0.0020000  0  7G 5G 6G30G10G17G26G23
  25116618.7364   14072120.83145  10844335.40045                  25116628.1624
         8.7504          8.7504
  21141960.1434     492976.53147    409569.74147                  21141965.8964
        26.2504         28.0004
  23040103.7364   11161557.89747   8618824.07146                  23040110.1584
        22.7504         21.5004
  23491397.9794   11018527.61746   8515534.77945                  23491404.6934
        15.2504         11.5004
  22340568.4084    -663297.40247   -480846.86447                  22340575.0294
        27.2504         27.0004
  23853506.4794   -2640722.94646  -1971769.00846                  23853513.8654
        14.5004         14.0004
  24076477.3544   -3427931.48345  -2549433.74946                  24076486.2754
        11.7504         13.0004
 98  6 18 20 21 15.0020000  0  7G 5G 6G30G10G17G26G23
  25131464.2914   14150132.79545  10905123.86745                  25131474.0214
         8.5004          9.2504
  21144368.0414     505630.87447    419430.26847                  21144373.9594
        26.5004         28.2504
  23053449.6434   11231689.47047   8673472.02446                  23053456.0534
        22.0004         21.2504
  23504511.4004   11087437.25946   8569230.55945                  23504517.6464
        16.5004         11.5004
  22341340.7364    -659239.63347   -477684.95747                  22341347.2644
        27.2504         27.0004
  23851415.2914   -2651710.54446  -1980330.70946                  23851422.9124
        14.2504         14.0004
  24072056.6504   -3451161.85345  -2567535.28846                  24072066.6624
        11.5004         12.5004
 98  6 18 20 21 30.0020000  0  7G 5G 6G30G10G17G26G23
  25146309.2294   14228145.79745  10965913.13145                  25146320.3304
         7.5004          9.5004
  21146796.7684     518393.34747    429375.04847                  21146802.7444
        26.2504         28.2504
  23066809.4474   11301897.30847   8728179.40146                  23066816.2564
        21.5004         21.0004
  23517639.4554   11156425.25146   8622987.43046                  23517645.1504
        16.5004         12.0004
  22342124.7604    -655118.88547   -474473.97147                  22342131.1234
        26.7504         27.0004
  23849339.9244   -2662616.19546  -1988828.54846                  23849347.1584
        14.5004         13.7504
  24067649.9554   -3474320.77245  -2585581.13146                  24067658.8544
        11.5004         12.2504
 98  6 18 20 21 45.0020000  0  8G 5G 6G30G10G22G17G26G23
  25161154.5724   14306155.20045  11026699.55345                  25161166.2604
         7.7504          9.0004
  21149244.4324     531255.96547    439397.86747                  21149250.4324
        26.7504         28.5004
  23080183.0184   11372174.84347   8782941.06746                  23080189.7094
        21.5004         20.7504
  23530781.2524   11225487.61446   8676802.24846                  23530787.1584
        16.7504         12.0004
  25337383.0884      -9688.10745
         8.0004
  22342920.4164    -650936.86847   -471215.25247                  22342926.5684
        27.0004         27.0004
  23847279.0104   -2673445.64246  -1997267.03446                  23847286.8304
        13.5004         13.7504
  24063256.1434   -3497410.99346  -2603573.48346                  24063264.6894
        12.2504         12.7504
 98  6 18 20 22  0.0020000  0  8G 5G 6G30G10G22G17G26G23
  25176000.1744   14384165.37645  11087486.60145                  25176011.2754
         9.2504          9.7504
  21151712.2214     544224.34747    449503.09747                  21151718.1624
        27.0004         28.7504
  23093570.6824   11442527.26547   8837761.12046                  23093576.9394
        21.5004         20.7504
  23543939.4794   11294631.82146   8730680.82446                  23543945.6784
        17.5004         12.0004
  25335427.5024     -19964.56645
         8.0004
  22343729.9004    -646684.10047   -467901.40447                  22343735.9244
        27.0004         26.2504
  23845233.9004   -2684192.63146  -2005641.25346                  23845241.9674
        14.0004         13.7504
  24058876.2684   -3520425.54045  -2621506.84746                  24058886.0104
        11.7504         12.2504
 98  6 18 20 22 15.0020000  0  8G 5G 6G30G10G22G17G26G23
  25190843.5494   14462169.00945  11148268.57845                  25190855.0374
         9.5004          9.5004
  21154199.0964     557293.03147    459686.47347                  21154205.0494
        27.5004         29.0004
  23106971.1894   11512947.56247   8892634.03046                  23106978.0964
        20.7504         20.5004
  23557111.8854   11363854.49646   8784620.55445                  23557117.7444
        17.2504         11.7504
  25333491.4324     -30139.48245
         7.5004
  22344550.8774    -642369.47847   -464539.34947                  22344557.0414
        27.2504         26.5004
  23843202.9944   -2694866.48946  -2013958.49046                  23843210.6974
        14.2504         13.7504
  24054509.6894   -3543371.86846  -2639387.04846                  24054518.6704
        12.7504         12.7504
 98  6 18 20 22 30.0020000  0  8G 5G 6G30G10G22G17G26G23
  25205686.1434   14540165.99245  11209045.36545                  25205697.4434
         9.2504          9.0004
  21156704.3614     570457.57248    469944.55547                  21156710.3734
        28.0004         29.2504
  23120384.9244   11583436.96747   8947560.80646                  23120391.4514
        21.5004         20.5004
  23570299.0024   11433155.41046   8838621.26745                  23570304.7094
        16.2504         11.5004
  25331574.2294     -40215.42645      -521.22455                  25331582.0144
         8.0004          7.0004
  22345382.9244    -637995.87848   -461131.34047                  22345389.0294
        28.0004         26.7504
  23841184.9084   -2705469.32046  -2022220.37546                  23841192.7994
        14.0004         14.0004
  24050156.3144   -3566248.73046  -2657213.15346                  24050164.4394
        12.7504         13.2504
 98  6 18 20 22 45.0020000  0  8G 5G 6G30G10G22G17G26G23
  25220528.4944   14618165.12845  11269823.83545                  25220539.9824
         9.0004          8.7504
  21159228.0414     583720.41747    480279.23847                  21159234.1114
        27.7504         29.2504
  23133813.4554   11654004.60947   9002548.55146                  23133820.2524
        21.2504         20.7504
  23583502.8854   11502540.25446   8892687.33645                  23583509.2254
        17.2504         11.7504
  25329676.4944     -50185.55245     -8290.16145                  25329683.7294
         8.2504          7.0004
  22346227.2834    -633560.90948   -457675.51447                  22346233.7294
        28.7504         27.2504
  23839181.7364   -2715997.71446  -2030424.26346                  23839189.4514
        14.5004         14.2504
  24045817.2364   -3589051.63246  -2674981.60746                  24045825.7834
        13.2504         13.0004
 98  6 18 20 23  0.0020000  0  8G 5G 6G30G10G22G17G26G23
  25235371.2914   14696164.78245  11330602.68545                  25235381.3034
         8.5004          8.7504
  21161769.3144     597074.19948    490684.78047                  21161775.4434
        28.0004         29.5004
  23147256.1744   11724645.59247   9057593.45246                  23147262.9594
        21.0004         20.7504
  23596721.2994   11572004.47546   8946815.29645                  23596727.9674
        17.0004         11.7504
  25327799.2834     -60052.12945    -15978.39645                  25327805.5884
         9.0004          7.7504
  22347082.1114    -629067.73948   -454174.33847                  22347088.4864
        29.0004         27.2504
  23837191.6434   -2726455.64246  -2038573.25146                  23837198.9244
        14.5004         14.5004
  24041490.6354   -3611787.86246  -2692698.10346                  24041498.9944
        14.0004         13.5004
 98  6 18 20 23 15.0020000  0  8G 5G 6G30G10G22G17G26G23
  25250213.1664   14774157.93945  11391376.51445                  25250223.6704
         9.5004          9.2504
  21164326.7364     610514.31547    501157.59547                  21164332.8774
        27.7504         29.7504
  23160711.0884   11795352.77847   9112689.92246                  23160717.7094
        21.2504         20.7504
  23609953.0254   11641538.93346   9000997.97145                  23609958.3814
        15.2504         10.7504
  25325940.6504     -69819.91445    -23589.63245                  25325949.2794
         9.2504          8.5004
  22347946.9324    -624522.65348   -450632.70447                  22347953.3654
        28.7504         27.7504
  23835214.0104   -2736849.77346  -2046672.51546                  23835221.5614
        14.7504         13.7504
  24037175.1744   -3634466.58346  -2710369.79946                  24037183.4394
        13.5004         13.5004
 98  6 18 20 23 30.0020000  0  8G 5G 6G30G10G22G17G26G23
  25265055.3384   14852156.04345  11452154.19045                  25265065.7484
         8.2504          8.2504
  21166903.0804     624052.53648    511706.85647                  21166909.1154
        28.2504         29.7504
  23174180.2684   11866133.83447   9167843.96546                  23174187.1394
        21.0004         20.5004
  23623199.6354   11711148.54846   9055239.20145                  23623206.3964
        16.2504         11.5004
  25324102.6114     -79478.48945    -31115.79545                  25324108.7994
         9.5004          8.0004
  22348823.4324    -619916.55348   -447043.53347                  22348829.8304
        28.5004         27.5004
  23833249.4944   -2747170.48146  -2054714.58546                  23833257.1744
        14.7504         13.7504
  24032872.4084   -3657076.90646  -2727988.18746                  24032881.3074
        13.7504         13.2504
 98  6 18 20 23 45.0020000  0  8G 5G 6G30G10G22G17G26G23
  25279898.7364   14930157.80345  11512934.74945                  25279910.4364
         7.7504          8.0004
  21169498.5184     637691.58048    522334.67747                  21169504.4594
        28.5004         30.0004
  23187663.5574   11936988.09147   9223055.03546                  23187670.6624
        20.0004         20.2504
  23636459.9474   11780831.71546   9109537.75845                  23636466.9124
        15.7504         11.7504
  25322285.6274     -89024.73345    -38554.39345                  25322293.5534
         9.7504          9.0004
  22349711.2444    -615251.35048   -443408.30047                  22349718.1044
        28.2504         27.7504
  23831299.3304   -2757418.24546  -2062699.80546                  23831306.3654
        14.7504         13.7504
  24028582.8464   -3679617.75746  -2745552.45146                  24028590.8074
        13.2504         13.7504
 98  6 18 20 24  0.0020000  0  8G 5G 6G30G10G22G17G26G23
  25294742.1824   15008162.61044  11573717.58745                  25294751.5724
         6.5004          7.2504
  21172113.5644     651434.36648    533043.33347                  21172119.4244
        28.7504         30.0004
  23201160.6824   12007915.99747   9278323.49646                  23201167.9284
        20.2504         20.0004
  23649733.8934   11850587.91046   9163893.20646                  23649741.7604
        14.7504         12.0004
  25320490.2294     -98458.89945    -45905.68745                  25320497.9084
         9.0004          9.2504
  22350610.2444    -610526.99048   -439726.96247                  22350617.0414
        28.5004         27.5004
  23829363.2994   -2767593.18146  -2070628.28446                  23829370.5334
        14.7504         14.2504
  24024306.7134   -3702088.24546  -2763061.87546                  24024315.9284
        13.0004         13.7504
 98  6 18 20 24 15.0020000  0  8G 5G 6G30G10G22G17G26G23
  25309585.6114   15086165.58143  11634499.04345                  25309595.5414
         6.0004          7.0004
  21174747.8934     665276.97648    543829.78147                  21174753.7644
        28.7504         29.7504
  23214670.5334   12078910.44247   9333643.81146                  23214677.6624
        20.2504         20.2504
  23663021.0574   11920411.58746   9218301.24546                  23663028.1624
        15.0004         12.0004
  25318715.5184    -107786.99745    -53174.34145                  25318723.0924
         9.2504          8.7504
  22351519.0414    -605751.40748   -436005.72347                  22351525.6744
        28.2504         27.0004
  23827439.7214   -2777701.78246  -2078505.06746                  23827446.8964
        14.5004         14.5004
  24020042.6824   -3724495.39446  -2780521.94246                  24020051.8854
        13.0004         14.2504
 98  6 18 20 24 30.0020000  0  8G 5G 6G30G10G22G17G26G23
  25324429.0104   15164170.16443  11695281.77945                  25324440.8964
         5.0004          6.5004
  21177400.4864     679216.64248    554691.85747                  21177406.4514
        29.2504         30.0004
  23228193.2994   12149972.45247   9389016.77046                  23228200.1314
        20.5004         20.2504
  23676320.4714   11990301.45146   9272760.87546                  23676328.0334
        15.2504         12.7504
  25316961.3074    -117009.40245    -60360.61745                  25316967.6464
         9.2504          9.0004
  22352437.7294    -600922.96547   -432243.30247                  22352444.1744
        27.7504         27.0004
  23825528.4244   -2787743.63646  -2086329.82546                  23825535.7294
        14.0004         14.0004
  24015791.0414   -3746838.96746  -2797932.48346                  24015800.6194
        13.0004         14.2504
 98  6 18 20 24 45.0020000  0  8G 5G 6G30G10G22G17G26G23
  25339272.2444   15242171.29544  11756061.72345                  25339283.7564
         6.5004          7.5004
  21180070.0644     693245.91248    565623.75547                  21180076.1704
        29.0004         29.7504
  23241727.6584   12221094.59147   9444436.58746                  23241734.4904
        21.0004         19.7504
  23689631.1434   12060248.71746   9327265.19946                  23689639.1504
        15.2504         13.0004
  25315225.5804    -126131.24545    -67468.55645                  25315232.4514
         9.2504          9.5004
  22353365.7294    -596046.22347   -428443.23247                  22353372.2684
        26.7504         26.7504
  23823630.0024   -2797721.77246  -2094104.95646                  23823637.2254
        14.5004         14.2504
  24011549.3224   -3769127.85346  -2815300.38746                  24011558.1044
        12.7504         14.2504
 98  6 18 20 25  0.0020000  0  8G 5G 6G30G10G22G17G26G23
  25354117.8854   15320178.87144  11816846.78245                  25354130.1464
         7.0004          8.0004
  21182759.0494     707376.90948    576634.91747                  21182765.0024
        29.0004         29.5004
  23255273.7834   12292282.00247   9499907.26446                  23255280.8544
        20.2504         19.7504
  23702954.7134   12130261.87746   9381820.86346                  23702962.1004
        15.2504         13.0004
  25313509.6114    -135144.35345    -74491.73645                  25313516.8934
         9.2504          9.7504
  22354304.5804    -591111.76447   -424598.19147                  22354311.1074
        26.7504         26.5004
  23821745.4944   -2807623.78446  -2101820.76946                  23821753.0574
        14.2504         15.0004
  24007319.5964   -3791355.48346  -2832620.57246                  24007328.0724
        12.7504         14.2504
 98  6 18 20 25 15.0020000  0  8G 5G 6G30G10G22G17G26G23
  25368963.1744   15398194.61444  11877638.18145                  25368973.6434
         6.2504          7.2504
  21185468.5334     721615.12748    587729.63847                  21185474.4514
        29.0004         29.2504
  23268833.2214   12363537.65547   9555431.11946                  23268840.0924
        21.0004         20.0004
  23716290.5964   12200342.99246   9436429.50446                  23716297.7954
        16.2504         13.0004
  25311815.2834    -144045.49945    -81427.68745                  25311824.1464
         9.7504          9.7504
  22355254.4944    -586119.36747   -420708.00447                  22355261.0574
        26.2504         26.5004
  23819877.1434   -2817441.22846  -2109470.67046                  23819885.1744
        13.5004         14.5004
  24003101.5884   -3813519.12446  -2849890.89546                  24003110.3344
        12.2504         14.7504
 98  6 18 20 25 30.0020000  0  8G 5G 6G30G10G22G17G26G23
  25383809.1194   15476210.96543  11938430.07045                  25383818.4514
         5.7504          5.7504
  21188197.3304     735955.16348    598903.68847                  21188203.2134
        29.5004         29.5004
  23282404.8934   12434856.16947   9611003.95446                  23282411.9164
        20.5004         19.7504
  23729637.2444   12270482.60346   9491083.72946                  23729644.2684
        14.7504         12.7504
  25310142.0104    -152841.67145    -88281.82945                  25310149.7364
        10.0004          9.7504
  22356213.4394    -581079.28547   -416780.65647                  22356220.0964
        26.0004         26.0004
  23818023.8144   -2827180.73346  -2117059.83346                  23818031.7054
        14.0004         15.0004
  23998895.4324   -3835624.31646  -2867115.65446                  23998904.1074
        12.5004         14.2504
 98  6 18 20 25 45.0020000  0  8G 5G 6G30G10G22G17G26G23
  25398655.2994   15554227.58042  11999222.10244                  25398661.7444
         3.7504          4.2504
  21190945.0024     750393.99448    610154.72747                  21190950.9204
        29.7504         29.5004
  23295987.7994   12506236.65046   9666625.07946                  23295994.5964
        19.7504         19.2504
  23742996.0414   12340682.65146   9545785.02546                  23743003.6864
        15.0004         12.7504
  25308487.9554    -161531.52945    -95053.15445                  25308495.4244
         9.2504          9.2504
  22357181.2994    -575994.00947   -412818.09647                  22357187.8264
        26.5004         25.7504
  23816185.4944   -2836841.68546  -2124587.78346                  23816193.3854
        14.2504         14.5004
  23994700.4864   -3857669.58345  -2884293.73546                  23994709.1504
        11.7504         14.0004
 98  6 18 20 26  0.0020000  0  8G 5G 6G30G10G22G17G26G23
  25413499.8934   15632233.96041  12060006.20742                  25413504.5334
         2.7504          2.2504
  21193709.8384     764922.15748    621475.37547                  21193715.7564
        29.7504         29.5004
  23309582.0884   12577672.90846   9722289.66346                  23309589.2404
        19.5004         19.5004
  23756365.2994   12410937.94046   9600529.37046                  23756372.9904
        15.0004         12.7504
  25306852.9944    -170124.50245   -101748.98045                  25306861.1784
         8.7504          9.0004
  22358156.0884    -570870.72447   -408825.93647                  22358162.4984
        26.0004         26.0004
  23814360.8774   -2846428.58346  -2132058.06046                  23814368.7564
        13.5004         14.2504
  23990515.2444   -3879661.38046  -2901430.13446                  23990524.0254
        12.0004         14.2504
 98  6 18 20 26 15.0030000  0  8G 5G 6G30G10G22G17G26G23
  25428343.8194   15710240.63741
         2.0004
  21196492.7804     779547.58148    632871.80747                  21196498.7454
        30.0004         29.2504
  23323188.5934   12649177.37346   9778007.39246                  23323195.8044
        19.0004         19.0004
  23769747.0624   12481259.27946   9655325.19746                  23769753.9444
        15.2504         12.0004
  25305237.0934    -178616.95145   -108366.43445                  25305245.4644
        10.5004          9.7504
  22359139.9684    -565701.57447   -404798.01847                  22359146.1324
        25.7504         25.7504
  23812552.6164   -2855931.46646  -2139462.85746                  23812561.0224
        13.2504         14.2504
  23986341.4834   -3901594.27546  -2918520.65546                  23986350.3944
        12.0004         14.2504
 98  6 18 20 26 30.0030000  0  7G 6G30G10G22G17G26G23
  21199293.8664     794267.33948    644341.74947                  21199299.7144
        30.0004         29.5004
  23336807.4834   12720742.60247   9833772.45646                  23336814.6244
        20.2504         19.5004
  23783139.2724   12551637.02946   9710164.99645                  23783146.4374
        15.2504         11.7504
  25303640.1794    -187007.17945   -114904.26345                  25303646.9294
         9.5004          9.5004
  22360132.3434    -560486.18247   -400734.07547                  22360138.6124
        26.0004         25.7504
  23810761.0224   -2865345.53846  -2146798.44146                  23810768.0344
        14.0004         14.0004
  23982179.7264   -3923465.91446  -2935563.42846                  23982189.1044
        12.7504         14.2504
 98  6 18 20 26 45.0030000  0  7G 6G30G10G22G17G26G23
  21202114.2264     809087.26048    655889.74247                  21202119.9564
        30.2504         29.5004
  23350438.6014   12792376.04746   9889590.69346                  23350445.6714
        19.5004         19.7504
  23796544.4054   12622078.40446   9765054.35745                  23796550.6284
        16.0004         11.7504
  25302064.1324    -195291.59745   -121359.65345                  25302070.2024
         9.7504          9.5004
  22361134.2724    -555222.29747   -396632.34747                  22361140.4014
        25.2504         25.7504
  23808987.2494   -2874666.12146  -2154061.20446                  23808994.0814
        13.2504         13.7504
  23978029.8194   -3945274.35046  -2952556.97446                  23978038.5774
        13.5004         14.2504
 98  6 18 20 27  0.0030000  0  7G 6G30G10G22G17G26G23
  21204954.2104     824012.22648    667519.58547                  21204960.0934
        30.7504         29.5004
  23364083.1474   12864078.18047   9945462.42946                  23364090.2654
        20.2504         20.0004
  23809961.3044   12692586.57546   9819995.77146                  23809967.4914
        15.5004         12.0004
  25300507.5224    -203471.85645   -127733.88245                  25300513.3004
        10.0004          9.7504
  22362144.7184    -549912.05247   -392494.48047                  22362151.2224
        25.0004         25.7504
  23807231.1634   -2883893.28746  -2161251.10246                  23807238.4794
        13.0004         13.5004
  23973892.0934   -3967018.08346  -2969500.10146                  23973900.3944
        13.2504         14.2504
 98  6 18 20 27 15.0030000  0  7G 6G30G10G22G17G26G23
  21207813.7884     839039.61148    679229.24347                  21207819.6944
        30.2504         29.2504
  23377740.5544   12935848.20647  10001387.10546                  23377747.2454
        20.2504         20.0004
  23823391.1634   12763161.14946   9874988.92346                  23823397.4914
        16.2504         12.0004
  25298969.7574    -211551.64145   -134029.80345                  25298978.7144
         9.7504          9.7504
  22363163.5774    -544557.58747   -388322.16246                  22363169.9874
        25.0004         25.2504
  23805492.5464   -2893029.84946  -2168370.46046                  23805500.8474
        12.7504         13.5004
  23969766.5304   -3988696.94646  -2986392.68146                  23969775.0544
        13.2504         14.2504
 98  6 18 20 27 30.0030000  0  7G 6G30G10G22G17G26G23
  21210693.3274     854171.99248    691020.71447                  21210699.2694
        30.0004         29.2504
  23391411.8434   13007690.73546  10057368.25546                  23391419.0894
        19.7504         20.0004
  23836835.1794   12833807.78846   9930038.22545                  23836840.8044
        16.0004         11.5004
  25297453.0074    -219524.29245   -140242.26545                  25297460.3824
         9.7504          9.0004
  22364192.3584    -539150.93647   -384109.18046                  22364198.6874
        24.7504         25.0004
  23803771.8744   -2902073.37846  -2175417.31346                  23803779.4724
        13.0004         13.7504
  23965654.3664   -4010304.86346  -3003229.98146                  23965663.1944
        12.7504         14.0004
 98  6 18 20 27 45.0030000  0  7G 6G30G10G22G17G26G23
  21213593.1554     869409.99448    702894.47247                  21213599.1204
        30.7504         29.5004
  23405096.0774   13079601.85547  10113402.85246                  23405103.2764
        20.0004         20.0004
  23850292.1474   12904526.37446   9985143.59946                  23850298.9334
        16.5004         12.7504
  25295955.5074    -227392.79245   -146373.55145                  25295964.1124
        10.0004          9.2504
  22365231.4374    -533689.59247   -379853.59346                  22365238.2694
        23.5004         25.0004
  23802068.3194   -2911025.11946  -2182392.63146                  23802076.6554
        12.7504         14.0004
  23961556.3274   -4031840.75246  -3020011.15146                  23961564.4874
        13.0004         14.2504
 98  6 18 20 28  0.0030000  0  7G 6G30G10G22G17G26G23
  21216512.3434     884751.09048    714848.58047                  21216518.3194
        31.0004         29.5004
  23418792.3124   13151578.19846  10169488.28546                  23418799.3824
        19.5004         19.5004
  23863762.4764   12975314.50046  10040303.15946                  23863770.5424
        15.5004         12.2504
  25294477.6244    -235161.68745   -152427.26045                  25294484.8124
         9.7504          9.0004
  22366281.0154    -528173.64147   -375555.44646                  22366288.0154
        23.0004         24.5004
  23800381.9524   -2919887.91546  -2189298.66346                  23800388.9764
        13.0004         13.7504
  23957471.1164   -4053308.36746  -3036739.11846                  23957479.5694
        12.0004         14.0004
 98  6 18 20 28 15.0030000  0  7G 6G30G10G22G17G26G23
  21219452.0464     900200.21548    726886.86147                  21219457.9524
        30.7504         29.5004
  23432501.8354   13223620.71446  10225625.25946                  23432509.1634
        18.5004         19.2504
  23877246.1084   13046169.71746  10095514.97946                  23877252.5774
        15.7504         12.0004
  25293016.6634    -242832.53845   -158404.57545                  25293023.7804
         9.5004          9.0004
  22367342.2184    -522598.03547   -371210.81646                  22367349.1834
        23.5004         24.7504
  23798712.6244   -2928660.60746  -2196134.48246                  23798719.7654
        13.0004         13.5004
  23953398.9054   -4074708.10246  -3053414.17646                  23953407.6754
        12.0004         13.2504
 98  6 18 20 28 30.0030000  0  7G 6G30G10G22G17G26G23
  21222414.0854     915765.72848    739015.83447                  21222420.0624
        30.0004         29.5004
  23446224.8584   13295734.31246  10281817.63246                  23446231.9644
        19.5004         18.7504
  23890743.5694   13117099.26846  10150784.74645                  23890749.8624
        15.0004         11.7504
  25291578.3354    -250394.04945   -164296.65945                  25291586.4954
         8.5004          8.2504
  22368416.5074    -516951.88747   -366811.21846                  22368423.5194
        22.5004         24.5004
  23797060.4684   -2937338.26646  -2202896.24046                  23797068.3354
        12.5004         13.0004
  23949340.7964   -4096032.54545  -3070030.60046                  23949349.5424
        11.7504         13.5004
 98  6 18 20 28 45.0030000  0  7G 6G30G10G22G17G26G23
  21225396.2804     931436.91048    751227.14747                  21225402.1634
        31.2504         29.7504
  23459958.8434   13367908.61746  10338057.32146                  23459965.6164
        18.5004         18.2504
  23904253.1404   13188093.54446  10206104.94445                  23904259.6084
        14.7504         11.7504
  25290158.9214    -257852.46145   -170108.36145                  25290165.0504
         8.2504          8.5004
  22369502.5154    -511243.99147   -362363.50146                  22369509.6444
        21.5004         24.5004
  23795426.0544   -2945929.88846  -2209590.94846                  23795433.8744
        12.5004         13.5004
  23945295.6014   -4117288.99845  -3086594.03346                  23945305.0734
        11.5004         14.2504
 98  6 18 20 29  0.0030000  0  7G 6G30G10G22G17G26G23
  21228396.3274     947202.32648    763511.88147                  21228402.2224
        30.7504         29.5004
  23473702.9054   13440131.42646  10394334.80646                  23473709.5264
        19.2504         18.2504
  23917773.0304   13259138.96746  10261464.98446                  23917780.1944
        15.0004         12.0004
  25288757.9134    -265217.15445   -175847.06045                  25288765.3704
         9.5004          7.7504
  22370597.8974    -505486.49647   -357877.12846                  22370605.2374
        22.0004         24.5004
  23793804.2964   -2954449.05045  -2216229.18946                  23793811.7884
        11.7504         13.2504
  23941261.8664   -4138488.85346  -3103113.33346                  23941271.2224
        12.2504         13.5004
 98  6 18 20 29 15.0030000  0  7G 6G30G10G22G17G26G23
  21231416.2964     963072.99648    775878.63647                  21231422.2724
        30.2504         29.2504
  23487458.3744   13512417.37847  10450661.49746                  23487465.3974
        20.0004         18.7504
  23931303.4134   13330245.43046  10316872.56945                  23931309.5544
        15.2504         11.5004
  25287377.2494    -272471.49945   -181499.81945                  25287385.1874
         9.0004          7.7504
  22371706.7654    -499662.31947   -353338.80046                  22371714.0114
        21.7504         24.5004
  23792199.7884   -2962880.73545  -2222799.29046                  23792207.5154
        11.7504         13.5004
  23937240.6554   -4159618.67346  -3119578.07746                  23937249.0624
        12.5004         14.5004
 98  6 18 20 29 30.0030000  0  7G 6G30G10G22G17G26G23
  21234456.2654     979047.86748    788326.59347                  21234462.2414
        30.2504         29.2504
  23501225.2494   13584763.83446  10507035.31746                  23501231.9294
        19.5004         18.5004
  23944845.2804   13401407.98346  10372323.89345                  23944851.8084
        14.0004         11.2504
  25286018.2964    -279611.20245   -187063.22345                  25286025.3434
         8.2504          6.7504
  22372827.3974    -493771.43247   -348748.49046                  22372834.7374
        22.0004         24.7504
  23790612.0694   -2971224.62645  -2229300.95646                  23790620.2764
        11.7504         13.0004
  23933233.2724   -4180678.84346  -3135988.52346                  23933242.1014
        13.5004         15.2504
 98  6 18 20 29 45.0030000  0  7G 6G30G10G22G17G26G23
  21237516.1944     995127.75748    800856.37447                  21237522.2654
        30.7504         29.5004
  23515003.5774   13657168.38647  10563454.41046                  23515010.2694
        20.2504         18.5004
  23958396.1404   13472618.39346  10427812.49945                  23958403.0694
        14.7504         11.2504
  25284680.6244    -286639.76845   -192540.06845                  25284689.0894
         7.7504          6.5004
  22373960.5464    -487818.80147   -344110.07746                  22373967.5224
        23.5004         25.0004
  23789040.2574   -2979482.89146  -2235735.91546                  23789048.0774
        12.2504         13.5004
  23929238.1944   -4201672.31046  -3152347.01446                  23929246.8474
        14.5004         15.5004
 98  6 18 20 30  0.0030000  0  7G 6G30G10G22G17G26G23
  21240597.8274    1011320.22648    813473.88647                  21240603.7924
        30.0004         29.0004
  23528794.6714   13729640.85047  10619926.42146                  23528801.6014
        20.0004         19.0004
  23971958.1714   13543883.96046  10483344.09346                  23971965.4994
        14.7504         12.0004
  25283366.6244    -293548.61745   -197923.57845                  25283375.4174
         8.2504          7.0004
  22375106.4134    -481797.75747   -339418.34846                  22375113.1044
        23.5004         25.2504
  23787486.7414   -2987647.57246  -2242097.95446                  23787494.3974
        13.0004         13.7504
  23925257.6874   -4222590.39046  -3168646.76946                  23925266.0584
        14.0004         15.2504
 98  6 18 20 30 15.0030000  0  7G 6G30G10G22G17G26G23
  21243698.1874    1027613.81048    826170.18047                  21243704.2454
        30.2504         29.0004
  23542596.8194   13802172.41946  10676444.49446                  23542603.9604
        19.7504         18.7504
  23985528.0384   13615195.40546  10538911.41845                  23985534.5304
        15.2504         11.5004
  25282072.9524    -300345.58845   -203219.92945                  25282080.1984
         8.0004          7.2504
  22376262.9994    -475719.34747   -334681.93646                  22376269.4794
        24.5004         25.2504
  23785948.7804   -2995729.91646  -2248395.83146                  23785956.3784
        13.7504         14.5004
  23921289.1474   -4243443.77946  -3184896.12346                  23921297.4484
        14.5004         15.5004
 98  6 18 20 30 30.0030000  0  7G 6G30G10G22G17G26G23
  21246817.0304    1044004.40048    838942.07547                  21246823.0194
        30.2504         28.7504
  23556410.1164   13874759.40846  10733005.73746                  23556417.2694
        19.7504         19.5004
  23999106.6404   13686550.43246  10594512.70646                  23999112.9794
        14.7504         12.0004
  25280799.8974    -307032.69145   -208430.68845                  25280805.9684
         7.7504          7.2504
  22377429.8664    -469590.11647   -329905.90546                  22377436.0654
        25.0004         25.5004
  23784425.8824   -3003734.53846  -2254633.15346                  23784433.5264
        14.5004         14.7504
  23917332.8744   -4264235.56546  -3201097.44346                  23917341.6794
        14.5004         15.2504
 98  6 18 20 30 45.0030000  0  7G 6G30G10G22G17G26G23
  21249955.4604    1060496.72648    851793.23347                  21249961.4014
        30.2504         28.7504
  23570234.7804   13947408.89746  10789615.68746                  23570241.9914
        19.7504         19.7504
  24012695.4134   13757960.80446  10650157.13646                  24012701.9764
        15.5004         12.2504
  25279551.0304    -313600.11545   -213548.09545                  25279555.3664
         8.0004          6.5004
  22378606.0304    -463407.48847   -325088.26647                  22378612.6874
        25.2504         25.7504
  23782918.8824   -3011654.12246  -2260804.20946                  23782925.9174
        15.0004         15.5004
  23913389.3354   -4284957.02446  -3217243.98646                  23913397.2724
        14.5004         15.7504
 98  6 18 20 31  0.0030000  0  7G 6G30G10G22G17G26G23
  21253112.1794    1077084.80048    864719.00347                  21253118.0734
        30.0004         28.5004
  23584070.0934   14020114.08346  10846269.01946                  23584077.3624
        19.2504         19.5004
  24026293.1404   13829417.61846  10705837.74446                  24026300.2804
        14.5004         12.5004
  25278321.4994    -320059.68245   -218581.60245                  25278329.8704
         8.2504          6.7504
  22379790.6084    -457182.99647   -320238.00947                  22379797.3004
        25.2504         25.7504
  23781426.3824   -3019496.74046  -2266915.29646                  23781433.5934
        15.5004         15.5004
  23909457.8904   -4305618.71846  -3233343.96846                  23909466.2494
        14.7504         15.5004
 98  6 18 20 31 15.0030000  0  7G 6G30G10G22G17G26G23
  21256289.4134    1093780.30748    877728.49047                  21256295.1204
        30.5004         28.5004
  23597917.6714   14092883.84147  10902972.68446                  23597925.1984
        20.0004         20.5004
  24039902.3744   13900933.73846  10761564.54446                  24039909.6794
        15.0004         12.5004
  25277114.1634    -326404.74745   -223525.77345                  25277123.3664
         9.2504          7.5004
  22380985.2964    -450904.59147   -315345.74247                  22380991.9994
        26.2504         26.2504
  23779950.3824   -3027252.63746  -2272958.79946                  23779957.5224
        14.7504         15.2504
  23905538.7884   -4326211.36646  -3249390.13146                  23905547.2884
        14.0004         15.2504
 98  6 18 20 31 30.0030000  0  7G 6G30G10G22G17G26G23
  21259487.0304    1110585.10848    890823.14647                  21259492.7024
        30.7504         28.2504
  23611777.3274   14165716.61846  10959725.46446                  23611784.6444
        18.5004         19.7504
  24053523.4684   13972514.44846  10817341.68646                  24053530.9014
        14.7504         12.5004
  25275927.6554    -332638.18645   -228383.01745                  25275934.5974
         8.7504          7.0004
  22382189.7334    -444574.18847   -310412.95147                  22382196.4604
        26.2504         26.2504
  23778491.2264   -3034919.92546  -2278933.26046                  23778498.3314
        15.0004         15.2504
  23901634.2104   -4346732.80846  -3265380.81646                  23901642.3474
        13.5004         15.0004
 98  6 18 20 31 45.0030000  0  7G 6G30G10G22G17G26G23
  21262706.2964    1127501.90648    904005.06547                  21262712.2144
        29.5004         28.0004
  23625649.4524   14238612.93147  11016527.71746                  23625656.8744
        20.0004         20.2504
  24067158.3744   14044164.34046  10873172.75546                  24067165.7964
        15.7504         12.7504
  25274762.6794    -338763.12045   -233155.70445                  25274767.9054
         9.2504          7.5004
  22383404.1404    -438193.32447   -305440.83947                  22383410.5974
        26.5004         26.0004
  23777049.2024   -3042497.83846  -2284838.07346                  23777056.4484
        14.7504         15.0004
  23897742.8434   -4367181.24246  -3281314.61246                  23897750.9564
        14.0004         15.0004
 98  6 18 20 32  0.0030000  0  7G 6G30G10G22G17G26G23
  21265946.5384    1144529.64548    917273.43547                  21265952.3974
        30.2504         28.0004
  23639532.9684   14311572.52047  11073379.29946                  23639540.1084
        20.0004         20.2504
  24080807.2184   14115888.74046  10929061.87946                  24080815.1794
        15.0004         12.5004
  25273617.1404    -344779.46745   -237843.76045                  25273625.8744
         8.2504          7.7504
  22384628.3824    -431759.20747   -300427.22847                  22384634.5344
        26.7504         26.2504
  23775624.2334   -3049986.82146  -2290673.59446                  23775631.0074
        15.0004         15.0004
  23893865.2104   -4387555.55246  -3297190.64846                  23893873.0544
        13.5004         14.5004
 98  6 18 20 32 15.0030000  0  7G 6G30G10G22G17G26G23
  21269206.0304    1161659.74548    930621.56147                  21269211.9014
        30.5004         28.0004
  23653426.6014   14384584.25546  11130271.55346                  23653433.9054
        19.5004         19.7504
  24094469.5304   14187684.59446  10985006.64246                  24094477.9724
        15.2504         13.2504
  25272492.5774    -350692.73145   -242451.46845                  25272499.3974
         9.5004          8.0004
  22385862.0464    -425276.74948   -295375.96347                  22385868.0584
        28.0004         26.0004
  23774214.3904   -3057394.56546  -2296445.82046                  23774221.6014
        14.5004         15.2504
  23890001.5224   -4407862.21746  -3313013.97146                  23890010.2454
        13.7504         14.7504
 98  6 18 20 32 30.0030000  0  7G 6G30G10G22G17G26G23
  21272487.9684    1178905.04048    944059.45647                  21272493.8514
        30.0004         27.7504
  23667332.5624   14457659.13547  11187212.97346                  23667339.7844
        20.5004         20.2504
  24108147.0854   14259560.41246  11041013.75846                  24108154.1904
        15.5004         12.7504
  25271388.2654    -356491.77545   -246970.28645                  25271396.0974
         9.7504          8.2504
  22387106.7024    -418736.07748   -290279.32947                  22387112.7264
        28.7504         26.5004
  23772822.6404   -3064708.52446  -2302144.95946                  23772830.2374
        14.7504         15.5004
  23886151.8044   -4428090.69946  -3328776.38846                  23886160.3624
        13.7504         15.5004
 98  6 18 20 32 45.0030000  0  7G 6G30G10G22G17G26G23
  21275790.2184    1196258.75348    957581.82647                  21275796.1244
        29.7504         27.5004
  23681248.5384   14530788.73446  11244197.03246                  23681255.6554
        19.5004         19.7504
  24121838.2414   14331507.12446  11097076.10746                  24121845.8744
        17.5004         13.5004
  25270305.0624    -362183.64945   -251405.46745                  25270312.7294
         9.7504          8.5004
  22388361.3664    -412143.19148   -285142.00947                  22388367.4014
        28.7504         27.0004
  23771447.9374   -3071932.02346  -2307773.59346                  23771456.0734
        14.5004         16.2504
  23882316.8664   -4448245.08246  -3344481.04046                  23882325.4134
        13.7504         15.5004
 98  6 18 20 33  0.0030000  0  7G 6G30G10G22G17G26G23
  21279112.3514    1213716.51248    971185.26647                  21279118.3154
        29.7504         27.0004
  23695173.7104   14603965.71346  11301218.02446                  23695181.0384
        19.7504         19.5004
  24135540.2654   14403512.50846  11153184.17546                  24135546.8864
        16.2504         13.0004
  25269241.0854    -367775.87445   -255763.05245                  25269247.1794
         9.7504          8.2504
  22389624.7414    -405503.28548   -279968.04847                  22389630.9874
        29.0004         27.2504
  23770090.0694   -3079068.11546  -2313334.13546                  23770098.2184
        14.2504         16.0004
  23878493.9054   -4468332.66346  -3360133.64446                  23878501.7144
        14.5004         16.0004
 98  6 18 20 33 15.0030000  0  7G 6G30G10G22G17G26G23
  21282454.6084    1231280.75548    984871.68447                  21282460.6204
        28.7504         27.2504
  23709108.1794   14677192.26046  11358277.62646                  23709115.4374
        19.7504         19.5004
  24149253.1244   14475574.88846  11209336.65646                  24149260.4764
        15.7504         13.0004
  25268196.8354    -373266.20845   -260041.21045                  25268203.7884
        10.5004          9.2504
  22390898.1944    -398811.85548   -274753.92647                  22390904.2184
        28.5004         27.2504
  23768749.1324   -3086113.62246  -2318824.07646                  23768756.9644
        14.7504         16.7504
  23874684.1084   -4488352.54246  -3375733.51346                  23874691.9404
        13.2504         15.2504
 98  6 18 20 33 30.0030000  0  7G 6G30G10G22G17G26G23
  21285818.7414    1248958.69148    998646.69647                  21285824.6834
        29.7504         27.0004
  23723053.4374   14750474.10146  11415380.31246                  23723060.9294
        18.5004         19.2504
  24162978.0934   14547699.39446  11265537.54446                  24162986.1594
        15.7504         13.0004
  25267173.4134    -378643.07946   -264230.97745                  25267180.7294
        12.0004         10.5004
  22392182.5074    -392062.62848   -269494.77747                  22392188.6474
        28.5004         27.5004
  23767426.8904   -3093061.80846  -2324238.18946                  23767434.6164
        14.0004         16.5004
  23870889.3124   -4508293.44346  -3391271.79946                  23870897.1324
        14.2504         15.7504
 98  6 18 20 33 45.0030000  0  7G 6G30G10G22G17G26G23
  21289203.8044    1266747.38648   1012508.00847                  21289209.6404
        29.2504         27.0004
  23737008.6714   14823810.44546  11472525.48446                  23737016.3514
        18.2504         19.2504
  24176713.3744   14619877.43546  11321780.12946                  24176720.5974
        15.5004         12.5004
  25266172.4994    -383904.94845   -268331.12745                  25266181.4914
        11.7504         11.0004
  22393477.0774    -385259.33948   -264193.50247                  22393483.3474
        28.7504         27.5004
  23766122.8044   -3099914.37746  -2329577.78946                  23766130.2964
        14.2504         16.2504
  23867109.2104   -4528158.27646  -3406750.84846                  23867117.2184
        14.0004         16.0004
 98  6 18 20 34  0.0030000  0  7G 6G30G10G22G17G26G23
  21292609.2264    1284643.17148   1026452.77647                  21292615.0974
        29.0004         26.7504
  23750973.7804   14897198.02246  11529710.56546                  23750980.9794
        18.7504         18.7504
  24190456.5384   14692100.15946  11378057.57946                  24190464.6284
        14.7504         12.2504
  25265192.8434    -389051.01146   -272341.05945                  25265201.2844
        12.5004         11.5004
  22394781.7724    -378402.63648   -258850.60847                  22394788.2294
        28.7504         27.7504
  23764836.0774   -3106676.11246  -2334846.61546                  23764843.3584
        15.0004         16.5004
  23863343.3124   -4547949.51046  -3422172.54646                  23863351.5424
        14.2504         16.2504
 98  6 18 20 34 15.0030000  0  7G 6G30G10G22G17G26G23
  21296034.9054    1302644.81748   1040480.03347                  21296040.8944
        28.7504         26.5004
  23764948.9134   14970636.46546  11586935.27746                  23764956.3354
        18.2504         19.0004
  24204207.9444   14764364.24046  11434367.20946                  24204215.4724
        14.5004         12.0004
  25264236.0934    -394079.58446   -276259.41245                  25264244.2414
        12.0004         11.0004
  22396096.4914    -371494.26848   -253467.45247                  22396102.7494
        29.5004         27.7504
  23763567.3824   -3113344.02546  -2340042.33646                  23763574.6634
        15.5004         16.2504
  23859591.0224   -4567668.08346  -3437537.61346                  23859599.3824
        13.5004         16.5004
 98  6 18 20 34 30.0030000  0  7G 6G30G10G22G17G26G23
  21299480.8274    1320753.94048   1054591.03247                  21299486.7104
        28.7504         26.5004
  23778933.9054   15044128.98446  11644202.10646                  23778941.1634
        18.0004         18.7504
  24217966.5154   14836664.82746  11490705.30646                  24217973.3234
        15.2504         12.2504
  25263301.1634    -398991.93346   -280087.20545                  25263309.0894
        13.0004         11.5004
  22397420.3584    -364536.62348   -248045.89847                  22397426.5814
        29.2504         27.7504
  23762316.5304   -3119916.19746  -2345163.45546                  23762323.6244
        15.2504         16.5004
  23855852.4524   -4587313.89446  -3452845.97946                  23855860.9874
        14.5004         16.2504
 98  6 18 20 34 45.0030000  0  7G 6G30G10G22G17G26G23
  21302947.1944    1338969.47148   1068784.94747                  21302953.0074
        29.0004         26.5004
  23792929.4994   15117674.74546  11701510.45646                  23792936.8394
        18.7504         19.0004
  24231730.6794   14908999.00646  11547069.59446                  24231738.3234
        14.2504         12.0004
  25262387.9214    -403789.75646   -283825.78545                  25262394.5304
        12.2504         11.0004
  22398753.4524    -357531.77248   -242587.57147                  22398759.5224
        30.5004         27.7504
  23761084.3124   -3126391.85946  -2350209.37046                  23761091.5114
        15.2504         16.0004
  23852127.1714   -4606887.99746  -3468098.47446                  23852135.5544
        14.2504         16.7504
 98  6 18 20 35  0.0030000  0  7G 6G30G10G22G17G26G23
  21306432.7964    1357287.02848   1083058.36947                  21306438.5384
        28.7504         26.7504
  23806933.7804   15191267.45246  11758855.37446                  23806940.8514
        19.2504         19.0004
  24245501.7724   14981363.75446  11603457.65846                  24245509.5224
        14.5004         12.2504
  25261496.2804    -408477.68446   -287478.69345                  25261504.1944
        12.2504         11.5004
  22400095.0934    -350482.01348   -237094.24447                  22400101.1284
        30.2504         28.2504
  23759869.7104   -3132774.82246  -2355183.05846                  23759876.7454
        15.2504         16.2504
  23848415.0774   -4626396.23046  -3483299.63946                  23848423.5894
        15.0004         16.7504
 98  6 18 20 35 15.0030000  0  7G 6G30G10G22G17G26G23
  21309940.3124    1375718.95248   1097420.89947                  21309946.1014
        29.0004         26.5004
  23820949.7334   15264920.74946  11816247.51146                  23820957.0504
        19.5004         19.0004
  24259281.1164   15053775.03746  11659882.01346                  24259289.0194
        14.2504         12.2504
  25260627.6714    -413041.08946   -291034.58645                  25260635.8664
        12.2504         11.7504
  22401447.7104    -343373.88048   -231555.43347                  22401453.9914
        30.0004         28.5004
  23758674.2104   -3139055.42646  -2360076.99046                  23758681.5734
        15.2504         16.2504
  23844717.1404   -4645827.48046  -3498440.82046                  23844725.0194
        15.5004         16.7504
 98  6 18 20 35 30.0030000  0  7G 6G30G10G22G17G26G23
  21313468.3274    1394258.85148   1111867.56747                  21313474.1284
        28.5004         26.7504
  23834975.5154   15338627.13747  11873681.01446                  23834982.4794
        20.2504         19.2504
  24273069.1554   15126230.90046  11716341.10246                  24273075.9764
        15.2504         12.2504
  25259781.8904    -417485.73046   -294497.93946                  25259789.3474
        12.7504         12.2504
  22402809.9994    -336214.14748   -225976.40847                  22402816.3044
        30.0004         28.7504
  23757496.5694   -3145242.79246  -2364898.25846                  23757503.3314
        15.7504         16.0004
  23841033.4444   -4665186.87246  -3513526.01946                  23841041.6754
        15.0004         16.5004
 98  6 18 20 35 45.0030000  0  7G 6G30G10G22G17G26G23
  21317017.8744    1412911.54348   1126402.13447                  21317023.8394
        28.7504         26.5004
  23849012.2964   15412392.38047  11931160.38346                  23849019.6124
        20.2504         19.5004
  24286866.8274   15198738.25046  11772840.33946                  24286874.4724
        14.7504         12.2504
  25258959.5854    -421806.60646   -297864.84246                  25258967.7924
        12.2504         12.7504
  22404183.2184    -328997.77648   -220353.25047                  22404189.4294
        30.0004         29.0004
  23756338.6474   -3151330.07346  -2369641.54346                  23756345.4914
        16.0004         16.7504
  23837364.4684   -4684468.92946  -3528550.95546                  23837372.1594
        15.0004         16.2504
 98  6 18 20 36  0.0030000  0  7G 6G30G10G22G17G26G23
  21320586.8974    1431666.57848   1141016.44347                  21320592.9214
        28.2504         26.5004
  23863058.9604   15486206.09947  11988677.52046                  23863066.1834
        20.0004         19.0004
  24300673.1554   15271290.95346  11829374.85945                  24300680.7414
        13.7504         11.7504
  25258158.4604    -426016.28046   -301145.09246                  25258165.7764
        12.2504         12.2504
  22405565.4524    -321732.79948   -214692.23147                  22405571.8864
        29.0004         28.7504
  23755197.4684   -3157325.32246  -2374313.11146                  23755204.3004
        15.2504         16.5004
  23833707.4914   -4703683.89446  -3543523.63446                  23833715.0544
        15.7504         16.2504
 98  6 18 20 36 15.0030000  0  7G 6G30G10G22G17G26G23
  21324176.5934    1450530.07548   1155715.26947                  21324182.5814
        29.0004         26.7504
  23877114.9524   15560070.81346  12046234.41646                  23877122.2104
        19.7504         19.2504
  24314490.0224   15343899.91946  11885953.25745                  24314496.6674
        14.0004         11.7504
  25257378.7264    -430112.13946   -304336.66345                  25257386.1364
        12.0004         11.7504
  22406958.2184    -314415.18548   -208990.18047                  22406964.9334
        29.5004         29.0004
  23754075.6404   -3163221.44046  -2378907.44146                  23754082.3784
        15.5004         16.5004
  23830065.0384   -4722827.27346  -3558440.54146                  23830072.9294
        14.7504         15.5004
 98  6 18 20 36 30.0030000  0  7G 6G30G10G22G17G26G23
  21327785.4834    1469495.64648   1170493.63247                  21327791.4954
        28.5004         26.7504
  23891179.1794   15633978.75346  12103824.96946                  23891186.5774
        19.7504         19.5004
  24328317.2884   15416561.55746  11942572.68345                  24328323.5114
        14.2504         11.7504
  25256619.2414    -434103.67345   -307446.93845                  25256626.7694
        11.7504         11.7504
  22408359.1944    -307051.71548   -203252.39847                  22408365.8974
        28.2504         28.5004
  23752971.0694   -3169024.88046  -2383429.55946                  23752977.9644
        15.5004         16.7504
  23826433.9604   -4741906.59046  -3573307.51646                  23826441.4644
        14.5004         14.7504
 98  6 18 20 36 45.0030000  0  7G 6G30G10G22G17G26G23
  21331416.2724    1488574.30448   1185360.12547                  21331422.2724
        28.0004         26.5004
  23905253.5074   15707939.66146  12161456.79346                  23905261.1874
        18.7504         19.5004
  24342157.1404   15489289.54646  11999243.81646                  24342164.4684
        14.5004         12.2504
  25255881.9834    -437977.69845   -310465.64446                  25255889.1714
        11.0004         12.0004
  22409771.5074    -299630.39548   -197469.53447                  22409778.0934
        28.2504         28.2504
  23751885.9764   -3174727.41446  -2387873.03546                  23751893.6084
        15.0004         16.5004
  23822818.2024   -4760908.75546  -3588114.38346                  23822825.5544
        14.5004         14.7504
 98  6 18 20 37  0.0030000  0  7G 6G30G10G22G17G26G23
  21335068.5624    1507767.42148   1200315.78947                  21335074.5734
        28.5004         26.2504
  23919338.0224   15781952.81846  12219129.34046                  23919345.1634
        18.2504         18.7504
  24356009.5464   15562087.84746  12055969.71446                  24356017.2844
        14.0004         12.2504
  25255168.5074    -441730.55745   -313389.92445                  25255176.2104
        11.0004         11.5004
  22411195.3744    -292148.06548   -191639.14247                  22411201.7264
        29.0004         28.0004
  23750820.2024   -3180326.55946  -2392235.95246                  23750827.3544
        14.7504         16.2504
  23819217.6084   -4779830.10946  -3602858.23146                  23819225.1364
        15.0004         15.7504
 98  6 18 20 37 15.0030000  0  7G 6G30G10G22G17G26G23
  21338739.0544    1527055.96948   1215345.82047                  21338745.0774
        28.5004         26.2504
  23933428.6244   15856001.53646  12276829.59546                  23933436.2104
        17.5004         18.7504
  24369873.3514   15634939.11746  12112736.91146                  24369881.3004
        15.0004         12.2504
  25254473.5154    -445380.08045   -316233.71845                  25254481.2764
         9.2504         11.0004
  22412626.9994    -284623.85848   -185776.11947                  22412633.3514
        28.0004         28.0004
  23749770.5304   -3185843.42646  -2396534.76146                  23749777.6944
        15.0004         16.2504
  23815628.6554   -4798688.33946  -3617552.89446                  23815636.4874
        15.0004         16.2504
 98  6 18 20 37 30.0030000  0  7G 6G30G10G22G17G26G23
  21342429.8434    1546451.34147   1230459.09747                  21342435.7724
        27.7504         25.7504
  23947528.4524   15930095.77846  12334565.30646                  23947535.9794
        17.7504         18.7504
  24383747.9764   15707851.28546  12169551.56946                  24383754.5154
        15.2504         12.2504
  25253800.6084    -448916.14645   -318989.08245                  25253808.4174
         9.2504         10.5004
  22414068.4524    -277050.05348   -179874.45147                  22414074.7224
        28.0004         27.7504
  23748737.8194   -3191268.35846  -2400761.94146                  23748745.0194
        14.5004         16.2504
  23812054.4444   -4817471.24946  -3632188.86246                  23812062.4524
        15.7504         17.0004
 98  6 18 20 37 45.0030000  0  7G 6G30G10G22G17G26G23
  21346140.5304    1565950.48948   1245653.23747                  21346146.4374
        28.2504         26.0004
  23961636.0304   16004230.57846  12392332.61746                  23961643.4524
        17.5004         18.2504
  24397633.3974   15780819.27946  12226409.72246                  24397640.3044
        16.0004         12.5004
  25253148.2414    -452342.48245   -321658.93445                  25253156.1794
         8.7504         11.0004
  22415518.5304    -269430.12647   -173936.83747                  22415524.7294
        27.7504         27.7504
  23747722.6944   -3196601.90046  -2404917.90046                  23747730.0694
        15.0004         16.0004
  23808494.2884   -4836181.43646  -3646768.16646                  23808502.4724
        15.7504         17.0004
 98  6 18 20 38  0.0030000  0  7G 6G30G10G22G17G26G23
  21349871.5384    1585558.60247   1260932.28547                  21349877.5624
        27.7504         26.0004
  23975751.8274   16078409.80646  12450134.56446                  23975758.7924
        18.2504         18.2504
  24411529.6014   15853846.35446  12283313.91345                  24411535.7534
        15.0004         11.7504
  25252518.5154    -455653.77845   -324239.13545                  25252526.4404
         8.7504         10.7504
  22416978.2334    -261757.71447   -167958.33347                  22416984.5974
        26.7504         27.7504
  23746727.0074   -3201836.80646  -2408997.01846                  23746734.0654
        15.7504         16.0004
  23804948.7024   -4854811.38046  -3661284.96046                  23804956.8864
        14.7504         17.0004
 98  6 18 20 38 15.0030000  0  7G 6G30G10G22G17G26G23
  21353624.3274    1605280.24548   1276299.79947                  21353630.3394
        28.0004         26.0004
  23989876.4834   16152633.35546  12507971.05246                  23989883.9294
        18.7504         18.2504
  24425438.0304   15926934.69646  12340265.83545                  24425445.7804
        14.5004         11.7504
  25251910.5074    -458847.58945   -326727.82145                  25251919.1124
         8.2504         10.5004
  22418449.1014    -254028.86647   -161935.84947                  22418455.5694
        25.5004         27.2504
  23745750.4214   -3206969.99746  -2412996.88346                  23745757.3044
        16.0004         16.0004
  23801419.3274   -4873359.15746  -3675737.73746                  23801427.4294
        14.7504         16.7504
 98  6 18 20 38 30.0030000  0  7G 6G30G10G22G17G26G23
  21357398.3904    1625113.45548   1291754.25347                  21357404.4134
        28.2504         26.0004
  24004008.1554   16226898.64346  12565840.06046                  24004015.8124
        17.7504         17.7504
  24439357.4444   16000078.39946  12397260.90946                  24439363.7964
        15.0004         12.2504
  25251325.5934    -461922.89445   -329124.14545                  25251334.5384
         8.0004          9.7504
  22419930.8044    -246243.47047   -155869.29847                  22419937.4484
        25.0004         27.2504
  23744792.3744   -3212002.77246  -2416918.48646                  23744799.4444
        15.2504         16.0004
  23797904.6474   -4891827.43746  -3690128.53946                  23797912.9724
        14.7504         16.2504
 98  6 18 20 38 45.0030000  0  7G 6G30G10G22G17G26G23
  21361192.9054    1645051.99847   1307290.76946                  21361198.8474
        27.5004         25.5004
  24018147.5544   16301199.70246  12623736.94246                  24018154.3624
        18.5004         17.5004
  24453284.1014   16073265.23846  12454289.56845                  24453291.0194
        15.0004         11.7504
  25250761.1634    -464885.17045   -331432.38845                  25250769.4644
         7.7504          9.7504
  22421421.8124    -238406.36647   -149762.46347                  22421428.6084
        25.2504         27.0004
  23743851.8044   -3216945.71846  -2420770.08746                  23743858.8514
        15.7504         15.7504
  23794404.2804   -4910222.04446  -3704461.95146                  23794412.5934
        15.0004         16.0004
 98  6 18 20 39  0.0030000  0  7G 6G30G10G22G17G26G23
  21365009.0694    1665106.45847   1322917.62447                  21365015.0584
        27.2504         25.7504
  24032295.0224   16375546.18546  12681669.23546                  24032301.8314
        17.7504         17.7504
  24467220.3514   16146501.67346  12511356.90345                  24467227.6204
        15.0004         11.7504
  25250220.7654    -467725.29944   -333645.47845                  25250229.0544
         6.7504          9.0004
  22422924.8514    -230508.15847   -143608.00847                  22422931.5544
        25.5004         27.2504
  23742930.1324   -3221787.96646  -2424543.22846                  23742937.0504
        15.0004         15.5004
  23790919.6554   -4928533.62846  -3718730.68046                  23790927.3704
        15.0004         16.5004
 98  6 18 20 39 15.0030000  0  7G 6G30G10G22G17G26G23
  21368848.9684    1685284.31947   1338640.62846                  21368854.9444
        27.2504         25.2504
  24046452.7494   16449944.87746  12739642.18346                  24046459.9834
        17.7504         17.5004
  24481167.0074   16219790.43846  12568465.00845                  24481173.4644
        14.5004         11.5004
  25249704.5224    -470437.88644   -335759.13045                  25249712.3664
         6.5004          8.5004
  22424440.6714    -222541.95347   -137400.57447                  22424447.3154
        25.2504         27.5004
  23742029.2884   -3226522.59146  -2428232.53246                  23742035.9914
        16.0004         15.7504
  23787451.7024   -4946758.38146  -3732931.74446                  23787459.4174
        15.2504         16.2504
 98  6 18 20 39 30.0030000  0  7G 6G30G10G22G17G26G23
  21372710.0224    1705575.29647   1354451.77546                  21372716.0224
        27.2504         25.2504
  24060617.8744   16524382.25846  12797645.30646                  24060624.8394
        18.2504         17.7504
  24495120.5694   16293117.47946  12625602.93446                  24495128.1794
        15.0004         12.0004
  25249210.4834    -473035.54144   -337783.29245                  25249218.5384
         7.2504          8.7504
  22425967.1794    -214520.80947   -131150.33247                  22425973.8584
        25.2504         27.5004
  23741146.5624   -3231161.82446  -2431847.48046                  23741153.1944
        16.0004         16.0004
  23783997.8824   -4964908.90246  -3747074.96546                  23784005.9014
        16.2504         17.0004
 98  6 18 20 39 45.0030000  0  7G 6G30G10G22G17G26G23
  21376592.6084    1725978.78747   1370350.59746                  21376598.4794
        27.5004         25.0004
  24074790.0384   16598857.56146  12855677.93946                  24074796.9444
        18.0004         17.7504
  24509081.4834   16366481.41546  12682769.60546                  24509088.8824
        15.0004         12.5004
  25248737.7574    -475518.94344   -339718.36845                  25248745.6944
         7.2504          8.7504
  22427503.9914    -206445.27147   -124857.70747                  22427510.6474
        25.7504         27.5004
  23740282.3434   -3235702.58946  -2435385.69746                  23740289.1404
        16.2504         16.2504
  23780557.4054   -4982987.44646  -3761162.11546                  23780565.1324
        16.0004         16.7504
 98  6 18 20 40  0.0030000  0  7G 6G30G10G22G17G26G23
  21380497.4134    1746497.75347   1386339.41046                  21380503.3544
        27.7504         25.2504
  24088970.0464   16673375.15646  12913743.56146                  24088977.3154
        17.5004         17.5004
  24523049.9684   16439886.87546  12739968.62346                  24523057.3194
        14.7504         12.2504
  25248287.6404    -477886.25945   -341563.00245                  25248293.5584
         8.7504          8.5004
  22429051.4134    -198312.07147   -118520.14147                  22429058.3194
        25.5004         27.5004
  23739437.2884   -3240142.20346  -2438845.09746                  23739444.1324
        16.0004         16.5004
  23777132.2184   -5000988.81546  -3775189.13146                  23777140.2024
        16.2504         17.0004
 98  6 18 20 40 15.0030000  0  7G 6G30G10G22G17G26G23
  21384423.2264    1767127.40047   1402414.45046                  21384429.0734
        27.7504         25.2504
  24103157.5624   16747929.73946  12971837.97346                  24103165.0424
        18.0004         17.5004
  24537024.7334   16513324.01446  12797192.33946                  24537031.9794
        15.2504         12.2504
  25247857.7964    -480145.76345   -343323.64145                  25247863.9014
         8.7504          9.0004
  22430608.9524    -190127.34747   -112142.43947                  22430615.9174
        25.5004         27.2504
  23738610.5624   -3244486.49046  -2442230.23746                  23738617.5624
        16.0004         17.0004
  23773719.8194   -5018919.60546  -3789161.13946                  23773727.6404
        15.7504         16.5004
 98  6 18 20 40 30.0030000  0  7G 6G30G10G22G17G26G23
  21388369.6084    1787866.28848   1418574.62546                  21388375.5264
        28.0004         25.2504
  24117352.0774   16822522.89846  13029962.46146                  24117359.0894
        17.5004         17.0004
  24551004.6474   16586790.45146  12854438.91845                  24551011.8354
        14.5004         11.2504
  25247448.3354    -482298.10645   -345000.79145                  25247455.7694
         8.7504          8.5004
  22432175.5934    -181894.39847   -105727.14247                  22432182.5344
        25.2504         27.0004
  23737801.6554   -3248737.77946  -2445542.91446                  23737808.8434
        15.7504         16.5004
  23770320.4764   -5036782.37546  -3803080.13746                  23770328.0854
        16.0004         16.7504
 98  6 18 20 40 45.0030000  0  7G 6G30G10G22G17G26G23
  21392338.8904    1808725.88948   1434828.85746                  21392344.6204
        28.2504         25.5004
  24131556.9834   16897169.32746  13088128.46646                  24131564.8744
        17.7504         17.5004
  24564993.2104   16660297.14346  12911716.82345                  24565000.1754
        15.0004         11.5004
  25247060.9444    -484332.63745   -346586.13445                  25247068.5774
         9.2504          9.0004
  22433753.4444    -173603.38247    -99266.61047                  22433760.1474
        25.5004         27.2504
  23737012.0934   -3252886.67446  -2448775.77946                  23737019.3974
        16.2504         17.0004
  23766937.1874   -5054561.37946  -3816933.86146                  23766944.9374
        15.5004         17.0004
 98  6 18 20 41  0.0030000  0  7G 6G30G10G22G17G26G23
  21396330.6324    1829701.09048   1451173.17146                  21396336.3514
        28.7504         25.5004
  24145771.3274   16971866.81946  13146334.24146                  24145779.1124
        16.7504         17.2504
  24578987.5544   16733842.04846  12969024.53745                  24578994.0224
        14.0004         11.0004
  25246694.7654    -486257.01445   -348085.60545                  25246701.8234
         9.7504          8.7504
  22435340.5464    -165262.57547    -92767.27747                  22435347.4644
        25.0004         26.7504
  23736241.3744   -3256937.37846  -2451932.12946                  23736248.4684
        16.0004         16.2504
  23763569.4994   -5072259.86146  -3830724.84546                  23763577.1904
        15.7504         16.7504
 98  6 18 20 41 15.0030000  0  7G 6G30G10G22G17G26G23
  21400342.5544    1850784.36648   1467601.70047                  21400348.2024
        28.2504         25.7504
  24159994.8124   17046609.66646  13204575.37346                  24160001.8124
        17.2504         16.7504
  24592989.8194   16807423.16846  13026360.44645                  24592997.2294
        12.7504         11.0004
  25246349.3274    -488075.90045   -349502.91645                  25246354.9294
        11.2504          9.0004
  22436935.9214    -156879.25347    -86234.81947                  22436942.7804
        25.2504         26.7504
  23735488.5384   -3260892.77846  -2455014.23346                  23735496.0074
        16.5004         16.5004
  23760215.9134   -5089882.99146  -3844457.11646                  23760223.4174
        16.2504         17.0004
 98  6 18 20 41 30.0030000  0  7G 6G30G10G22G17G26G23
  21404377.1324    1871986.74048   1484123.03246                  21404382.7224
        28.7504         25.5004
  24174228.6404   17121409.76746  13262861.12446                  24174235.6514
        16.7504         16.7504
  24607001.5624   16881055.81146  13083736.49645                  24607008.6794
        12.7504         11.0004
  25246025.4834    -489774.79145   -350826.72845                  25246032.0814
        10.5004          9.2504
  22438541.6634    -148440.94047    -79659.50147                  22438548.4724
        24.7504         26.7504
  23734756.1714   -3264739.50646  -2458011.64446                  23734763.0894
        15.7504         16.5004
  23756879.1404   -5107416.53146  -3858119.59646                  23756886.7374
        16.2504         16.7504
 98  6 18 20 41 45.0030000  0  7G 6G30G10G22G17G26G23
  21408432.4294    1893296.41848   1500727.96647                  21408438.0774
        28.2504         25.7504
  24188470.9134   17196254.50546  13321181.64246                  24188478.8974
        15.2504         16.7504
  24621021.4764   16954731.28846  13141145.91745                  24621029.6364
        12.5004         10.5004
  25245722.2414    -491367.16345   -352067.55045                  25245729.2534
        10.5004          9.2504
  22440155.3974    -139960.41047    -73051.29547                  22440162.1834
        25.0004         26.5004
  23734043.0854   -3268488.36746  -2460932.80546                  23734050.5894
        16.0004         16.0004
  23753557.6014   -5124871.78846  -3871721.04846                  23753564.9764
        16.2504         17.0004
 98  6 18 20 42  0.0030000  0  7G 6G30G10G22G17G26G23
  21412506.9914    1914709.29347   1517413.33046                  21412512.9564
        27.7504         25.5004
  24202721.7184   17271140.94746  13379534.63046                  24202729.3154
        15.5004         16.5004
  24635049.1874   17028447.69646  13198587.25845                  24635056.7494
        12.5004         10.0004
  25245438.7654    -492856.12345   -353227.74145                  25245445.5624
        11.2504          9.0004
  22441776.8124    -131439.60147    -66411.70047                  22441783.5034
        25.2504         26.7504
  23733347.8044   -3272142.99546  -2463780.54446                  23733354.3314
        16.5004         16.0004
  23750250.4524   -5142251.06846  -3885263.31646                  23750257.9214
        16.0004         17.0004
 98  6 18 20 42 15.0040000  0  7G 6G30G10G22G17G26G23
  21416602.8484    1936233.85547   1534185.71146                  21416608.8714
        27.0004         25.2504
  24216981.7624   17346077.71346  13437926.86046                  24216988.9734
        15.7504         16.0004
  24649087.5274   17102218.08746  13256070.64945                  24649094.5864
        12.7504         11.0004
  25245177.6054    -494232.02845   -354299.85845                  25245186.1524
        11.5004          9.2504
  22443408.0744    -122868.88747    -59733.22047                  22443414.5904
        25.7504         26.7504
  23732671.9184   -3275695.99146  -2466549.09846                  23732679.1994
        17.0004         16.0004
  23746959.2624   -5159545.65046  -3898739.58246                  23746967.1994
        16.5004         17.0004
 98  6 18 20 42 30.0040000  0  7G 6G30G10G22G17G26G23
  21420720.3404    1957871.76547   1551046.42046                  21420726.4224
        27.5004         25.5004
  24231250.2304   17421060.27646  13496354.78246                  24231257.8984
        15.0004         15.7504
  24663134.9344   17176039.95746  13313594.15845                  24663141.5554
        12.0004         10.7504
  25244938.5594    -495484.31145   -355275.67645                  25244944.3834
        11.5004          8.2504
  22445048.8244    -114245.45547    -53013.65747                  22445055.4804
        26.2504         26.7504
  23732016.3794   -3279138.60246  -2469231.63546                  23732022.9774
        17.5004         16.0004
  23743684.6524   -5176751.57246  -3912146.74946                  23743692.5784
        15.7504         17.2504
 98  6 18 20 42 45.0040000  0  7G 6G30G10G22G17G26G23
  21424857.9734    1979615.49847   1567989.58946                  21424864.0784
        27.2504         25.5004
  24245526.9574   17496084.66646  13554815.28946                  24245534.9064
        15.7504         16.5004
  24677193.6914   17249915.07946  13371159.16345                  24677200.2664
        13.0004         10.5004
  25244723.7934    -496616.99145   -356158.30745                  25244731.1914
        11.5004          8.7504
  22446697.8554    -105579.49047    -46260.95547                  22446704.6054
        25.5004         26.7504
  23731380.7234   -3282480.35346  -2471835.58346                  23731387.7114
        17.2504         15.7504
  23740425.8714   -5193878.09446  -3925492.06246                  23740433.7504
        15.7504         16.7504
 98  6 18 20 43  0.0040000  0  7G 6G30G10G22G17G26G23
  21429016.5044    2001468.57947   1585017.95246                  21429022.5044
        27.7504         25.5004
  24259811.3404   17571150.07346  13613307.74146                  24259819.0434
        15.5004         16.0004
  24691262.3794   17323847.68846  13428768.96545                  24691268.8364
        13.0004         11.0004
  25244531.4654    -497624.71345   -356943.57345                  25244539.2854
        11.7504          8.5004
  22448355.6764     -96868.89147    -39473.47047                  22448362.6874
        26.5004         26.5004
  23730764.4964   -3285717.45746  -2474357.97646                  23730771.4614
        16.2504         15.5004
  23737182.2154   -5210922.44446  -3938773.33246                  23737190.0824
        15.7504         17.0004
 98  6 18 20 43 15.0040000  0  7G 6G30G10G22G17G26G23
  21433195.7934    2023429.37047   1602130.25347                  21433201.6874
        27.7504         25.7504
  24274102.7074   17646250.57346  13671827.56246                  24274110.4804
        15.7504         15.7504
  24705342.0274   17397837.51946  13486423.36145                  24705349.8014
        12.5004         10.7504
  25244364.3714    -498506.92345   -357631.01545                  25244371.7584
        11.7504          9.0004
  22450021.1604     -88116.59947    -32653.49247                  22450027.9574
        26.2504         26.7504
  23730168.0824   -3288848.31446  -2476797.57746                  23730175.1054
        16.0004         15.2504
  23733953.3874   -5227889.98946  -3951994.76346                  23733961.0554
        16.0004         16.7504
 98  6 18 20 43 30.0040000  0  7G 6G30G10G22G17G26G23
  21437393.3484    2045488.84347   1619319.45246                  21437399.2664
        27.2504         25.5004
  24288397.6454   17721372.02146  13730363.69546                  24288405.0664
        16.0004         16.0004
  24719430.4494   17471872.27446  13544112.78845                  24719437.3554
        12.5004         10.5004
  25244218.1524    -499273.57946   -358228.36545                  25244225.6914
        12.5004          8.7504
  22451692.7854     -79331.60247    -25808.03747                  22451699.3124
        26.5004         26.7504
  23729591.1994   -3291884.00646  -2479163.03146                  23729597.6214
        16.0004         15.2504
  23730736.8794   -5244793.63146  -3965166.39446                  23730744.6294
        16.5004         17.0004
 98  6 18 20 43 45.0040000  0  7G 6G30G10G22G17G26G23
  21441613.3324    2067664.89147   1636599.48246                  21441619.2384
        27.0004         25.2504
  24302700.4024   17796530.41046  13788928.61746                  24302708.3984
        16.0004         16.0004
  24733529.6764   17545963.62246  13601846.27545                  24733537.0394
        12.2504         10.7504
  25244096.1604    -499910.90146   -358725.02745                  25244102.7704
        12.5004          8.7504
  22453373.4344     -70500.23047    -18926.44647                  22453379.8674
        26.7504         27.0004
  23729034.3874   -3294808.57546  -2481441.89246                  23729041.0314
        16.0004         15.7504
  23727535.2704   -5261619.64046  -3978277.53946                  23727542.8674
        16.5004         17.5004
 98  6 18 20 44  0.0040000  0  7G 6G30G10G22G17G26G23
  21445854.6604    2089952.90247   1653966.76446                  21445860.6954
        27.0004         25.2504
  24317008.0204   17871718.42346  13847516.63646                  24317015.3714
        16.0004         16.0004
  24747637.8014   17620102.42046  13659616.72045                  24747646.0554
        12.0004         11.2504
  25243998.7704    -500425.22346   -359125.81745                  25244005.7114
        12.0004          9.0004
  22455061.3244     -61629.19047    -12013.94147                  22455067.8054
        26.7504         26.5004
  23728497.2704   -3297629.84646  -2483640.24746                  23728504.4344
        15.7504         15.5004
  23724346.7464   -5278375.96646  -3991334.38946                  23724354.3554
        17.5004         17.7504
 98  6 18 20 44 15.0040000  0  7G 6G30G10G22G17G26G23
  21450118.5124    2112359.61147   1671426.53946                  21450124.5004
        27.0004         25.0004
  24331322.7304   17946942.34646  13906132.63846                  24331330.5044
        15.7504         15.5004
  24761755.6294   17694291.82246  13717426.61745                  24761763.6604
        12.2504         11.0004
  25243925.9024    -500808.27246   -359424.30445                  25243932.2194
        12.7504          9.2504
  22456758.2854     -52712.49147     -5065.85447                  22456764.8484
        26.5004         26.7504
  23727981.3634   -3300340.86646  -2485752.70646                  23727987.9734
        16.0004         15.5004
  23721172.1684   -5295057.36046  -4004332.85246                  23721179.9884
        16.7504         18.2504
 98  6 18 20 44 30.0040000  0  7G 6G30G10G22G17G26G23
  21454404.1764    2134882.10147   1688976.52146                  21454410.1414
        26.5004         25.0004
  24345643.5664   18022199.47746  13964774.49946                  24345651.2464
        16.2504         16.0004
  24775880.8954   17768522.83146  13775268.94545                  24775889.3244
        12.2504         10.7504
  25243877.4654    -501065.35946   -359624.64945                  25243884.3484
        12.2504          9.7504
  22458462.5514     -43755.97847      1913.25147                  22458469.1484
        27.5004         26.7504
  23727485.9884   -3302944.69046  -2487781.62646                  23727492.6214
        16.7504         15.7504
  23718010.7304   -5311671.50346  -4017278.91146                  23718018.8554
        17.7504         18.5004
 98  6 18 20 44 45.0040000  0  7G 6G30G10G22G17G26G23
  21458713.0594    2157524.68947   1706620.09146                  21458718.9534
        27.7504         25.0004
  24359971.9494   18097494.70846  14023446.05246                  24359979.1254
        15.7504         15.5004
  24790014.6454   17842794.76646  13833143.14645                  24790022.7114
        12.2504         10.5004
  25243851.5984    -501196.49245   -359726.80645                  25243859.6054
        11.2504          9.2504
  22460175.0984     -34757.30947      8925.21147                  22460181.6484
        27.2504         27.0004
  23727010.6454   -3305441.68446  -2489727.32546                  23727017.5744
        16.0004         15.7504
  23714862.0124   -5328217.84546  -4030172.13646                  23714869.7154
        17.0004         18.7504
 98  6 18 20 45  0.0040000  0  7G 6G30G10G22G17G26G23
  21463044.2934    2180284.65447   1724355.13046                  21463050.1874
        27.7504         25.0004
  24374306.4414   18172823.71246  14082143.92746                  24374314.1564
        16.7504         16.2504
  24804154.3554   17917099.98046  13891043.25145                  24804163.3594
        12.0004         11.0004
  25243850.0274    -501207.65645   -359735.51145                  25243858.0124
        11.2504          9.5004
  22461895.8014     -25715.90647     15970.46947                  22461901.8834
        27.5004         27.2504
  23726555.6604   -3307834.30846  -2491591.67346                  23726562.8714
        17.2504         16.0004
  23711726.2304   -5344695.17646  -4043011.58846                  23711733.9574
        17.7504         18.5004
 98  6 18 20 45 15.0040000  0  7G 6G30G10G22G17G26G23
  21467399.2934    2203169.47048   1742187.45546                  21467405.0824
        28.0004         25.5004
  24388648.6294   18248193.09346  14140873.27246                  24388656.4024
        15.7504         15.7504
  24818301.7854   17991442.03346  13948972.10345                  24818309.7114
        12.5004         10.5004
  25243871.5824    -501095.90945   -359648.45645                  25243879.7664
        11.2504         10.0004
  22463626.2854     -16621.57648     23056.96847                  22463632.3554
        28.0004         27.5004
  23726122.4494   -3310112.42946  -2493366.81046                  23726129.6024
        17.0004         16.2504
  23708605.0594   -5361098.04746  -4055793.01946                  23708612.5744
        18.0004         18.2504
 98  6 18 20 45 30.0040000  0  7G 6G30G10G22G17G26G23
  21471776.4414    2226172.31748   1760111.75346                  21471782.1374
        28.5004         25.2504
  24402998.2234   18323600.02046  14199631.83346                  24403006.1024
        14.7504         15.2504
  24832453.2544   18065811.52046  14006922.34945                  24832461.2034
        13.0004         11.0004
  25243914.1844    -500870.47845   -359472.81045                  25243921.9804
         9.7504         10.0004
  22465366.5434      -7475.61648     30183.70247                  22465372.5664
        28.0004         27.2504
  23725709.1214   -3312283.11446  -2495058.21646                  23725716.3444
        17.7504         16.2504
  23705496.6524   -5377431.75546  -4068520.54546                  23705504.3674
        18.2504         19.0004
 98  6 18 20 45 45.0040000  0  7G 6G30G10G22G17G26G23
  21476177.3874    2249298.00048   1778131.76846                  21476183.0474
        28.5004         25.5004
  24417356.5514   18399052.26946  14258425.73646                  24417364.2894
        15.0004         15.2504
  24846610.7544   18140208.14846  14064893.72245                  24846619.3714
        12.7504         11.5004
  25243979.6844    -500525.03545   -359203.62645                  25243989.0044
         9.0004         10.5004
  22467118.1994       1728.84648     37356.01247                  22467124.3284
        28.5004         27.5004
  23725317.0514   -3314342.89246  -2496663.22246                  23725323.7424
        18.0004         16.7504
  23702403.0594   -5393689.04146  -4081188.53846                  23702410.3404
        18.2504         19.2504
 98  6 18 20 46  0.0040000  0  7G 6G30G10G22G17G26G23
  21480600.7854    2272544.53548   1796245.94946                  21480606.5514
        28.0004         25.5004
  24431722.2464   18474544.45146  14317250.75946                  24431729.4344
        15.0004         15.2504
  24860772.7464   18214629.88346  14122884.62545                  24860780.5434
        12.0004         10.7504
  25244068.0204    -500059.63245   -358840.96245                  25244076.2034
         9.5004         10.0004
  22468880.7774      10990.13848     44572.61347                  22468887.2344
        28.2504         27.7504
  23724946.1294   -3316292.82246  -2498182.61746                  23724952.6214
        17.5004         16.7504
  23699324.0354   -5409869.22246  -4093796.42146                  23699331.6684
        18.5004         19.2504
 98  6 18 20 46 15.0040000  0  7G 6G30G10G22G17G26G23
  21485046.4804    2295906.80348   1814450.31546                  21485052.1644
        28.2504         25.5004
  24446094.4734   18550072.21346  14376103.48946                  24446102.5624
        14.5004         15.5004
  24874939.4024   18289076.29246  14180894.78845                  24874947.6214
        12.7504         10.7504
  25244179.3404    -499475.76045   -358385.99945                  25244186.1254
         9.0004         10.2504
  22470653.9804      20309.54948     51834.49947                  22470660.6374
        28.5004         28.0004
  23724595.2464   -3318135.35446  -2499618.33046                  23724602.1054
        17.5004         17.0004
  23696259.5824   -5425972.15846  -4106344.14046                  23696267.2154
        18.0004         18.7504
 98  6 18 20 46 30.0040000  0  7G 6G30G10G22G17G26G23
  21489513.1994    2319379.31248   1832740.58946                  21489518.8954
        28.0004         25.2504
  24460473.0904   18625631.20246  14434980.55846                  24460481.0044
        15.0004         15.5004
  24889109.6294   18363543.23646  14238920.96545                  24889117.7074
        12.2504         11.2504
  25244312.0664    -498777.85745   -357842.19545                  25244321.7624
         8.5004         10.0004
  22472437.6374      29683.54048     59138.91947                  22472444.2344
        29.0004         28.2504
  23724264.5904   -3319871.86946  -2500971.41846                  23724271.9414
        16.7504         16.0004
  23693209.8794   -5442000.07646  -4118833.40046                  23693217.5234
        18.2504         19.0004
 98  6 18 20 46 45.0040000  0  7G 6G30G10G22G17G26G23
  21494000.5594    2342961.28547   1851116.14647                  21494006.4774
        27.5004         25.7504
  24474857.1684   18701218.85946  14493879.96946                  24474864.7664
        15.7504         15.2504
  24903284.9494   18438033.64246  14296965.41445                  24903293.8124
        13.2504         11.0004
  25244466.7234    -497965.47245   -357209.11345                  25244476.4774
         8.7504         10.2504
  22474231.7854      39112.18448     66485.92347                  22474238.5354
        28.2504         28.0004
  23723954.3714   -3321501.90546  -2502241.55246                  23723962.0624
        16.2504         16.2504
  23690174.3954   -5457949.84546  -4131261.76946                  23690181.9104
        18.0004         18.7504
 98  6 18 20 47  0.0040000  0  7G 6G30G10G22G17G26G23
  21498509.1454    2366653.04448   1869577.25746                  21498515.0274
        28.2504         25.5004
  24489246.0664   18776832.69646  14552799.77746                  24489253.6764
        15.7504         15.2504
  24917465.4964   18512552.38146  14355031.95645                  24917473.4574
        12.7504         11.0004
  25244644.0984    -497035.58245   -356484.53545                  25244651.6484
         9.0004          9.7504
  22476036.3954      48595.58647     73875.58747                  22476043.1454
        27.7504         28.2504
  23723665.0824   -3323022.60246  -2503426.46846                  23723672.2934
        17.2504         16.2504
  23687155.6214   -5473815.14746  -4143624.31046                  23687163.5124
        18.5004         19.2504
 98  6 18 20 47 15.0040000  0  7G 6G30G10G22G17G26G23
  21503038.0204    2390453.74847   1888123.26046                  21503044.0664
        27.7504         25.5004
  24503639.1054   18852467.93546  14611736.26846                  24503647.4654
        16.0004         15.5004
  24931651.1294   18587100.13645  14413121.07945                  24931659.8284
        11.7504         10.2504
  25244842.3014    -495993.07545   -355672.19045                  25244850.4264
         8.2504         10.2504
  22477851.3484      58132.18947     81306.71747                  22477858.1914
        27.7504         28.5004
  23723396.4654   -3324434.29546  -2504526.46046                  23723403.4064
        17.5004         16.5004
  23684152.2384   -5489596.26046  -4155921.24946                  23684160.0004
        18.5004         19.0004
 98  6 18 20 47 30.0040000  0  7G 6G30G10G22G17G26G23
  21507589.3014    2414369.58847   1906758.98146                  21507595.1844
        27.5004         25.2504
  24518037.0594   18928128.90546  14670692.79346                  24518044.7154
        16.5004         15.5004
  24945844.7154   18661685.54246  14471239.55845                  24945853.6484
        13.0004         10.7504
  25245063.2774    -494830.60345   -354766.34845                  25245070.7344
         8.2504          9.5004
  22479677.0744      67727.42148     88783.52647                  22479683.8594
        28.0004         28.5004
  23723149.4884   -3325733.52246  -2505538.83146                  23723156.5944
        18.0004         16.5004
  23681166.3634   -5505288.65446  -4168149.06946                  23681174.1604
        18.2504         19.2504
 98  6 18 20 47 45.0040000  0  7G 6G30G10G22G17G26G23
  21512163.1054    2438406.70747   1925489.20046                  21512169.0824
        27.7504         25.2504
  24532440.6914   19003819.56146  14729672.46446                  24532447.9964
        16.7504         15.2504
  24960046.2774   18736314.10646  14529391.63645                  24960054.7894
        13.5004         11.0004
  25245308.6294    -493541.16245   -353761.59145                  25245316.4614
         7.5004          9.7504
  22481514.6214      77383.50348     96307.75147                  22481521.4064
        28.2504         28.7504
  23722924.9024   -3326913.85346  -2506458.55246                  23722932.0784
        18.2504         16.7504
  23678198.5594   -5520885.29446  -4180302.26446                  23678206.4374
        19.2504         19.5004
 98  6 18 20 48  0.0040000  0  7G 6G30G10G22G17G26G23
  21516756.6054    2462544.74547   1944298.06246                  21516762.5594
        27.5004         25.2504
  24546844.5824   19079514.01946  14788655.10546                  24546852.1214
        16.2504         15.0004
  24974252.6294   18810969.12446  14587564.36145                  24974260.2974
        12.5004         10.7504
  25245574.7154    -492143.78745   -352672.72545                  25245583.4844
         8.0004         10.0004
  22483359.3324      87076.31848    103860.59347                  22483365.8014
        29.5004         29.0004
  23722719.2384   -3327994.33946  -2507300.44846                  23722726.0354
        17.7504         17.0004
  23675244.5984   -5536406.46346  -4192396.65346                  23675252.2544
        18.5004         19.2504
 98  6 18 20 48 15.0040000  0  7G 6G30G10G22G17G26G23
  21521371.4654    2486795.98547   1963195.13147                  21521377.3484
        27.7504         25.7504
  24561251.9884   19155226.19846  14847651.54646                  24561259.6214
        15.2504         14.7504
  24988466.4494   18885666.65145  14645770.21645                  24988474.4104
        11.5004         10.0004
  25245862.8484    -490627.04045   -351490.81845                  25245869.0234
         8.0004         10.0004
  22485212.8404      96817.20048    111450.89447                  22485219.2974
        28.5004         28.7504
  23722535.5434   -3328959.79246  -2508052.73046                  23722542.4144
        18.7504         17.2504
  23672307.9184   -5551839.52346  -4204422.39946                  23672315.7734
        18.5004         19.0004
 98  6 18 20 48 30.0040000  0  7G 6G30G10G22G17G26G23
  21526007.5124    2511157.76447   1982178.32746                  21526013.4884
        27.7504         25.5004
  24575663.6684   19230958.70646  14906663.82946                  24575671.6874
        15.0004         14.7504
  25002689.3324   18960403.31346  14704006.51545                  25002696.9884
        12.2504         10.7504
  25246173.4344    -488995.24945   -350219.27445                  25246180.7734
         8.0004          9.7504
  22487074.8634     106602.31748    119075.66147                  22487081.2974
        28.2504         28.7504
  23722373.3244   -3329810.11146  -2508715.28146                  23722379.8874
        18.2504         16.5004
  23669387.3244   -5567187.33446  -4216381.71046                  23669394.4774
        18.7504         19.2504
 98  6 18 20 48 45.0040000  0  7G 6G30G10G22G17G26G23
  21530665.4654    2535635.99548   2001252.27946                  21530671.3594
        28.0004         25.5004
  24590079.7154   19306716.42246  14965695.75046                  24590087.0904
        15.2504         14.5004
  25016919.0204   19035184.37645  14762277.46345                  25016926.8984
        11.2504         10.2504
  25246506.8714    -487243.02045   -348853.88245                  25246515.3594
         8.0004         10.2504
  22488945.8094     116433.74948    126736.52047                  22488952.2074
        29.0004         29.0004
  23722234.1454   -3330541.64246  -2509285.28446                  23722240.9654
        18.2504         16.2504
  23666483.1914   -5582447.37246  -4228272.62646                  23666490.9414
        19.2504         19.5004
 98  6 18 20 49  0.0040000  0  7G 6G30G10G22G17G26G23
  21535346.1214    2560233.20947   2020418.94546                  21535352.0624
        27.5004         25.2504
  24604501.1374   19382500.57846  15024748.27446                  24604508.9804
        15.0004         14.2504
  25031157.8634   19110008.75245  14820582.14245                  25031165.3674
        11.5004         10.2504
  25246863.5204    -485370.72045   -347394.96545                  25246871.5394
         8.5004         10.5004
  22490825.3324     126310.71448    134432.86447                  22490831.6954
        29.7504         29.5004
  23722116.7544   -3331157.85346  -2509765.41346                  23722123.5044
        17.7504         16.2504
  23663596.2304   -5597618.83546  -4240094.51746                  23663603.5124
        19.2504         19.7504
 98  6 18 20 49 15.0040000  0  7G 6G30G10G22G17G26G23
  21540049.7704    2584951.18947   2039679.69546                  21540055.6874
        27.0004         25.5004
  24618928.0204   19458315.32346  15083824.64446                  24618936.2274
        14.0004         14.0004
  25045404.7544   19184875.36945  14878919.71245                  25045412.9374
        11.7504         10.5004
  25247242.0904    -483378.02845   -345842.19745                  25247251.0234
         8.2504         10.0004
  22492714.1994     136236.69548    142167.39547                  22492720.6454
        29.5004         29.2504
  23722021.2074   -3331657.75746  -2510154.92546                  23722028.0664
        18.0004         16.5004
  23660725.7544   -5612704.56046  -4251849.60246                  23660733.4344
        19.5004         20.0004
 98  6 18 20 49 30.0040000  0  7G 6G30G10G22G17G26G23
  21544776.3634    2609789.47748   2059034.20646                  21544782.1524
        28.0004         25.5004
  24633362.2544   19534165.56546  15142928.66146                  24633370.4844
        13.2504         13.7504
  25059658.6684   19259783.64545  14937289.78045                  25059666.2194
        10.7504         10.0004
  25247644.8954    -481262.16445   -344193.48645                  25247653.6994
         8.5004         10.5004
  22494612.6764     146213.95348    149941.88447                  22494619.2974
        29.2504         29.5004
  23721949.2464   -3332040.44946  -2510453.10546                  23721956.2114
        17.5004         16.2504
  23657870.7774   -5627705.51746  -4263538.63846                  23657878.5044
        19.2504         19.7504
 98  6 18 20 49 45.0040000  0  7G 6G30G10G22G17G26G23
  21549523.7544    2634737.13348   2078473.93347                  21549529.5904
        28.5004         25.7504
  24647801.8014   19610044.37346  15202054.93346                  24647809.7274
        13.5004         13.5004
  25073919.1454   19334719.13945  14995681.01545                  25073927.0004
        11.2504         10.5004
  25248070.2074    -479028.72145   -342453.12045                  25248079.0824
         8.5004         10.0004
  22496518.4494     156230.28248    157746.82347                  22496525.2234
        28.7504         29.7504
  23721896.7624   -3332315.38746  -2510667.32646                  23721903.8444
        16.7504         16.7504
  23655029.9804   -5642632.14146  -4275169.74846                  23655037.5204
        19.5004         20.2504
 98  6 18 20 50  0.0040000  0  7G 6G30G10G22G17G26G23
  21554292.6994    2659797.76448   2098001.70246                  21554298.4774
        29.0004         25.5004
  24662246.7234   19685955.45546  15261206.36646                  24662254.6374
        13.7504         13.7504
  25088184.5044   19409684.42446  15054095.48045                  25088192.1484
        12.5004         10.5004
  25248518.3714    -476673.62245   -340617.99745                  25248527.8444
         9.5004         10.2504
  22498432.5904     166288.50448    165584.40147                  22498439.1874
        28.5004         29.2504
  23721865.2464   -3332478.23346  -2510794.17546                  23721871.9374
        17.0004         16.5004
  23652205.0044   -5657480.47446  -4286739.85746                  23652212.9654
        18.7504         20.2504
 98  6 18 20 50 15.0040000  0  7G 6G30G10G22G17G26G23
  21559084.7934    2684980.53748   2117624.64347                  21559090.3834
        28.7504         25.7504
  24676700.5274   19761911.99846  15320393.21946                  24676708.3244
        13.0004         13.7504
  25102457.1764   19484688.96546  15112540.57545                  25102464.9264
        12.7504         10.7504
  25248991.6604    -474186.77245   -338680.17545                  25249000.0204
         9.5004         10.5004
  22500356.9414     176401.46448    173464.64147                  22500363.4694
        28.5004         29.2504
  23721857.4734   -3332521.30646  -2510827.72846                  23721864.5204
        16.7504         16.7504
  23649395.9804   -5672241.09346  -4298241.61146                  23649403.6604
        19.2504         20.5004
 98  6 18 20 50 30.0040000  0  7G 6G30G10G22G17G26G23
  21563898.0124    2710273.99348   2137333.83446                  21563903.9654
        28.2504         25.5004
  24691161.6374   19837902.26346  15379606.33546                  24691170.5594
        13.0004         13.2504
  25116734.4804   19559715.33846  15171002.65645                  25116741.2544
        12.7504         10.5004
  25249486.9654    -471582.11345   -336650.56745                  25249495.5234
        10.2504         11.0004
  22502289.6994     186557.22148    181378.21147                  22502295.9694
        28.2504         29.5004
  23721869.0044   -3332458.77746  -2510778.97246                  23721875.7424
        17.0004         16.5004
  23646601.0824   -5686927.95946  -4309685.89946                  23646608.7274
        18.7504         20.0004
 98  6 18 20 50 45.0040000  0  7G 6G30G10G22G17G26G23
  21568732.8794    2735682.26648   2157132.48546                  21568738.8914
        28.0004         25.5004
  24705628.5354   19913927.57946  15438846.77946                  24705636.4264
        14.0004         13.5004
  25131016.7544   19634768.37245  15229485.51645                  25131023.0354
        11.7504         10.0004
  25250005.8094    -468855.32645   -334525.79345                  25250013.6054
        10.2504         10.2504
  22504231.6374     196762.43648    189330.32947                  22504237.8954
        28.0004         29.0004
  23721901.1054   -3332289.26746  -2510646.85146                  23721907.3874
        16.7504         16.0004
  23643821.1844   -5701537.19246  -4321069.69946                  23643828.6764
        19.5004         20.2504
 98  6 18 20 51  0.0040000  0  7G 6G30G10G22G17G26G23
  21573590.1994    2761207.61648   2177022.37046                  21573596.0004
        28.5004         25.2504
  24720102.4344   19989987.82446  15498114.46046                  24720109.6334
        13.7504         13.2504
  25145303.8404   19709848.54445  15287989.53445                  25145310.7464
        11.5004         10.7504
  25250548.3554    -466004.20445   -332304.14945                  25250555.9534
        10.7504         10.2504
  22506183.6374     207020.44747    197323.58847                  22506189.7774
        27.7504         29.5004
  23721954.0044   -3332012.51946  -2510431.16746                  23721960.7074
        16.7504         16.0004
  23641056.2624   -5716065.55546  -4332390.48246                  23641063.8484
        18.7504         20.2504
 98  6 18 20 51 15.0040000  0  7G 6G30G10G22G17G26G23
  21578467.9104    2786840.61348   2196996.13646                  21578473.5234
        28.5004         25.5004
  24734581.2774   20066073.22646  15557401.71946                  24734589.6134
        14.5004         14.0004
  25159594.3794   19784945.89545  15346506.91545                  25159600.7774
        11.5004         10.0004
  25251112.9734    -463037.72145   -329992.61445                  25251121.5554
        10.7504         10.2504
  22508144.2384     217323.48448    205351.93347                  22508150.7664
        28.0004         29.7504
  23722025.6844   -3331634.09746  -2510136.28846                  23722032.7194
        16.7504         16.0004
  23638306.1294   -5730519.91146  -4343653.59346                  23638313.4454
        19.2504         20.0004
 98  6 18 20 51 30.0040000  0  7G 6G30G10G22G17G26G23
  21583367.5984    2812587.75448   2217058.84946                  21583372.9304
        28.2504         25.5004
  24749066.2154   20142192.24746  15616715.16646                  24749074.3404
        13.7504         14.0004
  25173890.1524   19860071.31745  15405046.15445                  25173898.4304
        10.2504         10.0004
  25251701.3714    -459947.58045   -327584.70345                  25251709.9304
         9.7504         10.5004
  22510115.5354     227682.34647    213423.77347                  22510122.3204
        27.5004         29.5004
  23722119.5664   -3331142.13746  -2509752.92346                  23722126.4104
        16.7504         16.5004
  23635571.3554   -5744890.52746  -4354851.44846                  23635578.9184
        18.7504         20.5004
 98  6 18 20 51 45.0040000  0  7G 6G30G10G22G17G26G23
  21588288.3484    2838446.13348   2237208.23446                  21588294.1134
        28.2504         25.5004
  24763555.8484   20218334.88046  15676047.01746                  24763564.1134
        14.0004         13.7504
  25188190.2704   19935219.10545  15463602.83045                  25188197.5164
        10.2504          9.5004
  25252312.1134    -456737.80745   -325083.59845                  25252320.2734
         9.2504         10.0004
  22512095.7934     238089.51347    221533.25747                  22512102.5084
        27.5004         29.7504
  23722233.5594   -3330543.53246  -2509286.44446                  23722240.2034
        17.5004         16.2504
  23632851.8244   -5759179.75346  -4365985.88846                  23632859.7734
        19.0004         20.2504
 98  6 18 20 52  0.0040000  0  7G 6G30G10G22G17G26G23
  21593231.0824    2864420.38148   2257447.91946                  21593236.8244
        28.2504         25.5004
  24778049.1454   20294499.85246  15735396.29146                  24778056.6604
        13.7504         13.2504
  25202495.5274   20010393.73045  15522180.43445                  25202503.1844
        10.2504          9.7504
  25252945.6214    -453406.59045   -322487.81645                  25252953.7934
         9.7504          9.0004
  22514086.1844     248549.04947    229683.55647                  22514092.8754
        27.2504         29.7504
  23722368.4414   -3329834.45546  -2508733.90346                  23722375.2504
        17.7504         17.2504
  23630148.7154   -5773385.13346  -4377054.98946                  23630156.3124
        19.0004         20.5004
 98  6 18 20 52 15.0040000  0  7G 6G30G10G22G17G26G23
  21598195.2774    2890508.28247   2277776.15446                  21598201.1844
        27.7504         25.2504
  24792546.4344   20370683.50946  15794760.10646                  24792554.3124
        13.2504         13.2504
  25216806.0824   20085596.73845  15580780.17645                  25216813.9144
         9.5004          9.7504
  25253602.3014    -449957.35745   -319800.13745                  25253608.9224
         9.2504          9.0004
  22516086.4654     259060.15947    237874.03447                  22516093.2854
        27.0004         29.5004
  23722524.2154   -3329017.29746  -2508097.14346                  23722530.7894
        17.5004         17.5004
  23627461.4964   -5787506.61446  -4388058.71646                  23627469.5164
        19.5004         20.5004
 98  6 18 20 52 30.0040000  0  7G 6G30G10G22G17G26G23
  21603183.3554    2916720.30548   2298201.09847                  21603189.3914
        28.0004         26.0004
  24807048.4964   20446893.73646  15854144.64046                  24807056.7974
        13.2504         13.5004
  25231124.5204   20160837.06245  15639408.92645                  25231133.0784
        10.0004          9.2504
  25254282.8874    -446381.55545   -317013.78045                  25254290.4494
        10.5004          9.5004
  22518097.6054     269628.83747    246109.37447                  22518104.5234
        27.7504         30.0004
  23722702.1524   -3328081.67146  -2507368.05346                  23722709.0354
        17.0004         17.2504
  23624792.4414   -5801533.47846  -4398988.71346                  23624799.9574
        19.2504         20.0004
 98  6 18 20 52 45.0040000  0  7G 6G30G10G22G17G26G23
  21608192.6844    2943043.94348   2318713.03547                  21608198.7074
        28.2504         25.7504
  24821553.7074   20523116.85646  15913539.18646                  24821561.3754
        13.2504         13.5004
  25245446.9574   20236105.04145  15698059.28745                  25245455.0824
        10.0004          9.5004
  25254984.8404    -442691.12045   -314138.11645                  25254992.4144
        10.0004          9.0004
  22520116.9264     280241.09148    254378.66247                  22520123.8794
        28.0004         30.0004
  23722901.2154   -3327036.17046  -2506553.34146                  23722907.8954
        17.7504         17.0004
  23622139.4264   -5815474.86546  -4409852.10946                  23622147.0354
        19.7504         20.2504
 98  6 18 20 53  0.0040000  0  7G 6G30G10G22G17G26G23
  21613224.3874    2969486.61948   2339317.71947                  21613230.3404
        28.0004         25.7504
  24836062.2234   20599359.60846  15972949.05746                  24836070.3834
        12.2504         13.0004
  25259776.5824   20311408.54445  15756737.30145                  25259785.5274
         9.0004          9.0004
  25255710.1214    -438878.07945   -311166.92745                  25255717.4494
         9.7504          8.5004
  22522146.1294     290904.28648    262687.65047                  22522152.5624
        28.2504         30.0004
  23723122.6214   -3325872.62146  -2505646.67546                  23723129.2774
        17.5004         17.5004
  23619503.5824   -5829325.24946  -4420644.59246                  23619510.9224
        18.7504         19.7504
 98  6 18 20 53 15.0040000  0  7G 6G30G10G22G17G26G23
  21618279.7154    2996052.60148   2360018.47847                  21618285.5514
        28.7504         26.0004
  24850574.5984   20675620.78546  16032373.28246                  24850581.6454
        12.2504         13.2504
  25274113.1844   20386746.23645  15815441.97045                  25274123.3124
         9.0004          9.2504
  25256459.8164    -434940.08745   -308098.32745                  25256466.2274
         9.5004          9.7504
  22524184.9024     301617.24447    271035.40347                  22524191.2194
        27.5004         29.2504
  23723366.6374   -3324589.48446  -2504646.81246                  23723372.8954
        18.2504         17.5004
  23616885.0124   -5843084.50446  -4431366.06246                  23616892.0704
        18.7504         19.7504
 98  6 18 20 53 30.0040000  0  7G 6G30G10G22G17G26G23
  21623358.9264    3022743.90048   2380816.89347                  21623364.6094
        29.0004         25.7504
  24865090.0664   20751900.04246  16091811.60746                  24865098.2154
        12.7504         13.5004
  25288456.5434   20462119.54245  15874174.35845                  25288467.4224
         9.7504          9.7504
  25257232.9264    -430876.02245   -304931.52645                  25257240.8984
         8.2504          8.5004
  22526232.6374     312378.77647    279421.01447                  22526238.9654
        27.0004         29.5004
  23723633.4964   -3323186.23746  -2503553.36446                  23723639.8834
        17.7504         17.5004
  23614283.7934   -5856754.38946  -4442017.89646                  23614291.2154
        18.0004         19.2504
 98  6 18 20 53 45.0040000  0  7G 6G30G10G22G17G26G23
  21628463.0594    3049565.94948   2401717.19247                  21628468.9774
        28.2504         25.7504
  24879609.5514   20828200.31146  16151266.27846                  24879618.0514
        13.0004         13.2504
  25302806.4494   20537529.51245  15932935.35345                  25302813.2704
        10.2504          9.7504
  25258032.0434    -426678.93945   -301661.07945                  25258038.3124
         9.5004          8.0004
  22528290.3874     323192.11047    287846.99347                  22528297.0784
        27.2504         29.5004
  23723923.6764   -3321661.24646  -2502365.02946                  23723930.2504
        17.5004         17.5004
  23611700.1134   -5870330.96146  -4452597.01846                  23611707.6764
        18.0004         19.7504
 98  6 18 20 54  0.0040000  0  7G 6G30G10G22G17G26G23
  21633590.6134    3076511.88748   2422714.02647                  21633596.4494
        28.0004         25.7504
  24894130.7384   20904511.76446  16210729.65646                  24894138.9104
        12.5004         13.5004
  25317161.8794   20612967.92045  15991718.56445                  25317171.1054
         9.2504          9.5004
  25258854.6214    -422355.78645   -298292.38745                  25258860.3054
         9.7504          9.0004
  22530355.9964     334046.60547    296305.04447                  22530362.6174
        27.2504         29.0004
  23724235.6844   -3320021.03446  -2501086.91946                  23724242.0594
        17.0004         17.5004
  23609132.4804   -5883823.45446  -4463110.61746                  23609140.0204
        18.0004         19.5004
 98  6 18 20 54 15.0040000  0  7G 6G30G10G22G17G26G23
  21638741.0744    3103577.27848   2443803.93547                  21638746.9224
        28.5004         26.0004
  24908655.0744   20980835.54746  16270202.68646                  24908662.0984
        12.5004         13.2504
  25331522.5274   20688434.49945  16050523.63045                  25331532.0234
        10.2504          9.7504
  25259700.2384    -417911.06045   -294828.95345                  25259708.8094
         9.7504          9.2504
  22532428.9414     344939.81147    304793.26247                  22532435.8014
        27.7504         28.7504
  23724570.1454   -3318265.47346  -2499718.92246                  23724576.6134
        18.0004         18.0004
  23606581.0984   -5897232.23546  -4473558.98746                  23606588.3444
        18.2504         19.2504
 98  6 18 20 54 30.0040000  0  7G 6G30G10G22G17G26G23
  21643915.4344    3130768.89448   2464992.21347                  21643921.3984
        28.2504         26.2504
  24923183.3874   21057181.42446  16329692.91946                  24923191.4184
        13.0004         13.5004
  25345890.2544   20763934.87545  16109355.07745                  25345898.2734
        10.5004         10.0004
  25260571.1054    -413335.80445   -291263.83645                  25260578.7974
         9.7504          9.5004
  22534510.6294     355879.55147    313317.73247                  22534517.3554
        27.5004         29.0004
  23724928.1214   -3316384.49146  -2498253.22546                  23724934.5784
        18.0004         18.5004
  23604046.7304   -5910549.91746  -4483936.36846                  23604054.0824
        18.2504         19.5004
 98  6 18 20 54 45.0040000  0  7G 6G30G10G22G17G26G23
  21649112.1214    3158078.17948   2486272.16947                  21649118.0624
        28.7504         26.2504
  24937713.9184   21133541.51146  16389194.20846                  24937722.6524
        12.2504         13.0004
  25360261.5354   20839458.55645  16168204.67145                  25360271.2424
         9.2504          9.2504
  25261464.9264    -408638.87345   -287603.90545                  25261472.1954
         9.7504          9.5004
  22536599.9024     366858.17947    321872.51547                  22536606.6294
        27.0004         29.0004
  23725308.7154   -3314384.40546  -2496694.70646                  23725314.9734
        18.0004         18.2504
  23601527.9574   -5923785.94946  -4494250.13346                  23601535.0164
        18.7504         19.5004
 98  6 18 20 55  0.0040000  0  7G 6G30G10G22G17G26G23
  21654332.4264    3185510.21248   2507647.76847                  21654338.2504
        29.0004         26.5004
  24952248.7234   21209923.12546  16448712.27146                  24952257.4344
        12.2504         13.5004
  25374638.6914   20915010.22745  16227076.06245                  25374649.8634
         7.7504          8.7504
  25262383.5274    -403813.26745   -283843.70045                  25262391.2304
        10.0004          9.7504
  22538698.5664     377887.12247    330466.49847                  22538705.1874
        27.2504         28.2504
  23725712.7234   -3312261.48446  -2495040.46146                  23725719.3444
        17.5004         17.7504
  23599025.3404   -5936937.83946  -4504498.32846                  23599032.5744
        19.0004         19.5004
 98  6 18 20 55 15.0040000  0  7G 6G30G10G22G17G26G23
  21659576.6604    3213070.18948   2529123.07647                  21659582.3444
        29.0004         26.5004
  24966789.0984   21286330.19346  16508250.16946                  24966797.2464
        12.5004         13.0004
  25389021.7154   20990592.78045  16285971.49545                  25389029.7814
         8.0004          8.7504
  25263327.3164    -398852.95245   -279978.50545                  25263333.8444
        10.7504         10.5004
  22540807.5984     388970.60048    339102.98547                  22540813.9494
        28.2504         28.5004
  23726141.0824   -3310010.87746  -2493286.73446                  23726147.6564
        17.0004         17.7504
  23596539.7934   -5950001.14046  -4514677.49946                  23596546.8754
        19.0004         19.5004
 98  6 18 20 55 30.0040000  0  7G 6G30G10G22G17G26G23
  21664842.5204    3240741.55948   2550685.18147                  21664848.3444
        28.5004         26.2504
  24981330.6684   21362749.25946  16567797.43146                  24981339.3444
        12.2504         12.7504
  25403407.5904   21066191.72345  16344879.74845                  25403417.5314
         8.2504          8.0004
  25264294.1604    -393773.06145   -276020.17645                  25264301.5704
        11.5004         10.2504
  22542924.1454     400092.32147    347769.26147                  22542930.5554
        27.5004         28.2504
  23726590.8484   -3307645.32646  -2491443.42546                  23726597.3634
        16.2504         18.0004
  23594068.1914   -5962987.51246  -4524796.72446                  23594075.2274
        18.7504         19.5004
 98  6 18 20 55 45.0040000  0  7G 6G30G10G22G17G26G23
  21670129.2234    3268522.12948   2572332.36947                  21670135.2344
        29.0004         26.5004
  24995876.4414   21439184.90145  16627357.60646                  24995885.3874
        11.7504         12.7504
  25417797.2234   21141808.11945  16403801.59045                  25417805.8984
         7.7504          9.0004
  25265283.7234    -388571.15445   -271966.70245                  25265291.2854
        11.2504         10.5004
  22545048.4964     411256.33247    356468.49047                  22545054.8834
        27.2504         27.5004
  23727063.8714   -3305160.03946  -2489506.81546                  23727070.3054
        15.7504         17.7504
  23591612.6524   -5975892.28146  -4534852.36946                  23591619.9344
        18.7504         19.2504
 98  6 18 20 56  0.0040000  0  7G 6G30G10G22G17G26G23
  21675437.5434    3296418.86748   2594070.08947                  21675443.4844
        29.2504         26.7504
  25010426.5434   21515646.05546  16686937.64446                  25010434.9494
        12.5004         13.0004
  25432192.3164   21217453.08345  16462745.67245                  25432202.0354
         8.2504          8.7504
  25266298.5434    -383239.29845   -267812.04245                  25266304.9884
        11.0004         10.5004
  22547183.0984     422473.28547    365208.97647                  22547189.3094
        26.5004         27.2504
  23727561.5044   -3302544.51046  -2487468.71046                  23727568.4694
        16.5004         18.2504
  23589174.7304   -5988704.25646  -4544835.68746                  23589181.9774
        19.0004         19.7504
 98  6 18 20 56 15.0040000  0  7G 6G30G10G22G17G26G23
  21680766.6604    3324423.29348   2615891.71747                  21680772.6024
        29.0004         26.5004
  25024980.0904   21592126.78046  16746532.94346                  25024988.2734
        12.2504         13.0004
  25446590.5904   21293119.69445  16521706.62745                  25446600.2734
         8.7504          9.0004
  25267335.2384    -377787.84245   -263564.13245                  25267341.1454
        11.2504         10.5004
  22549326.5984     433737.95147    373986.64647                  22549332.9024
        26.7504         27.0004
  23728082.6844   -3299804.27046  -2485333.43446                  23728089.8594
        16.2504         18.0004
  23586752.7074   -6001430.79946  -4554752.45246                  23586760.1174
        18.5004         19.7504
 98  6 18 20 56 30.0040000  0  7G 6G30G10G22G17G26G23
  21686116.2154    3352534.68648   2637796.68447                  21686122.0864
        29.0004         26.7504
  25039538.1844   21668629.55045  16806145.40846                  25039546.4024
        11.7504         12.2504
  25460993.6374   21368806.56545  16580683.36845                  25461003.6954
         8.0004          8.5004
  25268396.0744    -372214.50045   -259221.26445                  25268403.7194
        11.0004         11.0004
  22551479.5744     445053.38447    382803.87447                  22551485.8674
        27.2504         26.7504
  23728627.7704   -3296939.95546  -2483101.48146                  23728634.9574
        16.5004         18.7504
  23584347.2074   -6014072.06046  -4564602.75146                  23584354.7704
        18.2504         19.2504
 98  6 18 20 56 45.0040000  0  7G 6G30G10G22G17G26G23
  21691487.0824    3380759.93048   2659790.38247                  21691493.0944
        29.5004         26.7504
  25054101.6764   21745157.17046  16865777.24946                  25054110.7734
        12.0004         12.2504
  25475400.2544   21444516.81945  16639678.35045                  25475408.1914
         7.5004          8.5004
  25269480.6604    -366513.58445   -254778.96145                  25269487.3284
        11.0004         10.7504
  22553643.5204     456424.23947    391664.28547                  22553649.7544
        27.0004         26.5004
  23729196.8164   -3293948.85246  -2480770.71446                  23729203.7234
        15.7504         18.2504
  23581958.2234   -6026625.12346  -4574384.33346                  23581965.9144
        18.0004         19.7504
 98  6 18 20 57  0.0040000  0  7G 6G30G10G22G17G26G23
  21696878.5594    3409092.73448   2681867.88647                  21696884.3594
        28.7504         26.2504
  25068667.4494   21821700.77346  16925421.55246                  25068675.2464
        13.0004         12.7504
  25489811.5434   21520244.93445  16698687.22845                  25489820.3954
         7.7504          8.2504
  25270589.2774    -360691.14945   -250242.00745                  25270596.1374
        11.5004         11.0004
  22555816.5044     467842.82447    400561.88447                  22555822.5984
        27.5004         26.5004
  23729788.4024   -3290840.49346  -2478348.60046                  23729795.0004
        16.5004         18.2504
  23579584.9654   -6039098.00646  -4584103.42846                  23579592.6094
        18.2504         20.0004
 98  6 18 20 57 15.0040000  0  7G 6G30G10G22G17G26G23
  21702293.0594    3437545.57648   2704038.92347                  21702298.9774
        29.5004         26.5004
  25083237.2774   21898269.03246  16985085.07046                  25083245.5204
        12.7504         12.2504
  25504227.5594   21596001.93145  16757718.62645                  25504236.4574
         8.0004          8.7504
  25271722.9024    -354733.79245   -245599.95145                  25271730.0314
        11.0004         10.7504
  22558000.6524     479320.29447    409505.37047                  22558006.8054
        27.5004         26.2504
  23730404.8324   -3287603.55846  -2475826.29346                  23730411.1254
        17.7504         18.7504
  23577228.9734   -6051477.95646  -4593750.12246                  23577236.2194
        18.2504         20.0004
 98  6 18 20 57 30.0040000  0  7G 6G30G10G22G17G26G23
  21707729.9104    3466117.72748   2726302.93647                  21707735.7934
        29.5004         26.7504
  25097811.8244   21974857.90146  17044764.62146                  25097819.6214
        12.7504         12.5004
  25518648.3874   21671786.44645  16816771.47745                  25518657.0274
         8.2504          8.0004
  25272881.7544    -348643.58146   -240854.31445                  25272890.5474
        12.2504         11.2504
  22560194.9264     490851.19048    418490.48747                  22560200.8914
        28.7504         26.5004
  23731045.0274   -3284239.61746  -2473205.03346                  23731051.7774
        17.5004         19.2504
  23574891.3014   -6063761.87046  -4603321.96646                  23574898.8874
        17.5004         19.5004
 98  6 18 20 57 45.0040000  0  7G 6G30G10G22G17G26G23
  21713189.3014    3494805.36948   2748656.93747                  21713195.3244
        29.2504         26.5004
  25112389.3324   22051463.09746  17104456.93146                  25112397.4104
        13.2504         12.0004
  25533074.4184   21747594.48145  16875842.63445                  25533083.1054
         7.7504          7.7504
  25274065.4264    -342424.58245   -236008.33745                  25274072.6724
        11.5004         10.7504
  22562399.3244     502435.34748    427517.11847                  22562405.3714
        28.7504         27.0004
  23731708.2154   -3280755.27446  -2470489.94246                  23731714.5204
        17.0004         18.7504
  23572570.7774   -6075954.58946  -4612822.75346                  23572578.4454
        17.0004         19.7504
 98  6 18 20 58  0.0040000  0  7G 6G30G10G22G17G26G23
  21718671.2774    3523612.85548   2771104.32247                  21718677.1724
        30.2504         27.0004
  25126970.6524   22128084.40646  17164161.78646                  25126977.4734
        14.0004         12.2504
  25547504.9734   21823427.34545  16934933.15145                  25547513.2274
         8.0004          8.5004
  25275273.3554    -336074.42845   -231060.18545                  25275279.2034
        11.5004         10.7504
  22564613.9654     514073.99248    436586.20247                  22564620.0824
        29.5004         27.0004
  23732393.3094   -3277152.78046  -2467682.78946                  23732399.5664
        16.0004         17.5004
  23570267.8794   -6088056.31146  -4622252.62946                  23570275.4774
        17.7504         19.7504
 98  6 18 20 58 15.0050000  0  7G 6G30G10G22G17G26G23
  21724176.2204    3552542.38348   2793646.80347                  21724182.0794
        30.5004         27.5004
  25141553.7674   22204722.23646  17223879.53246                  25141561.2354
        13.2504         12.7504
  25561940.9544   21899287.36045  16994044.81245                  25561950.1454
         8.2504          9.0004
  25276505.9624    -329598.65746   -226014.13445                  25276513.6774
        12.0004         10.7504
  22566838.3764     525762.25248    445693.94147                  22566844.5634
        29.0004         27.0004
  23733100.1344   -3273439.08946  -2464788.98946                  23733106.5674
        15.2504         17.5004
  23567980.6734   -6100075.85246  -4631618.48946                  23567988.4704
        17.7504         19.7504
 98  6 18 20 58 30.0050000  0  7G 6G30G10G22G17G26G23
  21729705.5244    3581599.05148   2816288.36447                  21729711.3374
        30.0004         27.2504
  25156140.8064   22281375.05146  17283608.91346                  25156149.0134
        13.5004         13.0004
  25576381.1264   21975170.53345  17053174.51745                  25576389.8604
         8.2504          8.5004
  25277763.3764    -322988.48745   -220863.33945                  25277770.2084
        11.2504         11.2504
  22569072.7124     537504.57848    454843.81047                  22569079.1814
        28.2504         27.0004
  23733829.1344   -3269607.38846  -2461803.24046                  23733836.0174
        16.0004         18.0004
  23565710.6184   -6112005.43246  -4640914.22846                  23565718.1924
        17.7504         20.0004
 98  6 18 20 58 45.0050000  0  7G 6G30G10G22G17G26G23
  21735258.5564    3610780.41848   2839027.08947                  21735264.5794
        30.2504         27.5004
  25170730.2204   22358041.46946  17343348.91446                  25170737.5604
        13.7504         13.0004
  25590825.4384   22051075.79945  17112321.46845                  25590834.6534
         8.7504          8.0004
  25279046.6344    -316247.88645   -215610.94545                  25279054.3134
        11.2504         11.0004
  22571316.1964     549293.80748    464030.23847                  22571322.7824
        29.0004         27.2504
  23734579.8134   -3265662.27546  -2458729.11046                  23734586.4234
        15.5004         17.7504
  23563455.9854   -6123853.07246  -4650146.12046                  23563463.3024
        18.0004         20.0004
 98  6 18 20 59  0.0050000  0  7G 6G30G10G22G17G26G23
  21740835.8924    3640088.58648   2861864.61647                  21740841.8104
        30.5004         27.7504
  25185321.4074   22434718.41146  17403097.11546                  25185329.3684
        14.5004         13.0004
  25605273.4154   22127000.02045  17171483.18745                  25605281.6104
         9.0004          8.2504
  25280353.6424    -309378.33745   -210258.07245                  25280361.4154
        11.2504         10.7504
  22573568.0564     561129.11848    473252.57547                  22573574.5134
        28.7504         27.7504
  23735352.8214   -3261601.09246  -2455564.53346                  23735359.7634
        15.5004         18.2504
  23561217.8374   -6135617.10146  -4659312.87346                  23561224.9664
        18.5004         20.2504
 98  6 18 20 59 15.0050000  0  7G 6G30G10G22G17G26G23
  21746437.4934    3669524.92148   2884802.01747                  21746443.4814
        30.5004         28.0004
  25199914.2354   22511407.66046  17462854.89446                  25199923.0054
        13.5004         13.0004
  25619724.9384   22202943.68645  17230660.01745                  25619732.9704
         8.7504          8.5004
  25281685.3684    -302378.42245   -204803.60545                  25281692.7904
        10.0004         10.2504
  22575829.5094     573011.95548    482511.93247                  22575835.9074
        30.2504         27.5004
  23736147.9234   -3257421.33646  -2452307.57146                  23736154.4744
        15.7504         18.7504
  23558996.0094   -6147292.22246  -4668410.33746                  23559003.2314
        18.2504         20.0004
 98  6 18 20 59 30.0050000  0  7G 6G30G10G22G17G26G23
  21752064.1344    3699092.24748   2907841.49047                  21752070.1694
        30.5004         28.2504
  25214511.0244   22588112.07946  17522624.51646                  25214519.5954
        13.0004         12.7504
  25634179.6814   22278907.67145  17289852.71345                  25634187.6304
         8.0004          8.2504
  25283042.9074    -295249.01645   -199248.22445                  25283051.0674
        10.7504         10.5004
  22578099.8454     584942.28848    491808.30347                  22578106.0564
        30.7504         27.7504
  23736966.3294   -3253120.17746  -2448955.98946                  23736973.4464
        15.0004         18.7504
  23556791.9784   -6158874.87946  -4677435.75346                  23556799.5404
        18.0004         20.0004
 98  6 18 20 59 45.0050000  0  7G 6G30G10G22G17G26G23
  21757715.1494    3728789.86548   2930982.47947                  21757721.2314
        31.5004         28.5004
  25229110.6104   22664832.04646  17582406.23446                  25229118.2084
        13.2504         12.5004
  25648639.3844   22354891.71345  17349061.03845                  25648647.3214
         8.0004          8.0004
  25284422.9854    -287993.56245   -193594.66945                  25284430.8884
        11.5004         10.7504
  22580378.8924     596917.78448    501139.86947                  22580384.8804
        30.5004         27.7504
  23737807.5404   -3248697.47246  -2445509.70946                  23737814.6694
        14.2504         18.0004
  23554604.3374   -6170369.25446  -4686392.37646                  23554611.8764
        18.7504         20.2504
 98  6 18 21  0  0.0050000  0  7G 6G30G10G22G17G26G23
  21763389.6344    3758609.34348   2954218.43547                  21763395.6104
        31.2504         28.7504
  25243711.8294   22741562.38046  17642196.03346                  25243719.5794
        13.2504         13.0004
  25663101.1814   22430889.78845  17408280.24545                  25663112.1884
         8.0004          8.2504
  25285826.3134    -280619.17445   -187848.38845                  25285834.5794
        11.2504         10.0004
  22582664.9624     608931.96148    510501.56447                  22582670.9854
        31.5004         27.7504
  23738671.6574   -3244156.87946  -2441971.55846                  23738678.9744
        14.2504         18.2504
  23552431.9854   -6181785.78346  -4695288.34246                  23552439.4074
        19.5004         20.7504
 98  6 18 21  0 15.0050000  0  7G 6G30G10G22G17G26G23
  21769087.6264    3788553.47848   2977551.52447                  21769093.5094
        31.0004         28.5004
  25258315.5174   22818306.87646  17701996.88046                  25258323.5134
        12.7504         13.0004
  25677566.4784   22506904.84645  17467512.71545                  25677574.6034
         7.7504          8.0004
  25287252.8294    -273124.49345   -182008.33445                  25287259.5204
        11.2504          9.7504
  22584958.6734     620985.78948    519894.17347                  22584964.6734
        31.0004         27.7504
  23739559.6964   -3239490.98346  -2438335.77946                  23739566.8494
        14.2504         17.7504
  23550275.3134   -6193118.98847  -4704119.38046                  23550282.7244
        20.2504         21.5004
 98  6 18 21  0 30.0050000  0  7G 6G30G10G22G17G26G23
  21774808.8994    3818618.46948   3000978.77847                  21774814.8414
        31.2504         28.7504
  25272922.8844   22895064.93946  17761808.27446                  25272930.2944
        12.0004         12.5004
  25692035.7354   22582937.04745  17526758.56545                  25692044.8104
         7.5004          7.5004
  25288701.7044    -265509.25145   -176074.41645                  25288708.9744
        10.7504         10.2504
  22587260.2594     633080.41448    529318.56547                  22587266.2004
        31.5004         28.0004
  23740472.5564   -3234694.43346  -2434598.20346                  23740479.5204
        15.7504         18.7504
  23548134.8454   -6204366.54347  -4712883.67446                  23548142.1964
        20.0004         21.2504
 98  6 18 21  0 45.0050000  0  7G 6G30G10G22G17G26G23
  21780551.7124    3848797.96548   3024495.25647                  21780557.7124
        30.7504         28.5004
  25287530.2514   22971830.05045  17821625.18846                  25287538.1884
        11.5004         12.2504
  25706505.8844   22658980.20944  17586012.95945                  25706511.8134
         7.2504          7.0004
  25290173.2044    -257775.82845   -170048.40645                  25290180.2984
        10.5004          9.5004
  22589568.3924     645209.76448    538770.01947                  22589574.4504
        30.5004         28.2504
  23741410.5324   -3229767.11046  -2430758.70746                  23741417.2944
        16.0004         18.7504
  23546010.7594   -6215528.89347  -4721581.57946                  23546018.2394
        20.7504         22.0004
 98  6 18 21  1  0.0050000  0  7G 6G30G10G22G17G26G23
  21786317.4314    3879095.48648   3048103.70747                  21786323.3844
        30.5004         28.5004
  25302139.6654   23048601.22245  17881446.79646                  25302148.9744
        11.5004         12.2504
  25720978.7044   22735035.12044  17645276.47045                  25720987.8024
         6.7504          6.7504
  25291667.0484    -249924.83245   -163930.74745                  25291674.8214
         9.7504          9.7504
  22591883.3844     657375.00848    548249.43547                  22591889.3844
        31.2504         28.5004
  23742372.5174   -3224707.57146  -2426816.19646                  23742379.1614
        16.0004         18.7504
  23543903.4854   -6226604.36947  -4730211.78946                  23543910.8024
        20.2504         22.0004
 98  6 18 21  1 15.0050000  0  7G 6G30G10G22G17G26G23
  21792107.3534    3909522.78948   3071813.28547                  21792113.3884
        30.7504         28.5004
  25316751.2354   23125388.41845  17941280.88546                  25316760.8724
        11.2504         12.2504
  25735456.3134   22811120.01544  17704563.35345                  25735465.7284
         7.0004          7.0004
  25293185.7824    -241944.39445   -157712.22945                  25293195.2434
         9.5004          9.0004
  22594207.5484     669588.13848    557766.16747                  22594213.7354
        31.5004         28.7504
  23743362.4154   -3219508.16746  -2422764.69746                  23743369.5324
        16.5004         19.0004
  23541814.5174   -6237581.26647  -4738765.18246                  23541821.7514
        21.0004         22.0004
